GFSNE_850_dewp_000.txt.gz
Dewpoint
11 11 11 11 11 10 10 10 9 9 8 8 8 8 7 7 7 7 6 6 5 6 6 6 7 7 5 5 2 -1 -4 -9 -21 -24 -20 -5 -3 -2
11 11 11 11 11 11 10 10 9 9 9 8 8 8 8 8 8 7 7 6 6 7 7 7 7 6 5 5 0 -2 -8 -21 -25 -24 -18 -4 -3 -3
10 10 10 10 10 10 10 10 9 9 9 9 9 9 9 8 8 8 7 7 7 7 7 7 7 6 5 3 -1 -6 -18 -26 -25 -22 -20 -5 -3 -4
6 8 9 9 9 10 10 10 10 9 9 9 9 9 9 9 9 8 8 8 7 7 8 8 6 6 5 1 -3 -14 -24 -27 -23 -21 -20 -12 -5 -5
6 6 6 7 9 9 9 10 10 9 9 9 9 9 9 9 9 9 9 8 7 7 8 8 7 6 5 -2 -10 -21 -28 -24 -22 -20 -19 -18 -6 -4
5 4 4 3 5 8 9 10 9 9 9 9 9 9 9 9 9 8 7 8 7 6 6 7 7 5 -0 -6 -16 -27 -25 -21 -21 -20 -18 -6 -5 -5
4 4 4 3 4 4 8 9 9 9 9 9 9 9 9 8 7 8 8 7 7 6 5 6 5 1 -5 -14 -23 -26 -21 -20 -20 -18 -7 -6 -5 -6
4 4 4 4 3 3 6 6 8 8 9 8 9 8 8 8 6 8 8 6 5 5 5 5 2 -4 -14 -20 -24 -21 -20 -19 -20 -19 -11 -6 -7 -6
3 3 3 5 6 5 4 5 6 7 8 9 8 9 8 8 6 7 7 7 6 6 5 2 -6 -14 -19 -20 -21 -19 -16 -16 -19 -20 -22 -7 -7 -7
0 2 3 4 5 6 5 4 6 7 7 8 7 8 8 8 8 7 7 6 6 3 0 -6 -11 -15 -18 -21 -20 -18 -14 -11 -17 -24 -24 -22 -11 -7
1 2 3 2 2 4 5 5 4 6 7 6 7 6 8 8 8 7 7 6 4 2 -5 -10 -18 -16 -19 -20 -19 -22 -21 -20 -21 -22 -22 -14 -10 -8
-13 -13 -5 -1 2 2 3 4 4 4 6 7 7 7 7 7 6 7 7 5 2 -3 -4 -9 -15 -15 -19 -21 -23 -23 -23 -23 -21 -20 -14 -11 -8 -9
-17 -14 -8 -2 0 2 2 3 4 5 5 7 7 6 6 5 6 3 3 4 2 -0 -7 -12 -13 -21 -20 -21 -24 -23 -24 -22 -22 -22 -22 -19 -16 -10
-20 -15 -4 -0 0 1 2 3 5 5 5 6 6 6 4 3 2 1 1 0 -1 -6 -12 -13 -20 -21 -19 -22 -24 -24 -24 -24 -24 -23 -20 -16 -13 -11
-20 -13 -2 0 2 2 3 3 4 4 5 5 5 2 2 1 0 -0 -0 -5 -11 -6 -11 -20 -23 -19 -21 -24 -24 -26 -28 -26 -22 -17 -16 -14 -13 -12
-15 -7 -1 -0 0 1 1 2 3 3 4 3 2 1 1 -1 0 -3 -5 -3 -4 -4 -14 -21 -19 -20 -23 -25 -26 -28 -26 -21 -19 -18 -15 -13 -12 -11
-4 -3 -2 -1 -1 -0 -1 0 1 1 0 0 -0 -1 -1 -1 -1 -3 -3 -4 -2 -11 -20 -19 -19 -21 -24 -26 -28 -23 -19 -18 -17 -13 -12 -11 -10 -10
-4 -3 -3 -3 -2 -2 -2 -1 -1 -1 -1 -2 -2 -2 -2 -3 -3 -2 -3 -3 -12 -19 -19 -19 -21 -24 -27 -28 -21 -19 -17 -15 -13 -12 -11 -10 -9 -9
-5 -5 -4 -3 -3 -3 -2 -2 -2 -2 -2 -2 -3 -3 -4 -4 -4 -3 -4 -10 -18 -19 -19 -20 -22 -25 -27 -27 -23 -17 -15 -12 -10 -10 -9 -8 -8 -8
-6 -5 -4 -4 -3 -3 -3 -3 -3 -3 -3 -3 -4 -4 -4 -3 -5 -4 -6 -18 -19 -18 -20 -23 -25 -25 -27 -24 -19 -13 -13 -10 -9 -8 -8 -8 -8 -8
-7 -5 -5 -5 -4 -3 -3 -4 -4 -4 -4 -4 -5 -4 -3 -4 -4 -7 -17 -19 -18 -20 -23 -25 -26 -28 -23 -18 -15 -11 -9 -8 -7 -8 -8 -8 -9 -9
-7 -6 -6 -5 -5 -4 -4 -5 -5 -5 -5 -5 -4 -3 -4 -4 -5 -16 -19 -18 -21 -24 -24 -28 -28 -20 -17 -13 -10 -8 -7 -7 -7 -6 -7 -7 -7 -9
-7 -7 -6 -5 -5 -4 -5 -5 -6 -6 -6 -5 -5 -4 -4 -4 -15 -18 -18 -21 -23 -24 -29 -28 -18 -17 -12 -9 -8 -7 -7 -6 -7 -6 -5 -6 -6 -7

GFSNE_850_dewp_003.txt.gz
Dewpoint
9 9 10 9 10 10 11 11 10 10 8 7 8 8 7 7 6 7 7 6 6 6 6 5 5 6 5 6 6 6 5 5 -0 -3 -12 -25 -21 -7
2 4 6 7 8 9 9 9 10 10 10 9 8 8 8 8 7 8 8 7 7 7 6 6 6 6 6 7 7 6 5 3 -1 -8 -23 -26 -16 -2
2 4 4 4 6 7 6 8 10 10 10 9 8 8 9 9 8 7 7 7 7 7 7 7 6 7 7 7 7 6 5 0 -4 -18 -27 -23 -8 -3
5 5 6 6 5 5 6 7 9 9 9 9 9 9 9 8 8 7 7 7 8 8 7 6 7 7 6 5 6 5 4 -1 -13 -23 -26 -21 -19 -6
2 3 4 4 4 4 4 4 4 5 8 9 9 9 9 8 8 8 7 8 8 8 8 6 7 7 7 5 4 5 1 -7 -18 -25 -22 -22 -23 -20
3 3 3 3 4 4 5 6 6 5 6 7 8 9 9 9 8 8 8 8 8 8 8 6 6 7 6 4 3 1 -3 -15 -23 -23 -22 -22 -22 -18
2 1 1 1 2 3 4 5 6 6 6 7 8 8 9 8 7 8 8 8 8 8 8 6 5 5 5 3 2 2 -12 -20 -24 -21 -21 -21 -14 -6
-2 -9 -7 -2 1 3 4 5 6 6 7 7 7 7 7 7 7 8 7 6 6 7 7 6 4 4 2 1 1 -11 -18 -21 -22 -20 -21 -19 -10 -5
-11 -11 -7 -0 -4 -1 1 3 3 4 5 6 6 6 7 7 8 7 6 7 5 6 5 4 4 4 1 1 -6 -13 -19 -21 -18 -18 -19 -15 -12 -5
-21 -16 -16 -20 -13 -6 1 2 3 3 3 5 5 5 6 7 7 8 7 5 5 6 4 2 3 1 1 -2 -3 -16 -19 -16 -14 -12 -12 -19 -11 -7
-8 -5 -15 -22 -18 -9 0 1 1 1 2 3 4 4 3 5 7 7 6 5 3 4 2 2 1 0 -2 -4 -15 -18 -18 -15 -11 -6 -10 -13 -9 -8
-3 -7 -13 -16 -18 -8 -0 0 0 1 2 3 3 4 4 4 5 7 6 6 2 1 1 0 0 -2 -3 -6 -17 -20 -21 -22 -14 -12 -12 -7 -6 -8
-4 -4 -8 -17 -16 -3 -1 0 1 1 1 2 3 4 4 5 5 5 5 5 3 3 3 0 -1 -0 -13 -25 -23 -24 -24 -20 -19 -19 -18 -15 -12 -11
-3 -4 -8 -15 -5 -2 -1 -0 -0 0 1 2 3 4 4 4 2 2 2 2 1 2 2 1 -0 -5 -17 -24 -22 -24 -23 -23 -22 -23 -22 -22 -20 -17
-5 -5 -7 -4 -3 -2 -2 -2 -2 -1 -0 0 1 1 1 0 0 -0 -1 -1 -1 -0 -1 -1 -2 -20 -25 -22 -25 -24 -23 -24 -25 -23 -20 -16 -15 -13
-6 -7 -4 -3 -3 -3 -4 -3 -3 -2 -2 -1 -1 -1 -1 -1 -2 -2 -1 -2 -1 -3 -3 -4 -20 -21 -20 -23 -25 -27 -26 -23 -18 -17 -17 -15 -13 -12
-6 -5 -5 -5 -5 -4 -5 -4 -4 -3 -3 -2 -2 -2 -2 -2 -3 -3 -2 -2 -2 -3 -4 -17 -19 -19 -22 -25 -27 -25 -19 -17 -16 -15 -13 -12 -11 -10
-6 -6 -6 -6 -6 -5 -4 -5 -4 -4 -4 -3 -3 -3 -3 -3 -4 -4 -3 -4 -3 -5 -15 -17 -18 -20 -25 -28 -23 -19 -17 -14 -13 -12 -11 -10 -9 -9
-8 -7 -7 -7 -7 -5 -5 -5 -5 -4 -4 -4 -4 -4 -4 -4 -4 -4 -4 -5 -6 -15 -16 -17 -21 -25 -27 -27 -21 -15 -14 -13 -11 -10 -9 -8 -8 -8
-8 -9 -9 -8 -7 -6 -6 -6 -5 -5 -5 -5 -5 -5 -6 -5 -5 -5 -5 -4 -14 -17 -17 -21 -24 -25 -28 -24 -18 -14 -12 -10 -8 -7 -7 -7 -7 -7
-9 -9 -9 -9 -7 -7 -6 -6 -6 -6 -6 -6 -6 -7 -7 -6 -5 -5 -4 -14 -15 -17 -20 -23 -25 -29 -22 -16 -13 -9 -8 -7 -7 -7 -7 -7 -7 -8
-10 -10 -10 -9 -8 -7 -7 -7 -6 -6 -7 -7 -7 -7 -7 -6 -5 -5 -15 -17 -18 -21 -24 -28 -28 -19 -16 -11 -8 -7 -7 -7 -8 -8 -7 -7 -8 -8
-10 -10 -9 -10 -9 -7 -7 -7 -6 -7 -7 -7 -7 -7 -6 -5 -5 -15 -16 -18 -22 -24 -29 -27 -18 -15 -9 -8 -7 -7 -7 -8 -7 -5 -5 -5 -6 -6

GFSNE_850_dewp_006.txt.gz
Dewpoint
0 1 2 3 4 4 5 7 8 9 9 9 9 9 8 8 5 6 7 5 3 6 6 6 7 5 5 6 6 6 7 8 6 5 5 5 2 -3
0 3 3 4 5 5 6 6 7 9 9 8 8 8 9 9 8 8 8 7 6 5 6 7 7 6 6 6 6 6 6 7 7 6 5 5 0 -7
3 2 1 2 3 4 4 4 5 6 7 6 7 7 8 8 8 9 9 8 7 7 6 6 7 7 7 6 7 6 6 7 6 6 5 4 -2 -16
-1 -1 2 3 3 3 3 3 4 4 6 7 7 7 7 6 8 8 7 7 8 8 8 7 7 7 7 7 7 7 7 7 6 5 4 1 -9 -12
-0 2 2 1 1 -1 -0 2 3 3 4 6 7 7 7 7 7 7 8 8 9 7 5 7 7 7 8 7 8 7 7 7 6 4 2 -3 -18 -5
-1 -2 -3 -6 -9 -8 0 2 2 4 5 5 6 6 6 6 7 7 8 7 7 8 8 8 6 6 8 7 7 7 7 6 4 3 1 -5 -19 -12
-6 -8 -10 -13 -14 -2 -9 -9 -3 2 2 3 4 5 6 6 6 6 7 7 6 6 6 7 7 7 7 6 6 5 5 5 3 3 -3 -16 -20 -16
-8 -10 -15 -19 -11 -15 -22 -15 -10 0 2 2 3 4 4 5 5 6 6 7 6 6 4 5 6 5 5 5 5 4 4 3 2 -2 -3 -14 -6 -5
-10 -12 -19 -15 -2 -9 -19 -18 -15 -4 -1 0 1 2 3 4 5 5 5 5 6 6 6 5 5 4 4 4 4 2 2 2 0 -6 -11 -5 -5 -5
-14 -19 -20 -3 -5 -9 -11 -9 -11 -3 -1 -0 0 1 1 2 3 3 4 4 5 6 6 4 4 4 3 3 2 1 1 -0 -1 -6 -4 -4 -5 -5
-10 -11 -6 -4 -4 -3 -4 -5 -4 -2 -1 -0 0 0 1 2 2 2 3 3 4 5 5 4 3 2 1 0 -0 -0 -0 -0 -4 -4 -4 -5 -5 -6
-6 -6 -4 -4 -4 -4 -4 -4 -2 -2 -2 -1 -1 -1 1 1 2 2 3 3 3 3 4 3 0 -0 -2 -1 -1 -1 -2 -4 -5 -4 -4 -5 -5 -6
-5 -6 -6 -8 -6 -6 -4 -3 -2 -3 -3 -3 -2 -1 0 1 2 2 2 2 3 3 4 2 -0 -1 -0 -2 -2 -3 -6 -6 -5 -5 -5 -5 -6 -6
-6 -7 -7 -7 -7 -4 -4 -4 -4 -4 -3 -4 -3 -2 -1 -0 0 0 1 1 1 1 1 0 -0 -1 -0 -5 -5 -6 -11 -14 -13 -11 -11 -11 -10 -7
-7 -6 -7 -6 -5 -5 -5 -5 -5 -4 -5 -4 -4 -4 -3 -2 -2 -2 -2 -2 -1 -1 -1 -2 -1 -1 -1 -3 -19 -19 -16 -16 -17 -19 -20 -20 -21 -21
-7 -8 -8 -7 -7 -7 -7 -6 -6 -5 -5 -5 -5 -4 -4 -3 -3 -4 -3 -3 -2 -4 -4 -2 -3 -4 -14 -21 -24 -23 -22 -24 -23 -23 -23 -22 -20 -17
-9 -9 -10 -10 -9 -9 -8 -7 -6 -6 -6 -6 -5 -5 -5 -5 -4 -4 -5 -4 -3 -4 -5 -4 -8 -19 -19 -22 -25 -26 -26 -25 -19 -18 -17 -17 -16 -15
-10 -10 -10 -10 -8 -8 -8 -7 -7 -6 -6 -6 -6 -6 -6 -6 -5 -5 -5 -5 -5 -5 -5 -14 -18 -19 -22 -25 -27 -26 -20 -17 -16 -16 -15 -13 -12 -11
-12 -10 -10 -10 -9 -9 -8 -8 -7 -7 -7 -6 -6 -6 -7 -6 -7 -6 -6 -6 -6 -7 -15 -16 -19 -25 -29 -27 -24 -20 -16 -14 -13 -13 -12 -10 -9 -9
-11 -11 -11 -10 -10 -9 -9 -8 -8 -7 -7 -7 -7 -7 -7 -7 -7 -7 -6 -6 -6 -14 -15 -18 -23 -26 -28 -24 -16 -15 -13 -12 -11 -9 -8 -8 -7 -8
-11 -11 -11 -10 -10 -9 -10 -8 -8 -8 -7 -7 -7 -8 -8 -8 -7 -7 -6 -6 -14 -15 -17 -22 -25 -27 -22 -15 -12 -9 -8 -8 -7 -7 -7 -7 -7 -7
-13 -12 -12 -11 -10 -11 -8 -8 -8 -8 -7 -7 -8 -8 -8 -7 -7 -6 -7 -14 -14 -18 -23 -26 -27 -17 -14 -10 -8 -7 -7 -7 -7 -8 -8 -7 -7 -7
-14 -12 -12 -11 -10 -10 -9 -9 -9 -8 -8 -8 -8 -8 -7 -7 -6 -10 -13 -15 -20 -25 -30 -22 -16 -11 -8 -7 -7 -7 -7 -7 -6 -6 -6 -6 -6 -7

GFSNE_850_dewp_009.txt.gz
Dewpoint
-2 -1 2 3 2 2 3 4 6 7 6 6 6 6 7 7 8 7 7 6 7 6 6 6 5 5 7 7 7 7 6 5 6 6 8 7 7 6
1 -0 -1 -1 -0 2 3 3 3 4 5 5 5 6 5 5 5 5 5 6 7 7 7 7 6 7 5 7 7 7 6 6 6 7 8 8 8 6
-2 -3 -2 1 3 1 0 0 -1 -0 4 3 4 4 5 5 6 6 5 5 5 5 7 7 7 7 7 6 7 7 7 6 6 6 8 8 7 6
-8 -3 -1 -1 -6 -9 -9 -7 -8 -2 2 3 2 3 5 5 5 5 6 6 6 5 5 6 6 7 8 7 7 7 7 7 6 7 7 8 7 6
-9 -3 -2 -8 -11 -13 -15 -1 -1 -13 -12 -3 2 2 2 3 4 4 5 6 5 6 6 6 6 6 6 7 6 7 8 8 7 7 8 7 5 5
-6 -3 -6 -8 -10 -16 -6 1 -4 -14 -6 -2 -2 1 1 1 3 4 5 6 5 4 4 3 5 5 6 6 4 6 8 8 8 8 8 7 6 5
-7 -10 -12 -12 -13 -13 -3 -3 -4 -6 -3 -3 -2 -1 -0 0 1 2 2 4 4 5 5 3 3 5 6 6 6 5 7 7 7 7 7 6 5 5
-12 -13 -16 -17 -17 -9 -7 -7 -4 -3 -3 -3 -3 -2 -2 -1 -0 1 1 2 3 4 5 5 5 4 4 5 5 4 6 7 7 7 6 5 3 3
-13 -12 -14 -12 -9 -6 -5 -4 -4 -3 -4 -4 -3 -2 -2 -1 -1 -0 0 1 2 2 3 4 4 4 4 5 6 5 5 5 6 4 3 3 2 -0
-9 -9 -7 -6 -6 -5 -5 -5 -5 -6 -11 -5 -2 -2 -2 -2 -1 -0 -0 0 1 2 2 2 3 4 4 5 5 4 4 4 3 2 2 1 -0 -0
-8 -6 -6 -6 -6 -6 -6 -6 -6 -6 -5 -4 -3 -3 -3 -3 -2 -1 0 1 1 2 2 2 3 3 3 4 2 2 2 1 1 1 0 -1 -2 -4
-6 -7 -8 -7 -7 -6 -6 -6 -4 -4 -3 -4 -4 -4 -4 -4 -3 -1 -1 -1 -1 -0 1 1 2 1 0 0 -0 -1 -1 -1 -0 -1 -2 -3 -4 -4
-7 -7 -8 -7 -6 -7 -6 -6 -6 -5 -6 -5 -5 -6 -5 -5 -4 -3 -2 -3 -2 -2 -1 1 1 0 -1 -1 -2 -2 -2 -2 -2 -3 -4 -4 -4 -4
-7 -8 -8 -8 -8 -8 -8 -8 -7 -6 -6 -6 -6 -6 -6 -4 -4 -4 -4 -3 -3 -3 -2 -1 -1 -0 -1 -3 -5 -4 -3 -3 -4 -4 -4 -4 -4 -4
-8 -7 -8 -9 -8 -9 -9 -8 -7 -7 -7 -6 -6 -6 -6 -6 -5 -5 -5 -5 -5 -4 -3 -2 -3 -2 -2 -2 -4 -5 -5 -4 -5 -5 -4 -5 -5 -5
-8 -9 -11 -11 -9 -10 -10 -9 -8 -8 -7 -7 -7 -7 -7 -6 -6 -5 -6 -6 -6 -5 -5 -4 -4 -3 -3 -3 -3 -4 -3 -8 -8 -7 -8 -7 -6 -7
-9 -11 -13 -10 -10 -10 -10 -9 -9 -9 -8 -8 -7 -7 -7 -7 -7 -6 -6 -6 -6 -6 -6 -6 -5 -6 -12 -14 -20 -13 -15 -19 -16 -13 -11 -12 -16 -19
-10 -11 -11 -10 -10 -11 -11 -10 -9 -9 -8 -8 -7 -7 -7 -7 -7 -7 -7 -7 -6 -7 -6 -7 -10 -18 -20 -22 -20 -19 -20 -24 -22 -20 -20 -20 -18 -17
-11 -11 -11 -11 -11 -11 -11 -10 -10 -9 -9 -8 -8 -8 -8 -8 -8 -8 -7 -7 -7 -7 -8 -15 -17 -21 -25 -23 -24 -23 -22 -19 -18 -17 -17 -16 -15 -14
-10 -11 -11 -11 -11 -11 -11 -10 -10 -10 -9 -9 -8 -8 -8 -8 -8 -8 -8 -7 -7 -8 -10 -17 -24 -27 -26 -18 -17 -17 -16 -14 -14 -13 -13 -12 -10 -9
-11 -12 -11 -12 -12 -11 -11 -10 -10 -10 -9 -9 -8 -8 -8 -8 -8 -8 -8 -7 -9 -11 -17 -22 -25 -23 -15 -13 -12 -11 -11 -10 -10 -9 -8 -8 -7 -7
-13 -12 -12 -12 -12 -12 -11 -10 -10 -10 -9 -9 -8 -8 -8 -8 -8 -8 -8 -10 -13 -18 -23 -27 -18 -14 -10 -8 -7 -7 -7 -7 -7 -7 -7 -7 -7 -7
-13 -12 -12 -13 -12 -12 -10 -10 -10 -9 -9 -9 -8 -8 -8 -7 -8 -10 -14 -17 -22 -27 -20 -14 -10 -7 -7 -7 -7 -7 -7 -7 -7 -6 -7 -7 -7 -8

GFSNE_850_dewp_012.txt.gz
Dewpoint
-2 0 -3 -5 -4 0 3 3 1 3 2 -0 2 2 2 2 2 3 4 4 4 5 5 5 6 8 8 8 8 8 7 7 8 7 6 5 8 8
-10 -13 -14 -9 -2 1 -5 -8 -11 -2 1 -2 -2 0 -0 -1 -1 2 2 2 2 3 5 5 5 6 6 7 8 6 6 7 7 8 7 5 6 8
-20 -17 -9 -2 -0 -3 -8 -8 -14 -7 1 -2 -5 -12 -14 -9 -1 1 2 2 3 3 3 4 5 6 6 6 6 8 8 7 7 8 7 7 6 6
-16 -9 -5 -5 -6 -7 -8 -10 -11 -1 -0 -1 -6 -11 -15 -17 -15 -7 0 -0 0 3 4 3 5 5 6 6 6 6 7 7 8 8 8 7 7 6
-7 -7 -8 -9 -11 -12 -12 -13 -5 -2 -2 -4 -7 -10 -12 -14 -8 -6 -9 -5 -0 2 4 5 5 4 3 3 5 5 5 6 7 6 7 8 8 6
-8 -10 -13 -13 -12 -10 -8 -7 -3 -3 -3 -3 -3 -3 -4 -7 -4 -4 -5 -4 -2 -1 2 3 3 4 3 2 3 4 5 7 5 5 5 6 8 8
-13 -15 -15 -15 -10 -7 -6 -6 -5 -4 -4 -4 -4 -3 -4 -4 -3 -3 -2 -3 -1 -0 -0 -0 0 0 3 5 4 2 4 4 6 5 5 6 7 8
-11 -12 -11 -10 -7 -6 -6 -6 -6 -6 -6 -5 -5 -5 -5 -4 -3 -2 -2 -2 -2 -1 -0 -0 1 2 1 -0 0 0 2 2 4 5 6 6 7 8
-10 -9 -9 -7 -6 -7 -7 -7 -6 -6 -6 -7 -6 -5 -5 -5 -3 -3 -3 -2 -2 -2 -1 -1 -0 1 1 3 2 2 3 3 4 5 6 5 7 7
-9 -9 -6 -7 -9 -7 -6 -6 -6 -9 -9 -5 -4 -4 -4 -3 -3 -4 -3 -3 -3 -2 -1 0 0 1 1 2 2 2 2 4 5 4 6 6 6 5
-9 -8 -7 -8 -8 -7 -7 -7 -8 -8 -9 -8 -6 -5 -5 -5 -5 -4 -4 -4 -3 -3 -3 -1 -0 0 0 1 2 2 2 4 4 5 5 3 2 1
-8 -8 -9 -8 -8 -7 -8 -7 -7 -9 -9 -7 -7 -8 -7 -6 -6 -6 -5 -5 -4 -4 -3 -2 -1 -0 -0 1 2 1 2 3 3 3 2 0 1 0
-8 -9 -10 -8 -7 -9 -9 -8 -9 -9 -8 -8 -8 -8 -7 -6 -6 -6 -6 -6 -6 -6 -5 -5 -3 -3 -2 -1 -0 1 1 0 0 -0 -1 -1 -1 -2
-9 -10 -9 -8 -9 -10 -9 -9 -9 -8 -9 -9 -8 -8 -7 -7 -7 -7 -7 -6 -6 -6 -6 -5 -5 -4 -3 -2 -2 -1 -1 -1 -1 -2 -2 -3 -3 -3
-10 -8 -9 -9 -11 -12 -10 -10 -10 -10 -10 -9 -9 -8 -8 -8 -7 -8 -7 -7 -6 -7 -7 -6 -5 -5 -4 -3 -3 -3 -3 -3 -3 -2 -3 -3 -3 -4
-8 -8 -10 -13 -14 -11 -12 -12 -12 -10 -10 -9 -9 -9 -9 -8 -7 -8 -7 -7 -7 -7 -7 -7 -6 -5 -4 -4 -4 -4 -4 -4 -4 -4 -4 -4 -4 -3
-9 -11 -13 -13 -12 -11 -11 -11 -12 -10 -10 -10 -10 -9 -9 -8 -8 -8 -8 -7 -8 -7 -7 -7 -7 -6 -6 -6 -7 -6 -5 -4 -4 -4 -4 -4 -4 -4
-12 -12 -11 -11 -12 -12 -12 -12 -11 -11 -10 -10 -10 -10 -9 -8 -8 -8 -8 -8 -8 -8 -8 -8 -8 -8 -7 -7 -6 -5 -4 -6 -5 -5 -4 -5 -5 -5
-14 -11 -12 -12 -12 -12 -12 -12 -11 -11 -11 -11 -10 -10 -9 -9 -8 -8 -8 -8 -8 -8 -8 -8 -11 -14 -22 -17 -9 -14 -20 -16 -8 -7 -7 -7 -10 -16
-13 -12 -12 -12 -12 -12 -12 -12 -11 -11 -11 -11 -10 -9 -9 -8 -8 -8 -8 -8 -8 -8 -12 -22 -25 -26 -23 -22 -19 -18 -19 -20 -17 -17 -18 -17 -17 -16
-13 -12 -12 -12 -12 -12 -12 -11 -11 -11 -11 -10 -9 -9 -9 -8 -8 -8 -8 -8 -8 -12 -20 -22 -21 -16 -15 -17 -17 -15 -14 -14 -14 -14 -13 -12 -12 -11
-13 -13 -12 -13 -13 -13 -11 -11 -12 -11 -10 -10 -9 -9 -8 -8 -8 -8 -8 -10 -14 -20 -25 -19 -14 -11 -9 -8 -9 -10 -11 -11 -10 -10 -8 -7 -7 -7
-13 -13 -13 -13 -14 -12 -11 -11 -11 -10 -10 -9 -9 -9 -8 -9 -9 -10 -15 -22 -24 -20 -14 -10 -7 -7 -7 -7 -7 -7 -7 -7 -7 -7 -7 -8 -8 -7

GFSNE_850_dewp_015.txt.gz
Dewpoint
-29 -29 -26 -21 -11 -3 -0 0 -2 1 -3 -5 -4 -3 0 0 -3 -7 -10 -9 -2 2 3 3 2 2 3 5 5 5 6 7 8 9 8 8 8 8
-25 -25 -20 -15 -10 -4 -3 -3 -1 -4 -4 -6 -6 -2 -1 -4 -7 -6 -5 -11 -14 -12 -9 -2 2 3 4 4 5 5 6 6 6 8 8 7 8 8
-22 -15 -8 -6 -12 -14 -12 -9 -9 -9 -8 -9 -5 -2 -2 -5 -6 -5 -10 -12 -10 -10 -12 -10 -5 0 3 4 5 5 6 6 7 7 8 8 8 8
-13 -7 -8 -11 -12 -11 -11 -9 -7 -6 -6 -4 -2 -4 -5 -4 -3 -4 -5 -4 -7 -12 -11 -5 -4 0 2 4 6 6 5 6 5 6 7 8 7 8
-10 -9 -12 -11 -10 -9 -7 -7 -6 -6 -6 -5 -4 -5 -5 -4 -5 -5 -4 -7 -6 -7 -3 -3 -3 -5 -3 2 3 4 4 4 4 5 6 6 6 5
-11 -11 -10 -9 -8 -7 -7 -6 -6 -6 -6 -6 -6 -6 -6 -6 -6 -6 -6 -5 -6 -5 -3 -1 -2 -5 -4 -2 1 2 2 2 4 4 6 6 7 6
-12 -10 -9 -8 -7 -7 -6 -7 -6 -7 -6 -6 -6 -6 -6 -7 -6 -6 -5 -5 -5 -2 -3 -6 -2 -2 -1 2 2 3 2 4 4 1 3 5 6 6
-9 -9 -8 -8 -7 -7 -7 -7 -6 -6 -7 -6 -6 -7 -7 -7 -6 -5 -4 -4 -4 -4 -4 -4 -2 -3 -3 -3 -3 -1 -0 0 -1 0 2 4 3 6
-8 -8 -9 -8 -7 -8 -8 -7 -7 -7 -8 -8 -7 -7 -7 -9 -6 -5 -4 -4 -5 -5 -4 -4 -4 -2 -2 -1 -1 0 2 2 2 2 2 3 4 5
-8 -8 -8 -7 -9 -8 -8 -7 -10 -13 -9 -8 -8 -8 -8 -7 -7 -6 -5 -6 -6 -6 -4 -4 -3 -3 -3 -0 0 0 -0 0 1 1 1 3 4 4
-9 -8 -7 -9 -9 -8 -7 -8 -10 -10 -10 -9 -8 -8 -7 -7 -6 -6 -6 -6 -6 -6 -5 -5 -6 -3 -2 -1 -1 -0 0 0 1 1 2 3 4 4
-8 -8 -9 -10 -8 -8 -8 -9 -10 -10 -9 -9 -10 -11 -10 -9 -7 -7 -7 -6 -6 -6 -6 -5 -6 -6 -4 -2 -2 -1 -1 -1 2 2 3 4 4 4
-8 -9 -10 -10 -7 -8 -10 -11 -10 -9 -10 -11 -11 -9 -9 -9 -8 -8 -7 -7 -7 -6 -7 -6 -6 -6 -6 -5 -4 -4 0 2 2 3 3 4 4 4
-9 -10 -9 -8 -9 -10 -11 -10 -10 -10 -12 -10 -10 -10 -9 -9 -9 -9 -8 -8 -7 -8 -7 -7 -8 -7 -7 -6 -5 -3 -0 1 2 0 -0 0 0 1
-10 -9 -9 -12 -12 -11 -11 -11 -10 -11 -11 -11 -10 -10 -10 -10 -9 -9 -9 -8 -8 -8 -7 -8 -8 -7 -7 -7 -5 -4 -2 -1 -0 -1 -1 -1 -1 -1
-9 -11 -13 -13 -11 -11 -12 -12 -11 -11 -11 -11 -11 -11 -10 -10 -10 -9 -8 -8 -8 -8 -8 -8 -8 -7 -7 -7 -6 -4 -3 -3 -2 -2 -3 -3 -3 -3
-11 -12 -14 -11 -12 -13 -12 -12 -12 -11 -11 -11 -11 -11 -11 -10 -10 -9 -8 -8 -8 -8 -8 -8 -9 -9 -8 -7 -7 -6 -4 -4 -3 -3 -3 -3 -4 -4
-12 -12 -13 -12 -12 -12 -12 -12 -12 -11 -11 -12 -11 -11 -10 -10 -9 -9 -8 -8 -8 -9 -9 -9 -8 -8 -9 -9 -7 -6 -5 -4 -4 -4 -3 -4 -4 -4
-12 -13 -12 -12 -12 -12 -12 -12 -12 -12 -12 -12 -11 -11 -10 -10 -9 -8 -8 -8 -9 -9 -9 -8 -10 -18 -8 -9 -8 -6 -5 -5 -4 -4 -4 -4 -5 -5
-12 -12 -13 -13 -13 -13 -13 -12 -12 -12 -12 -12 -11 -10 -10 -9 -9 -8 -8 -9 -9 -9 -19 -21 -22 -21 -13 -10 -14 -15 -9 -5 -5 -5 -5 -5 -5 -5
-13 -13 -13 -13 -13 -13 -12 -12 -12 -12 -12 -11 -10 -10 -10 -9 -9 -8 -8 -8 -10 -16 -20 -17 -15 -17 -18 -19 -18 -15 -11 -7 -7 -9 -8 -9 -9 -12
-13 -13 -13 -13 -13 -13 -12 -12 -13 -12 -11 -11 -10 -9 -9 -9 -10 -11 -15 -17 -20 -21 -17 -13 -11 -10 -14 -16 -14 -13 -13 -14 -15 -15 -15 -15 -14 -13
-13 -13 -13 -14 -14 -12 -12 -12 -12 -11 -10 -10 -9 -9 -11 -13 -18 -21 -20 -12 -9 -9 -9 -7 -7 -7 -7 -8 -12 -13 -12 -12 -12 -10 -8 -7 -7 -7

GFSNE_850_dewp_018.txt.gz
Dewpoint
-13 -10 -10 -9 -7 -6 -5 -5 -4 -5 -4 -7 -7 -11 -12 -10 -11 -3 -2 -4 -5 -4 -6 -7 -11 -10 -10 -4 2 2 3 3 4 5 5 5 5 9
-12 -11 -10 -9 -7 -8 -9 -10 -8 -8 -8 -9 -8 -10 -8 -7 -4 -4 -5 -6 -5 -3 -3 -9 -4 -0 -11 -11 -8 1 1 4 5 5 5 5 4 4
-11 -11 -10 -8 -9 -10 -11 -11 -10 -9 -8 -7 -7 -8 -8 -7 -6 -7 -7 -6 -5 -5 -5 -1 -2 -11 -12 -5 -8 -3 1 3 4 5 5 6 6 6
-11 -10 -10 -10 -10 -10 -10 -10 -9 -8 -7 -5 -7 -7 -7 -7 -7 -6 -7 -7 -7 -7 -6 -5 -4 -3 -5 -12 -5 -2 -6 1 4 5 6 6 6 7
-11 -10 -10 -10 -10 -10 -9 -9 -8 -7 -7 -7 -7 -7 -7 -7 -7 -7 -6 -7 -8 -7 -6 -6 -5 -4 -3 -3 -5 -5 -3 -3 1 4 4 5 5 6
-10 -9 -9 -10 -9 -9 -8 -8 -7 -7 -8 -7 -6 -6 -7 -8 -8 -7 -8 -8 -7 -6 -5 -4 -4 -3 -2 -5 -3 -3 0 2 2 2 4 4 5 5
-9 -10 -10 -9 -8 -8 -7 -7 -7 -8 -7 -6 -6 -8 -9 -9 -8 -8 -6 -8 -8 -7 -6 -5 -4 -2 -3 -4 -6 -2 -2 -1 1 3 3 4 3 3
-10 -10 -10 -10 -10 -8 -8 -8 -8 -6 -7 -6 -7 -9 -9 -8 -8 -8 -8 -7 -6 -9 -5 -5 -6 -5 -6 -5 -5 -3 -3 -2 0 0 2 3 4 1
-10 -10 -10 -11 -9 -8 -9 -9 -8 -7 -7 -8 -8 -9 -8 -9 -8 -7 -7 -6 -6 -8 -6 -6 -7 -5 -6 -5 -6 -4 -3 -1 0 1 1 1 1 0
-10 -10 -10 -9 -8 -8 -9 -8 -7 -8 -10 -10 -10 -9 -8 -8 -8 -7 -7 -8 -8 -7 -6 -5 -5 -7 -6 -6 -3 -2 -2 -3 0 0 1 1 1 1
-10 -10 -9 -9 -9 -9 -8 -7 -8 -9 -12 -10 -9 -8 -9 -9 -8 -8 -8 -7 -6 -7 -6 -6 -6 -5 -4 -5 -8 -7 -5 -3 -2 -1 0 0 0 1
-10 -9 -9 -9 -9 -8 -7 -10 -9 -11 -10 -9 -10 -10 -9 -9 -8 -9 -8 -8 -7 -7 -6 -7 -6 -8 -6 -6 -3 -3 -2 -1 -2 -2 -0 1 1 1
-9 -9 -10 -9 -8 -10 -11 -10 -10 -10 -10 -10 -11 -10 -10 -10 -10 -9 -9 -9 -9 -8 -9 -7 -6 -8 -6 -6 -7 -6 -6 -4 0 2 2 2 2 3
-9 -9 -9 -8 -11 -11 -11 -10 -11 -11 -11 -11 -11 -10 -10 -10 -10 -10 -10 -9 -9 -8 -8 -8 -7 -7 -7 -7 -7 -7 -5 -3 -1 2 3 3 3 3
-10 -9 -9 -11 -12 -12 -11 -11 -11 -12 -11 -11 -10 -10 -11 -11 -10 -10 -10 -10 -9 -8 -8 -8 -8 -8 -8 -8 -8 -7 -5 -3 -2 1 1 1 1 1
-9 -9 -12 -12 -12 -12 -12 -12 -12 -11 -11 -11 -11 -11 -11 -11 -10 -10 -10 -9 -8 -8 -8 -8 -8 -9 -9 -8 -7 -6 -5 -4 -3 -0 -1 -1 -1 -1
-9 -12 -13 -13 -12 -12 -12 -12 -12 -11 -11 -11 -11 -12 -11 -11 -10 -10 -9 -8 -8 -8 -8 -9 -9 -9 -9 -8 -7 -6 -6 -4 -3 -2 -1 -2 -2 -1
-12 -12 -12 -12 -12 -12 -12 -12 -12 -12 -12 -12 -12 -11 -11 -11 -10 -9 -8 -8 -9 -9 -9 -9 -9 -9 -9 -9 -8 -7 -6 -4 -4 -3 -3 -3 -3 -3
-12 -12 -12 -12 -12 -12 -12 -12 -12 -12 -12 -12 -12 -11 -11 -10 -9 -8 -9 -9 -9 -9 -10 -10 -16 -9 -8 -8 -9 -7 -6 -5 -4 -4 -4 -4 -4 -4
-13 -12 -12 -13 -13 -13 -12 -12 -13 -13 -12 -12 -11 -11 -10 -10 -9 -9 -9 -9 -9 -13 -16 -13 -17 -9 -8 -9 -10 -8 -6 -5 -4 -4 -4 -5 -5 -5
-13 -13 -13 -13 -13 -13 -13 -13 -13 -13 -12 -12 -11 -10 -9 -9 -11 -14 -17 -14 -16 -19 -14 -11 -14 -14 -11 -9 -8 -7 -6 -5 -4 -5 -5 -5 -5 -5
-13 -13 -13 -13 -13 -13 -13 -13 -13 -11 -11 -10 -10 -10 -10 -10 -13 -18 -13 -9 -9 -11 -11 -8 -9 -15 -14 -13 -10 -8 -8 -7 -6 -5 -5 -6 -6 -7
-13 -13 -13 -13 -12 -13 -13 -13 -12 -10 -10 -9 -10 -11 -11 -12 -12 -10 -9 -8 -8 -8 -8 -8 -8 -14 -13 -13 -13 -13 -14 -15 -15 -15 -15 -15 -14 -16

GFSNE_850_dewp_021.txt.gz
Dewpoint
-14 -13 -12 -11 -10 -10 -7 -7 -8 -8 -9 -10 -10 -10 -8 -9 -8 -7 -9 -5 -4 -4 -4 -5 -4 -2 -3 -2 -1 1 1 0 1 4 4 3 2 3
-13 -12 -11 -11 -10 -10 -8 -9 -10 -10 -9 -9 -9 -8 -8 -6 -8 -7 -7 -7 -8 -7 -6 -5 -5 -5 -4 -4 -1 -0 -0 0 2 1 2 4 4 4
-13 -12 -11 -11 -10 -10 -10 -10 -10 -9 -9 -8 -8 -7 -7 -8 -8 -7 -7 -6 -7 -8 -7 -6 -6 -6 -7 -5 -4 -3 -2 -2 -1 2 2 3 5 5
-12 -11 -11 -10 -10 -9 -10 -10 -9 -9 -9 -7 -7 -7 -8 -7 -7 -6 -8 -8 -8 -9 -7 -7 -8 -7 -5 -5 -5 -4 -3 -2 -0 -0 0 -5 0 5
-11 -11 -10 -10 -9 -10 -10 -9 -9 -8 -7 -7 -7 -8 -8 -6 -7 -8 -11 -11 -9 -8 -8 -7 -7 -6 -4 -4 -4 -4 -4 -1 -3 -1 -0 1 -2 4
-10 -10 -10 -10 -10 -10 -9 -8 -7 -6 -8 -7 -8 -7 -6 -7 -7 -9 -10 -9 -8 -9 -9 -9 -7 -6 -6 -5 -3 -2 -2 -3 -5 -1 -0 1 2 2
-9 -10 -10 -10 -10 -9 -9 -8 -7 -7 -7 -7 -6 -6 -7 -8 -9 -9 -10 -9 -8 -8 -8 -7 -6 -6 -7 -5 -5 -6 -7 -4 -3 -3 -1 -0 2 3
-9 -10 -10 -11 -11 -10 -9 -9 -7 -7 -8 -7 -6 -6 -8 -9 -10 -9 -8 -7 -8 -8 -7 -7 -7 -7 -6 -6 -5 -4 -4 -3 -3 -1 -1 -2 -1 2
-10 -10 -11 -11 -10 -10 -9 -8 -8 -9 -7 -8 -7 -8 -10 -10 -9 -8 -7 -7 -8 -9 -7 -7 -7 -6 -6 -5 -5 -5 -3 -3 -3 -3 -2 -1 -1 0
-10 -10 -10 -10 -10 -8 -8 -7 -9 -9 -10 -10 -10 -9 -9 -8 -8 -8 -8 -8 -8 -8 -7 -7 -6 -8 -6 -7 -7 -9 -7 -5 -4 -4 -1 -2 -1 0
-10 -10 -9 -8 -9 -8 -8 -8 -9 -10 -11 -10 -9 -10 -10 -10 -9 -9 -9 -8 -8 -8 -8 -8 -8 -6 -7 -9 -9 -9 -4 -3 -3 -3 -2 -1 -1 -0
-9 -9 -9 -9 -9 -8 -8 -9 -9 -11 -9 -10 -10 -11 -11 -11 -9 -10 -9 -9 -9 -8 -10 -9 -8 -8 -7 -7 -6 -5 -7 -6 -5 -4 -3 -3 -2 -1
-9 -9 -9 -10 -8 -9 -11 -10 -11 -9 -10 -11 -12 -11 -10 -10 -10 -10 -10 -10 -10 -9 -10 -9 -9 -8 -7 -7 -7 -7 -7 -6 -5 -3 -0 -2 -2 -1
-9 -9 -10 -8 -10 -11 -11 -12 -10 -11 -12 -11 -10 -10 -10 -10 -11 -11 -11 -10 -10 -9 -9 -9 -8 -8 -8 -7 -7 -8 -8 -6 -4 -2 1 2 2 2
-9 -10 -9 -11 -12 -12 -12 -11 -11 -12 -11 -11 -10 -11 -11 -11 -11 -11 -10 -10 -10 -10 -8 -8 -7 -7 -7 -8 -9 -8 -7 -6 -4 -2 1 2 2 2
-9 -9 -12 -12 -12 -12 -12 -12 -12 -11 -11 -11 -11 -12 -12 -11 -11 -10 -10 -9 -9 -9 -7 -8 -8 -9 -9 -9 -8 -8 -7 -5 -4 -2 -0 0 0 1
-10 -11 -12 -13 -12 -12 -12 -12 -12 -11 -12 -12 -12 -12 -11 -11 -10 -10 -9 -8 -8 -9 -9 -9 -9 -9 -9 -9 -8 -7 -6 -5 -4 -3 -1 -2 -2 -2
-11 -12 -12 -12 -12 -12 -12 -12 -12 -12 -12 -12 -12 -12 -11 -11 -10 -10 -9 -8 -9 -9 -10 -10 -10 -9 -9 -8 -8 -7 -6 -5 -4 -3 -2 -2 -2 -2
-12 -12 -12 -12 -12 -12 -12 -12 -12 -12 -12 -12 -12 -12 -11 -10 -10 -10 -11 -10 -9 -10 -11 -11 -10 -9 -8 -9 -8 -7 -6 -5 -4 -3 -3 -3 -3 -3
-12 -12 -12 -12 -13 -12 -12 -12 -13 -13 -12 -12 -11 -10 -10 -10 -9 -10 -11 -10 -10 -13 -11 -11 -9 -9 -9 -10 -9 -8 -6 -4 -4 -4 -4 -4 -4 -3
-13 -13 -13 -13 -13 -12 -12 -13 -13 -12 -12 -11 -10 -11 -10 -10 -10 -10 -10 -9 -9 -9 -9 -9 -13 -9 -8 -8 -8 -7 -7 -5 -4 -5 -5 -5 -5 -4
-13 -13 -13 -13 -13 -12 -13 -13 -12 -11 -10 -10 -10 -11 -10 -10 -10 -10 -10 -9 -9 -9 -9 -9 -12 -11 -8 -8 -8 -8 -7 -6 -5 -5 -5 -6 -6 -6
-13 -13 -13 -13 -12 -12 -12 -12 -11 -10 -10 -10 -10 -10 -10 -9 -9 -9 -9 -8 -8 -8 -8 -9 -11 -12 -10 -9 -9 -8 -8 -7 -6 -5 -5 -5 -5 -5

GFSNE_850_dewp_027.txt.gz
Dewpoint
-20 -19 -19 -21 -22 -17 -12 -12 -10 -8 -9 -9 -9 -9 -9 -9 -9 -8 -8 -10 -9 -8 -7 -7 -7 -5 -5 -7 -7 -7 -5 -5 -4 -4 -3 -3 -4 -3
-21 -19 -18 -21 -21 -18 -11 -10 -10 -9 -8 -9 -9 -9 -10 -9 -8 -8 -10 -9 -9 -8 -8 -7 -7 -4 -7 -7 -7 -8 -6 -5 -5 -5 -5 -6 -4 -1
-18 -17 -17 -19 -17 -14 -12 -10 -9 -9 -9 -10 -10 -10 -9 -10 -9 -9 -7 -8 -8 -8 -7 -6 -6 -7 -7 -8 -9 -5 -5 -6 -6 -5 -3 -2 -1 -1
-15 -14 -15 -17 -13 -11 -9 -9 -9 -10 -9 -9 -9 -8 -9 -10 -8 -8 -7 -8 -8 -7 -7 -8 -8 -9 -9 -9 -8 -7 -7 -7 -6 -7 -6 -6 -5 -2
-12 -12 -13 -13 -11 -9 -9 -9 -9 -8 -7 -7 -7 -9 -8 -7 -8 -7 -8 -10 -9 -10 -11 -11 -11 -10 -9 -8 -6 -6 -7 -7 -6 -6 -5 -5 -4 -2
-11 -11 -12 -12 -9 -8 -9 -9 -7 -8 -8 -8 -8 -7 -8 -7 -9 -10 -11 -11 -10 -9 -10 -10 -9 -9 -8 -9 -9 -8 -7 -7 -7 -7 -7 -5 -3 -3
-11 -11 -11 -10 -9 -9 -9 -9 -9 -8 -7 -7 -7 -7 -8 -10 -11 -11 -10 -10 -9 -9 -9 -9 -8 -9 -10 -10 -9 -8 -7 -6 -5 -5 -5 -4 -4 -3
-10 -10 -10 -9 -9 -9 -9 -9 -8 -7 -8 -7 -7 -8 -10 -10 -10 -10 -9 -8 -9 -10 -9 -9 -9 -10 -10 -10 -9 -8 -7 -6 -7 -6 -6 -4 -4 -3
-10 -10 -9 -9 -9 -9 -10 -9 -9 -8 -8 -8 -9 -9 -9 -10 -9 -8 -9 -9 -9 -9 -10 -10 -10 -9 -9 -10 -9 -8 -8 -8 -6 -5 -6 -5 -5 -5
-10 -9 -9 -9 -9 -9 -8 -8 -8 -9 -10 -9 -10 -10 -9 -9 -9 -10 -10 -10 -10 -10 -10 -10 -10 -10 -11 -11 -9 -8 -8 -8 -8 -7 -6 -6 -5 -4
-10 -10 -9 -9 -10 -9 -9 -8 -9 -10 -13 -11 -9 -9 -11 -11 -10 -10 -10 -10 -10 -10 -13 -10 -11 -11 -10 -11 -12 -12 -8 -7 -7 -6 -6 -6 -5 -5
-10 -11 -10 -10 -10 -9 -8 -9 -10 -13 -10 -10 -11 -14 -14 -13 -10 -11 -11 -11 -11 -11 -13 -11 -11 -10 -10 -11 -11 -10 -9 -10 -8 -7 -6 -6 -6 -5
-10 -10 -11 -10 -9 -10 -10 -11 -11 -10 -10 -13 -14 -13 -12 -11 -12 -11 -11 -11 -11 -11 -11 -10 -10 -10 -10 -9 -10 -10 -9 -9 -8 -8 -7 -7 -7 -5
-9 -11 -10 -9 -11 -11 -11 -11 -11 -10 -13 -12 -11 -11 -11 -12 -12 -11 -10 -10 -10 -10 -9 -9 -9 -10 -10 -9 -9 -10 -10 -8 -7 -6 -5 -5 -5 -5
-10 -10 -10 -11 -12 -13 -12 -11 -11 -13 -12 -12 -11 -12 -12 -11 -11 -11 -11 -10 -10 -10 -9 -9 -9 -10 -10 -10 -9 -10 -9 -8 -6 -5 -5 -4 -4 -3
-10 -11 -12 -13 -12 -13 -13 -13 -12 -12 -12 -12 -12 -12 -11 -11 -11 -11 -10 -10 -10 -11 -9 -9 -10 -10 -10 -9 -9 -10 -8 -7 -5 -4 -4 -3 -2 0
-11 -12 -14 -13 -13 -13 -13 -13 -12 -12 -12 -12 -12 -11 -11 -11 -11 -11 -10 -10 -10 -10 -9 -10 -9 -9 -9 -9 -9 -8 -7 -5 -4 -3 -3 -2 -1 1
-12 -13 -13 -13 -13 -12 -12 -13 -13 -12 -12 -12 -11 -11 -11 -11 -11 -10 -10 -10 -10 -9 -9 -9 -9 -9 -9 -8 -8 -7 -5 -4 -4 -3 -3 -3 -2 -1
-13 -13 -13 -13 -13 -12 -13 -13 -13 -12 -12 -11 -11 -11 -10 -10 -10 -10 -10 -9 -9 -9 -9 -9 -9 -9 -9 -9 -7 -6 -4 -4 -4 -3 -4 -3 -3 -3
-13 -13 -13 -13 -13 -13 -13 -13 -13 -12 -12 -11 -10 -10 -10 -10 -10 -10 -9 -9 -9 -9 -10 -9 -9 -8 -8 -8 -7 -6 -4 -4 -4 -4 -4 -4 -4 -3
-14 -14 -13 -13 -13 -12 -13 -12 -12 -12 -11 -10 -10 -9 -9 -9 -10 -9 -9 -9 -8 -9 -10 -9 -8 -8 -7 -6 -6 -5 -5 -4 -4 -4 -4 -4 -4 -3
-14 -13 -13 -12 -12 -12 -12 -12 -12 -11 -10 -10 -9 -9 -9 -9 -9 -9 -8 -8 -8 -9 -9 -8 -7 -7 -6 -6 -6 -5 -5 -4 -4 -4 -4 -4 -4 -4
-13 -13 -13 -12 -11 -11 -11 -11 -11 -10 -9 -9 -8 -8 -8 -9 -8 -8 -8 -8 -8 -9 -9 -9 -7 -7 -7 -6 -6 -5 -5 -5 -5 -5 -4 -4 -4 -4

GFSNE_850_dewp_030.txt.gz
Dewpoint
-23 -21 -20 -19 -19 -20 -22 -17 -9 -8 -10 -9 -9 -9 -10 -10 -10 -10 -9 -9 -8 -7 -8 -8 -8 -7 -7 -6 -6 -4 -3 -5 -4 -6 -6 -5 -5 -4
-20 -18 -18 -17 -17 -20 -17 -13 -10 -9 -8 -10 -10 -9 -9 -9 -9 -9 -8 -7 -9 -9 -8 -8 -7 -7 -5 -5 -5 -4 -4 -5 -7 -8 -5 -3 -3 -3
-17 -16 -14 -13 -15 -16 -15 -12 -10 -9 -8 -9 -10 -9 -8 -9 -9 -8 -7 -8 -8 -8 -8 -9 -9 -8 -7 -7 -6 -6 -8 -8 -8 -6 -4 -3 -4 -3
-15 -12 -12 -13 -13 -14 -13 -10 -9 -9 -8 -7 -9 -9 -9 -10 -8 -8 -7 -8 -8 -10 -10 -10 -9 -8 -9 -9 -9 -8 -8 -8 -8 -7 -6 -5 -6 -6
-12 -11 -12 -11 -12 -12 -10 -9 -9 -8 -8 -9 -9 -10 -9 -9 -9 -7 -8 -11 -11 -12 -11 -11 -10 -9 -9 -9 -8 -7 -7 -6 -6 -6 -6 -6 -6 -5
-12 -11 -11 -10 -11 -9 -9 -8 -8 -8 -8 -8 -8 -7 -8 -8 -8 -10 -11 -11 -12 -12 -10 -9 -9 -10 -9 -9 -8 -8 -8 -8 -8 -8 -8 -7 -7 -7
-11 -10 -10 -10 -9 -9 -9 -8 -9 -8 -8 -8 -8 -8 -8 -10 -10 -10 -11 -10 -10 -9 -9 -11 -10 -10 -10 -10 -10 -10 -9 -9 -8 -7 -7 -6 -5 -5
-10 -10 -11 -11 -9 -9 -9 -9 -9 -8 -9 -8 -7 -9 -10 -10 -10 -10 -9 -9 -10 -11 -11 -10 -10 -10 -11 -12 -10 -9 -8 -8 -7 -7 -6 -6 -6 -6
-10 -11 -11 -10 -10 -11 -10 -9 -10 -8 -8 -9 -10 -10 -10 -10 -9 -9 -10 -10 -10 -11 -10 -10 -11 -10 -11 -11 -10 -9 -8 -8 -8 -8 -7 -6 -6 -5
-12 -11 -9 -10 -10 -10 -9 -9 -9 -12 -12 -11 -11 -10 -9 -10 -10 -10 -10 -10 -10 -11 -11 -11 -12 -11 -12 -12 -12 -11 -9 -8 -8 -7 -7 -7 -6 -6
-12 -9 -9 -10 -10 -9 -8 -9 -10 -11 -14 -11 -10 -10 -11 -11 -10 -10 -11 -11 -11 -12 -13 -11 -12 -11 -11 -12 -13 -13 -12 -9 -8 -7 -7 -6 -6 -6
-9 -10 -10 -10 -9 -9 -10 -10 -11 -13 -10 -10 -12 -14 -14 -13 -11 -11 -11 -11 -11 -11 -12 -11 -11 -10 -10 -11 -11 -11 -11 -11 -9 -8 -7 -7 -7 -6
-10 -10 -11 -10 -9 -11 -11 -11 -11 -10 -11 -13 -14 -13 -12 -12 -11 -11 -11 -11 -11 -11 -12 -10 -10 -10 -10 -10 -10 -10 -10 -10 -10 -10 -8 -8 -7 -6
-9 -11 -10 -10 -11 -11 -11 -11 -10 -10 -13 -13 -12 -11 -11 -11 -11 -11 -11 -11 -10 -10 -10 -10 -10 -10 -9 -9 -9 -11 -11 -10 -8 -8 -7 -6 -6 -6
-11 -10 -10 -11 -13 -15 -13 -11 -11 -13 -12 -12 -12 -12 -11 -11 -11 -11 -11 -10 -10 -10 -9 -9 -9 -10 -10 -10 -10 -10 -9 -8 -7 -6 -7 -6 -6 -6
-10 -11 -13 -14 -16 -14 -13 -13 -13 -12 -12 -12 -12 -11 -11 -11 -11 -10 -10 -10 -10 -10 -10 -9 -9 -9 -9 -9 -8 -8 -7 -8 -5 -4 -4 -4 -4 -4
-11 -13 -15 -15 -15 -13 -13 -13 -13 -12 -12 -12 -11 -11 -11 -11 -10 -10 -10 -10 -10 -9 -9 -10 -9 -8 -8 -8 -8 -7 -6 -5 -4 -4 -3 -3 -2 -1
-12 -14 -14 -14 -13 -13 -12 -12 -12 -12 -12 -12 -11 -11 -11 -10 -10 -10 -10 -10 -9 -9 -9 -9 -9 -8 -7 -7 -6 -6 -5 -4 -4 -4 -4 -4 -0 -0
-14 -14 -13 -13 -13 -12 -12 -12 -12 -12 -11 -11 -11 -10 -10 -10 -10 -10 -10 -9 -9 -9 -9 -8 -8 -8 -8 -8 -6 -5 -4 -4 -4 -4 -4 -4 -4 -1
-14 -13 -14 -13 -12 -12 -12 -12 -12 -11 -11 -11 -10 -9 -9 -9 -9 -9 -9 -9 -9 -9 -9 -8 -8 -7 -7 -7 -7 -5 -4 -4 -4 -4 -4 -4 -4 -2
-14 -14 -14 -13 -12 -11 -11 -11 -11 -11 -11 -10 -9 -9 -9 -9 -9 -9 -8 -8 -8 -9 -9 -8 -7 -6 -6 -6 -6 -5 -4 -4 -4 -4 -4 -4 -4 -4
-13 -14 -13 -12 -11 -11 -11 -11 -10 -10 -9 -9 -9 -8 -8 -8 -8 -8 -8 -8 -8 -8 -10 -7 -7 -6 -5 -6 -6 -5 -4 -4 -4 -4 -4 -4 -4 -5
-13 -14 -12 -11 -11 -11 -10 -10 -10 -9 -9 -8 -8 -8 -8 -8 -8 -8 -8 -7 -7 -8 -11 -7 -7 -6 -6 -6 -6 -6 -5 -5 -4 -4 -4 -4 -3 -3

GFSNE_850_dewp_033.txt.gz
Dewpoint
-23 -21 -19 -18 -16 -16 -16 -16 -12 -9 -11 -11 -10 -11 -10 -9 -9 -9 -9 -9 -8 -8 -8 -7 -8 -7 -6 -6 -6 -5 -4 -4 -3 -3 -3 -2 -2 -3
-22 -20 -18 -15 -14 -15 -14 -15 -14 -11 -8 -12 -11 -10 -9 -9 -9 -9 -10 -8 -9 -8 -8 -8 -7 -7 -8 -7 -8 -8 -7 -4 -4 -3 -3 -3 -3 -4
-23 -17 -15 -13 -13 -12 -12 -13 -11 -10 -9 -10 -12 -11 -12 -11 -11 -9 -9 -8 -8 -8 -7 -8 -9 -9 -9 -8 -7 -6 -7 -6 -6 -5 -4 -4 -5 -4
-18 -15 -13 -12 -11 -11 -11 -10 -10 -10 -8 -8 -10 -12 -12 -12 -11 -8 -8 -8 -8 -9 -11 -11 -10 -10 -9 -9 -7 -7 -7 -7 -7 -7 -7 -7 -6 -4
-15 -13 -12 -10 -10 -10 -10 -10 -9 -8 -8 -8 -9 -9 -9 -8 -9 -8 -10 -11 -12 -12 -11 -10 -10 -9 -9 -8 -8 -7 -7 -7 -6 -6 -6 -5 -5 -5
-14 -12 -11 -11 -11 -9 -9 -9 -8 -9 -9 -9 -8 -8 -8 -8 -10 -11 -12 -12 -12 -11 -10 -10 -9 -9 -9 -9 -9 -9 -9 -8 -8 -8 -7 -7 -7 -7
-12 -13 -13 -13 -10 -9 -9 -10 -9 -9 -8 -8 -8 -8 -9 -11 -12 -11 -10 -10 -10 -10 -10 -10 -10 -10 -11 -10 -10 -10 -9 -9 -8 -8 -8 -7 -7 -7
-15 -15 -14 -13 -11 -10 -10 -9 -9 -9 -8 -8 -10 -10 -11 -11 -11 -10 -9 -10 -10 -11 -10 -12 -11 -10 -12 -12 -11 -9 -9 -8 -8 -8 -7 -7 -6 -6
-14 -13 -12 -10 -11 -11 -10 -9 -8 -9 -9 -10 -11 -11 -10 -10 -9 -10 -10 -10 -10 -10 -10 -11 -12 -12 -13 -13 -11 -10 -9 -8 -8 -8 -8 -7 -7 -7
-12 -11 -9 -11 -10 -10 -9 -8 -11 -12 -13 -12 -10 -10 -9 -10 -10 -10 -10 -10 -10 -11 -11 -11 -12 -12 -12 -12 -12 -13 -10 -9 -8 -8 -8 -7 -7 -7
-11 -9 -9 -10 -10 -9 -9 -9 -10 -12 -14 -10 -10 -10 -11 -11 -10 -10 -11 -11 -11 -11 -12 -11 -12 -11 -11 -12 -13 -12 -11 -9 -8 -8 -7 -7 -7 -6
-8 -10 -10 -10 -10 -9 -10 -10 -11 -13 -10 -10 -13 -13 -13 -12 -11 -11 -11 -11 -11 -11 -12 -11 -11 -11 -10 -11 -11 -11 -10 -11 -9 -9 -8 -7 -7 -7
-11 -11 -12 -10 -9 -10 -10 -11 -11 -10 -11 -12 -13 -13 -12 -12 -11 -11 -10 -11 -11 -11 -11 -11 -11 -11 -10 -10 -10 -10 -10 -9 -9 -8 -9 -9 -8 -7
-10 -11 -11 -10 -11 -11 -12 -11 -10 -11 -13 -12 -12 -12 -12 -11 -11 -11 -10 -10 -10 -10 -9 -9 -10 -10 -10 -10 -10 -10 -9 -8 -7 -7 -6 -6 -6 -7
-10 -10 -10 -11 -13 -16 -14 -11 -11 -12 -12 -12 -12 -12 -11 -11 -11 -10 -10 -10 -10 -10 -9 -9 -9 -9 -9 -10 -9 -9 -7 -8 -7 -6 -6 -6 -6 -7
-10 -11 -13 -15 -16 -14 -13 -13 -13 -12 -12 -12 -11 -11 -11 -11 -10 -10 -10 -10 -10 -10 -10 -9 -9 -8 -8 -7 -7 -7 -7 -8 -5 -5 -4 -4 -5 -5
-11 -13 -15 -15 -15 -13 -13 -12 -12 -12 -12 -11 -11 -11 -10 -10 -10 -10 -9 -9 -10 -9 -9 -9 -8 -7 -6 -6 -6 -6 -6 -5 -4 -4 -4 -4 -3 -3
-12 -14 -14 -15 -13 -12 -12 -12 -12 -11 -11 -11 -11 -10 -10 -10 -9 -9 -9 -9 -9 -9 -9 -8 -8 -8 -8 -7 -6 -6 -6 -5 -4 -4 -4 -4 -3 -2
-14 -14 -14 -14 -13 -12 -12 -12 -11 -11 -10 -10 -10 -10 -10 -9 -9 -9 -9 -9 -9 -8 -8 -8 -7 -7 -7 -7 -6 -5 -6 -5 -4 -4 -4 -3 -2 -1
-14 -14 -14 -13 -12 -11 -11 -11 -11 -10 -10 -10 -10 -9 -9 -9 -9 -9 -8 -8 -9 -8 -8 -7 -7 -7 -7 -7 -7 -5 -5 -5 -5 -4 -5 -4 -2 -0
-14 -14 -14 -12 -11 -11 -11 -11 -10 -10 -10 -9 -9 -8 -8 -8 -9 -9 -8 -8 -8 -8 -8 -7 -7 -6 -5 -5 -6 -5 -5 -5 -5 -5 -4 -4 -4 -1
-14 -14 -13 -11 -11 -11 -10 -10 -10 -9 -8 -8 -8 -8 -8 -8 -8 -8 -8 -8 -8 -8 -9 -7 -6 -6 -5 -5 -5 -5 -5 -5 -5 -5 -5 -5 -5 -5
-14 -14 -12 -11 -10 -10 -10 -10 -9 -8 -8 -8 -8 -8 -8 -8 -8 -8 -8 -7 -7 -8 -11 -8 -6 -6 -6 -5 -5 -5 -5 -5 -5 -5 -5 -5 -4 -5

GFSNE_850_dewp_036.txt.gz
Dewpoint
-23 -23 -22 -19 -16 -15 -14 -13 -11 -11 -12 -12 -12 -13 -12 -10 -10 -9 -10 -11 -8 -8 -8 -8 -8 -7 -7 -7 -6 -5 -5 -5 -4 -4 -4 -3 -2 -3
-24 -23 -21 -18 -15 -14 -13 -11 -10 -11 -9 -13 -12 -11 -11 -10 -12 -10 -11 -9 -9 -8 -8 -8 -7 -8 -7 -6 -8 -8 -8 -6 -6 -5 -5 -4 -3 -2
-23 -21 -19 -17 -15 -13 -11 -10 -11 -10 -9 -12 -11 -13 -12 -12 -13 -11 -9 -8 -9 -8 -8 -8 -8 -8 -8 -8 -8 -7 -7 -6 -6 -5 -5 -4 -3 -3
-21 -19 -18 -15 -13 -12 -11 -11 -10 -10 -8 -9 -10 -11 -11 -13 -10 -8 -9 -12 -13 -12 -10 -10 -10 -9 -9 -9 -8 -8 -8 -8 -7 -7 -6 -6 -6 -4
-19 -17 -16 -14 -14 -14 -11 -10 -9 -9 -9 -9 -9 -10 -11 -9 -9 -11 -12 -13 -13 -12 -11 -10 -9 -9 -9 -8 -8 -7 -7 -7 -8 -7 -7 -6 -6 -5
-20 -18 -17 -15 -14 -10 -9 -9 -9 -10 -10 -9 -9 -9 -9 -11 -11 -13 -12 -12 -11 -10 -11 -10 -9 -9 -9 -9 -9 -9 -9 -9 -9 -8 -8 -7 -7 -6
-18 -16 -14 -13 -12 -9 -9 -9 -9 -9 -9 -8 -9 -9 -10 -11 -12 -12 -10 -10 -10 -10 -11 -12 -11 -11 -12 -12 -12 -10 -9 -9 -8 -8 -8 -8 -7 -7
-15 -13 -13 -12 -11 -10 -10 -9 -9 -8 -8 -9 -10 -10 -11 -11 -11 -10 -10 -10 -10 -10 -10 -11 -11 -11 -11 -12 -11 -10 -9 -8 -8 -8 -7 -7 -7 -7
-13 -13 -12 -11 -12 -11 -11 -9 -8 -9 -10 -10 -11 -11 -10 -10 -9 -10 -10 -10 -10 -10 -10 -11 -12 -12 -12 -12 -11 -10 -9 -9 -8 -8 -8 -7 -7 -7
-12 -11 -10 -11 -11 -10 -9 -8 -10 -12 -13 -12 -10 -10 -10 -10 -10 -10 -10 -10 -10 -11 -11 -11 -12 -12 -12 -12 -12 -11 -9 -9 -8 -8 -8 -8 -7 -7
-11 -9 -10 -10 -10 -9 -9 -9 -10 -13 -14 -11 -10 -10 -11 -12 -10 -10 -11 -11 -11 -11 -12 -11 -12 -11 -11 -12 -12 -12 -9 -9 -8 -8 -8 -7 -7 -7
-9 -10 -11 -10 -9 -9 -10 -10 -11 -13 -10 -10 -12 -13 -13 -12 -12 -11 -11 -12 -12 -12 -12 -11 -11 -11 -11 -11 -11 -11 -11 -9 -9 -8 -8 -8 -7 -7
-10 -11 -11 -10 -9 -10 -10 -11 -11 -10 -11 -12 -13 -13 -12 -12 -11 -11 -10 -11 -11 -11 -10 -11 -11 -10 -11 -10 -11 -10 -9 -8 -7 -7 -7 -8 -8 -7
-10 -10 -11 -10 -10 -11 -12 -11 -10 -11 -13 -13 -12 -12 -11 -11 -10 -10 -10 -9 -9 -10 -9 -9 -10 -10 -10 -10 -10 -9 -7 -7 -7 -6 -5 -6 -6 -6
-10 -10 -10 -11 -15 -16 -14 -11 -12 -12 -12 -12 -12 -11 -11 -10 -10 -10 -10 -9 -9 -9 -8 -8 -9 -8 -8 -9 -9 -7 -6 -7 -7 -6 -5 -5 -5 -5
-10 -11 -14 -15 -16 -15 -13 -13 -12 -12 -11 -11 -11 -11 -10 -10 -10 -9 -9 -9 -9 -10 -9 -8 -8 -7 -7 -6 -6 -6 -6 -7 -6 -5 -5 -5 -5 -5
-10 -14 -15 -15 -16 -13 -13 -12 -12 -11 -11 -11 -10 -10 -10 -10 -9 -9 -9 -9 -9 -9 -9 -8 -7 -7 -6 -5 -6 -6 -6 -6 -6 -5 -5 -4 -4 -3
-13 -15 -15 -15 -14 -12 -12 -12 -11 -11 -10 -10 -10 -10 -10 -10 -9 -9 -9 -8 -8 -9 -8 -7 -7 -7 -7 -7 -6 -6 -6 -6 -5 -4 -4 -3 -3 -4
-15 -14 -14 -14 -12 -12 -11 -11 -11 -10 -10 -10 -10 -9 -9 -9 -9 -9 -9 -8 -9 -9 -8 -7 -7 -7 -8 -7 -6 -5 -6 -5 -5 -4 -3 -2 -3 -3
-14 -14 -14 -14 -12 -11 -11 -11 -10 -10 -9 -9 -9 -9 -9 -9 -9 -9 -8 -8 -8 -8 -9 -8 -7 -7 -7 -6 -7 -5 -5 -5 -5 -5 -4 -2 -3 -3
-14 -14 -14 -12 -11 -11 -10 -10 -10 -9 -9 -9 -9 -9 -9 -9 -9 -8 -8 -8 -8 -8 -9 -8 -6 -6 -5 -6 -6 -5 -5 -5 -5 -6 -4 -3 -3 -2
-14 -14 -13 -11 -11 -10 -10 -10 -9 -8 -9 -9 -9 -8 -8 -8 -8 -8 -8 -8 -8 -8 -9 -8 -7 -6 -6 -5 -5 -5 -5 -5 -5 -5 -5 -5 -4 -4
-14 -14 -11 -11 -10 -10 -9 -9 -8 -8 -8 -8 -8 -8 -8 -8 -8 -8 -8 -7 -7 -8 -9 -9 -8 -7 -7 -5 -6 -5 -5 -5 -6 -5 -5 -5 -5 -4

GFSNE_850_dewp_039.txt.gz
Dewpoint
-23 -24 -23 -21 -20 -18 -16 -14 -10 -10 -11 -12 -12 -11 -10 -9 -9 -9 -9 -9 -8 -8 -7 -7 -7 -7 -6 -6 -5 -5 -5 -5 -4 -4 -4 -4 -4 -3
-23 -23 -22 -20 -20 -18 -16 -14 -12 -9 -9 -12 -11 -10 -9 -9 -9 -9 -9 -8 -9 -8 -8 -8 -8 -8 -7 -7 -7 -7 -6 -6 -6 -5 -6 -5 -5 -5
-23 -22 -22 -20 -19 -18 -17 -15 -14 -11 -9 -13 -10 -10 -9 -9 -9 -9 -8 -8 -9 -10 -9 -9 -8 -8 -8 -7 -7 -7 -6 -6 -6 -6 -6 -5 -4 -4
-24 -23 -21 -20 -20 -19 -18 -16 -12 -10 -9 -9 -10 -9 -10 -9 -8 -8 -9 -10 -10 -11 -10 -9 -8 -8 -8 -8 -8 -7 -7 -7 -7 -7 -6 -6 -6 -5
-23 -21 -19 -18 -18 -17 -14 -10 -9 -9 -9 -9 -10 -12 -8 -8 -9 -11 -11 -11 -11 -10 -10 -9 -9 -8 -8 -7 -7 -8 -7 -7 -7 -7 -7 -7 -6 -6
-22 -19 -18 -16 -15 -12 -9 -8 -8 -9 -9 -9 -9 -8 -9 -10 -12 -11 -11 -11 -10 -10 -11 -9 -9 -9 -9 -9 -8 -8 -8 -8 -8 -8 -8 -7 -7 -7
-21 -19 -17 -14 -12 -9 -9 -9 -9 -9 -9 -8 -8 -9 -10 -11 -11 -11 -10 -10 -10 -10 -11 -10 -10 -11 -11 -10 -10 -9 -9 -9 -8 -8 -8 -8 -7 -7
-19 -18 -15 -12 -11 -9 -9 -9 -9 -9 -8 -8 -10 -9 -11 -11 -11 -10 -9 -10 -10 -10 -10 -10 -10 -11 -11 -11 -11 -9 -9 -8 -8 -8 -8 -7 -7 -7
-19 -14 -11 -11 -11 -11 -10 -9 -8 -8 -9 -10 -10 -11 -10 -11 -9 -10 -10 -10 -10 -10 -10 -10 -11 -11 -11 -12 -11 -9 -9 -9 -8 -8 -7 -7 -7 -7
-15 -12 -11 -11 -10 -9 -9 -9 -9 -11 -10 -10 -10 -10 -10 -10 -10 -10 -10 -10 -10 -11 -10 -11 -11 -10 -11 -12 -12 -12 -11 -9 -8 -8 -8 -7 -7 -7
-12 -11 -10 -10 -9 -9 -9 -9 -10 -10 -13 -10 -10 -10 -11 -12 -11 -11 -10 -11 -11 -11 -12 -11 -10 -10 -11 -12 -12 -11 -10 -8 -8 -8 -8 -7 -7 -7
-9 -9 -10 -9 -9 -9 -9 -10 -10 -12 -10 -10 -12 -13 -12 -12 -11 -10 -10 -11 -12 -12 -11 -10 -11 -10 -10 -11 -10 -10 -9 -8 -7 -7 -8 -8 -8 -7
-10 -10 -10 -10 -9 -10 -10 -10 -11 -10 -10 -12 -12 -12 -12 -11 -11 -10 -10 -10 -11 -11 -10 -11 -11 -10 -11 -10 -9 -9 -8 -6 -6 -7 -6 -6 -7 -7
-10 -10 -10 -9 -10 -11 -12 -13 -10 -11 -12 -12 -11 -11 -11 -10 -10 -10 -10 -10 -9 -9 -8 -9 -10 -9 -9 -10 -9 -8 -6 -6 -7 -7 -7 -6 -6 -6
-10 -10 -10 -11 -15 -16 -15 -12 -12 -12 -11 -11 -11 -11 -10 -10 -10 -10 -10 -10 -10 -10 -8 -8 -8 -8 -8 -9 -9 -7 -6 -6 -7 -6 -6 -6 -6 -5
-11 -11 -14 -15 -16 -16 -13 -12 -12 -11 -11 -11 -10 -10 -10 -10 -10 -10 -9 -9 -9 -10 -9 -8 -8 -8 -8 -6 -6 -6 -6 -6 -6 -6 -5 -5 -5 -5
-10 -13 -15 -15 -16 -13 -12 -12 -11 -11 -10 -10 -10 -10 -10 -10 -10 -10 -9 -9 -9 -9 -9 -9 -7 -7 -8 -7 -6 -6 -6 -6 -6 -5 -4 -3 -4 -5
-13 -15 -15 -15 -14 -12 -11 -11 -11 -10 -10 -10 -10 -10 -10 -10 -10 -10 -9 -9 -9 -9 -9 -9 -7 -7 -8 -8 -6 -6 -6 -6 -6 -4 -3 -4 -4 -5
-16 -15 -15 -15 -13 -11 -11 -11 -10 -10 -9 -9 -9 -9 -10 -10 -10 -9 -9 -9 -9 -9 -8 -9 -7 -7 -7 -7 -7 -5 -6 -6 -6 -4 -3 -3 -4 -5
-16 -15 -15 -14 -11 -11 -11 -10 -10 -9 -9 -9 -10 -9 -9 -9 -9 -9 -9 -8 -9 -8 -8 -10 -8 -7 -7 -7 -7 -5 -5 -6 -6 -5 -4 -3 -3 -4
-15 -15 -15 -12 -11 -10 -10 -10 -9 -9 -9 -9 -9 -9 -8 -9 -9 -9 -9 -8 -8 -8 -8 -9 -8 -7 -7 -6 -6 -5 -5 -5 -5 -5 -5 -4 -4 -3
-15 -15 -12 -11 -10 -10 -10 -9 -9 -8 -8 -8 -8 -8 -8 -8 -9 -8 -8 -8 -8 -8 -8 -9 -9 -8 -7 -7 -6 -5 -5 -5 -5 -5 -5 -5 -5 -5
-15 -14 -11 -10 -10 -9 -9 -8 -8 -8 -8 -8 -8 -8 -8 -8 -8 -8 -8 -8 -8 -8 -8 -8 -8 -8 -8 -8 -7 -6 -6 -6 -5 -5 -5 -5 -5 -4

GFSNE_850_dewp_042.txt.gz
Dewpoint
-22 -22 -22 -21 -20 -16 -12 -11 -11 -11 -13 -13 -14 -13 -12 -11 -10 -10 -10 -9 -9 -8 -7 -7 -7 -7 -7 -6 -6 -6 -5 -5 -5 -4 -4 -4 -3 -3
-22 -21 -21 -20 -19 -14 -11 -10 -10 -11 -11 -13 -13 -12 -10 -10 -10 -10 -10 -9 -9 -8 -8 -8 -8 -7 -7 -6 -6 -6 -6 -6 -5 -5 -5 -4 -4 -4
-21 -22 -22 -20 -16 -13 -12 -11 -11 -11 -11 -11 -10 -10 -10 -10 -10 -9 -9 -9 -10 -11 -10 -9 -8 -8 -7 -7 -6 -6 -6 -6 -5 -5 -5 -5 -4 -4
-22 -22 -20 -16 -19 -14 -12 -11 -11 -10 -10 -9 -9 -9 -10 -10 -9 -9 -10 -12 -12 -11 -10 -9 -8 -8 -7 -7 -6 -6 -6 -6 -6 -6 -5 -5 -5 -5
-22 -22 -21 -19 -14 -12 -11 -10 -9 -9 -9 -8 -9 -10 -9 -8 -8 -10 -10 -11 -11 -10 -10 -9 -8 -8 -7 -7 -7 -7 -7 -7 -7 -6 -6 -6 -6 -6
-22 -22 -19 -15 -11 -10 -9 -9 -9 -9 -10 -9 -9 -9 -7 -8 -10 -11 -11 -11 -10 -10 -10 -9 -9 -8 -8 -8 -8 -8 -7 -7 -7 -7 -7 -7 -7 -7
-19 -16 -13 -12 -15 -10 -8 -9 -9 -9 -9 -9 -8 -7 -9 -10 -12 -11 -10 -10 -9 -9 -10 -10 -10 -10 -10 -9 -8 -8 -8 -7 -7 -7 -7 -7 -7 -7
-14 -12 -11 -10 -10 -9 -9 -9 -8 -8 -8 -7 -8 -9 -11 -12 -11 -10 -9 -9 -9 -10 -9 -10 -9 -10 -10 -10 -9 -8 -8 -7 -7 -7 -7 -7 -7 -7
-12 -11 -10 -10 -9 -9 -9 -9 -8 -8 -8 -9 -9 -11 -11 -10 -10 -10 -9 -10 -9 -10 -9 -10 -10 -9 -10 -10 -9 -8 -8 -8 -7 -7 -7 -7 -7 -7
-10 -10 -9 -9 -10 -9 -9 -9 -9 -9 -10 -10 -11 -10 -10 -10 -9 -10 -10 -10 -10 -10 -9 -9 -10 -10 -9 -10 -11 -11 -9 -7 -7 -7 -7 -7 -7 -6
-10 -10 -9 -10 -9 -9 -9 -9 -10 -11 -11 -11 -9 -9 -9 -9 -10 -10 -10 -10 -10 -10 -11 -9 -9 -9 -10 -11 -10 -9 -8 -7 -7 -6 -7 -7 -7 -7
-10 -10 -10 -9 -9 -9 -8 -10 -10 -11 -11 -10 -9 -11 -11 -10 -10 -10 -10 -10 -10 -11 -10 -10 -10 -10 -9 -10 -9 -9 -8 -8 -7 -6 -6 -7 -7 -7
-10 -11 -10 -10 -9 -9 -10 -10 -11 -10 -10 -10 -11 -10 -10 -10 -10 -10 -10 -10 -10 -10 -10 -10 -10 -10 -10 -9 -9 -8 -8 -7 -6 -6 -7 -6 -6 -6
-10 -10 -10 -9 -10 -10 -11 -11 -10 -10 -10 -11 -11 -10 -10 -10 -10 -10 -10 -10 -10 -9 -10 -9 -10 -9 -9 -10 -9 -7 -7 -7 -6 -6 -6 -6 -6 -6
-10 -10 -9 -10 -13 -16 -14 -12 -12 -11 -11 -11 -11 -10 -10 -10 -10 -10 -10 -10 -10 -10 -10 -9 -8 -8 -9 -9 -8 -7 -6 -6 -6 -5 -6 -5 -5 -5
-10 -10 -11 -13 -13 -14 -12 -12 -11 -11 -11 -11 -11 -10 -10 -10 -10 -10 -10 -10 -10 -10 -10 -9 -8 -8 -8 -7 -7 -7 -6 -6 -6 -6 -6 -4 -4 -4
-10 -11 -12 -13 -12 -12 -11 -11 -11 -11 -11 -11 -10 -10 -10 -10 -10 -10 -10 -10 -9 -9 -9 -9 -9 -7 -7 -7 -7 -7 -6 -6 -5 -6 -6 -5 -4 -5
-12 -12 -13 -12 -12 -12 -12 -11 -11 -10 -10 -10 -10 -10 -10 -10 -10 -10 -9 -9 -9 -9 -9 -9 -8 -8 -8 -8 -7 -6 -5 -6 -6 -6 -6 -5 -4 -5
-13 -12 -12 -12 -12 -12 -11 -11 -10 -10 -9 -9 -10 -9 -10 -10 -9 -9 -9 -9 -9 -9 -9 -8 -8 -8 -7 -7 -7 -7 -6 -6 -5 -6 -5 -5 -4 -4
-13 -13 -13 -13 -12 -11 -10 -10 -10 -9 -9 -9 -9 -9 -9 -9 -9 -9 -9 -9 -9 -9 -8 -8 -8 -7 -7 -7 -7 -7 -5 -6 -5 -5 -5 -5 -4 -4
-13 -13 -13 -12 -11 -10 -10 -10 -9 -9 -9 -9 -9 -9 -8 -9 -9 -9 -9 -8 -9 -8 -8 -8 -8 -8 -7 -8 -6 -6 -6 -6 -5 -5 -5 -5 -5 -5
-15 -15 -12 -11 -10 -10 -9 -9 -9 -8 -8 -8 -8 -8 -8 -8 -8 -8 -8 -8 -8 -8 -8 -8 -8 -8 -8 -8 -7 -6 -6 -7 -6 -5 -5 -5 -5 -5
-15 -13 -11 -10 -9 -9 -9 -9 -8 -8 -8 -8 -8 -8 -8 -8 -8 -8 -8 -8 -8 -8 -8 -8 -7 -8 -8 -8 -7 -6 -6 -6 -6 -6 -5 -4 -5 -5

GFSNE_850_dewp_045.txt.gz
Dewpoint
-18 -19 -18 -18 -17 -15 -14 -12 -10 -9 -10 -12 -13 -13 -13 -12 -11 -10 -10 -10 -9 -8 -7 -7 -7 -7 -7 -6 -6 -5 -5 -5 -4 -4 -4 -4 -3 -3
-17 -18 -18 -18 -17 -16 -14 -11 -11 -10 -10 -11 -11 -12 -11 -10 -10 -9 -10 -9 -9 -9 -8 -8 -8 -8 -7 -6 -6 -6 -5 -5 -5 -4 -4 -4 -3 -3
-17 -17 -18 -18 -16 -14 -13 -12 -12 -11 -11 -11 -10 -9 -9 -9 -9 -10 -9 -10 -9 -9 -10 -9 -8 -7 -7 -6 -6 -6 -6 -5 -5 -5 -4 -4 -4 -4
-17 -17 -17 -14 -14 -14 -13 -11 -11 -11 -9 -9 -9 -9 -9 -9 -9 -8 -8 -8 -11 -11 -10 -9 -8 -8 -7 -6 -6 -6 -6 -6 -5 -5 -5 -5 -4 -4
-16 -15 -15 -14 -13 -12 -11 -10 -10 -9 -9 -9 -9 -9 -9 -9 -8 -7 -10 -10 -11 -11 -10 -9 -8 -8 -7 -7 -7 -7 -7 -6 -6 -6 -6 -6 -5 -5
-14 -14 -13 -13 -12 -11 -11 -9 -9 -9 -9 -8 -10 -9 -8 -7 -8 -10 -11 -11 -10 -10 -10 -10 -8 -8 -8 -8 -7 -7 -7 -7 -6 -6 -6 -6 -6 -6
-16 -14 -12 -12 -12 -9 -8 -8 -8 -9 -9 -10 -8 -7 -7 -9 -10 -11 -10 -9 -11 -9 -9 -12 -9 -11 -11 -10 -10 -8 -7 -7 -6 -6 -6 -6 -6 -6
-15 -15 -13 -12 -11 -10 -8 -8 -9 -8 -8 -8 -8 -8 -8 -10 -10 -10 -10 -9 -8 -10 -9 -11 -11 -11 -10 -11 -9 -7 -7 -7 -7 -6 -6 -6 -6 -6
-15 -12 -11 -10 -10 -9 -9 -9 -9 -9 -8 -9 -8 -9 -10 -10 -11 -10 -8 -9 -9 -10 -9 -10 -11 -11 -11 -10 -9 -8 -8 -8 -7 -6 -6 -6 -6 -6
-12 -10 -10 -10 -10 -9 -9 -9 -10 -10 -9 -10 -10 -10 -11 -10 -8 -8 -9 -10 -11 -10 -9 -9 -10 -11 -9 -10 -11 -11 -10 -7 -6 -6 -6 -5 -6 -6
-11 -10 -10 -9 -10 -9 -8 -9 -9 -10 -11 -10 -10 -9 -8 -8 -9 -9 -11 -10 -10 -10 -10 -10 -10 -10 -10 -11 -11 -10 -9 -8 -7 -7 -6 -6 -5 -6
-11 -10 -10 -10 -9 -9 -8 -9 -10 -10 -11 -11 -10 -10 -10 -11 -9 -10 -10 -10 -10 -10 -10 -10 -10 -10 -10 -10 -10 -10 -9 -8 -7 -7 -6 -6 -6 -6
-10 -10 -10 -9 -9 -9 -9 -10 -10 -10 -10 -10 -11 -11 -11 -10 -10 -10 -10 -10 -11 -11 -10 -11 -11 -10 -11 -10 -10 -10 -8 -8 -7 -6 -7 -6 -6 -6
-9 -10 -10 -9 -9 -10 -10 -10 -10 -10 -11 -11 -11 -11 -11 -11 -10 -10 -10 -10 -10 -10 -10 -9 -10 -10 -10 -10 -10 -9 -8 -8 -6 -6 -6 -6 -6 -5
-10 -9 -9 -10 -10 -11 -12 -10 -10 -11 -11 -11 -11 -10 -10 -10 -10 -10 -10 -10 -10 -10 -10 -10 -9 -9 -9 -9 -9 -9 -7 -7 -6 -6 -6 -6 -5 -5
-10 -10 -10 -11 -12 -12 -12 -12 -11 -11 -11 -11 -10 -10 -10 -10 -10 -10 -10 -10 -10 -10 -10 -10 -9 -9 -9 -8 -8 -8 -7 -7 -6 -6 -6 -6 -6 -5
-10 -12 -13 -13 -13 -12 -12 -12 -11 -11 -10 -10 -10 -10 -10 -10 -10 -10 -10 -10 -10 -9 -9 -10 -9 -8 -8 -8 -7 -8 -6 -6 -6 -6 -6 -6 -6 -5
-12 -13 -13 -12 -12 -12 -11 -11 -10 -10 -10 -10 -9 -9 -9 -9 -9 -9 -9 -9 -10 -9 -10 -9 -9 -8 -9 -8 -7 -7 -7 -6 -6 -6 -6 -6 -6 -6
-13 -13 -13 -12 -12 -11 -11 -10 -10 -10 -9 -9 -9 -9 -9 -9 -9 -9 -9 -9 -9 -9 -9 -9 -8 -8 -8 -8 -9 -8 -7 -6 -6 -6 -6 -6 -5 -5
-13 -13 -13 -13 -12 -11 -10 -10 -10 -9 -9 -9 -9 -9 -8 -9 -9 -8 -8 -9 -9 -9 -9 -9 -9 -8 -8 -8 -7 -9 -9 -6 -6 -6 -6 -5 -5 -5
-13 -14 -14 -12 -11 -10 -10 -10 -9 -9 -9 -9 -9 -8 -8 -9 -8 -8 -8 -8 -9 -9 -9 -9 -8 -8 -8 -7 -7 -7 -7 -6 -6 -6 -6 -5 -5 -5
-14 -14 -11 -10 -10 -10 -9 -9 -9 -9 -8 -8 -8 -8 -8 -8 -8 -8 -8 -8 -8 -8 -8 -8 -8 -8 -7 -7 -7 -6 -6 -6 -7 -6 -5 -5 -5 -5
-14 -11 -10 -10 -9 -9 -9 -9 -9 -8 -8 -8 -8 -8 -8 -8 -8 -8 -8 -8 -8 -8 -8 -8 -8 -8 -7 -7 -6 -6 -6 -6 -6 -6 -6 -5 -5 -5

GFSNE_850_dewp_048.txt.gz
Dewpoint
-16 -16 -16 -17 -17 -17 -16 -15 -12 -9 -10 -14 -13 -14 -16 -15 -13 -13 -12 -12 -8 -8 -7 -7 -7 -7 -6 -7 -6 -5 -5 -4 -4 -4 -4 -3 -3 -3
-15 -15 -16 -16 -17 -18 -18 -17 -15 -12 -10 -13 -13 -13 -11 -10 -10 -11 -11 -9 -10 -8 -7 -7 -7 -7 -7 -6 -6 -5 -5 -4 -4 -4 -4 -4 -3 -3
-15 -15 -16 -17 -17 -18 -18 -16 -15 -12 -11 -11 -11 -9 -9 -9 -10 -9 -11 -9 -8 -8 -9 -8 -8 -7 -7 -6 -6 -6 -5 -5 -5 -4 -4 -4 -4 -4
-15 -15 -16 -17 -18 -18 -15 -14 -12 -11 -10 -9 -9 -9 -9 -10 -11 -10 -9 -10 -11 -10 -9 -9 -8 -7 -7 -7 -6 -6 -6 -6 -6 -5 -5 -5 -4 -4
-15 -16 -17 -17 -17 -15 -14 -12 -12 -12 -10 -9 -9 -10 -11 -10 -9 -9 -11 -11 -10 -11 -10 -9 -9 -8 -7 -7 -7 -7 -7 -7 -6 -6 -5 -5 -5 -5
-18 -18 -17 -15 -13 -12 -11 -10 -9 -8 -8 -9 -9 -9 -8 -8 -9 -8 -9 -10 -11 -11 -11 -12 -8 -11 -10 -9 -10 -9 -7 -7 -6 -6 -6 -5 -6 -5
-22 -22 -17 -15 -13 -10 -9 -9 -8 -8 -8 -8 -8 -8 -8 -8 -8 -9 -9 -10 -12 -11 -8 -11 -11 -12 -13 -12 -12 -12 -8 -7 -6 -6 -6 -5 -5 -5
-24 -21 -18 -15 -14 -10 -9 -8 -8 -8 -8 -9 -8 -8 -8 -9 -9 -9 -11 -11 -9 -9 -9 -11 -12 -12 -12 -11 -11 -9 -8 -7 -6 -6 -6 -5 -5 -5
-23 -19 -15 -12 -11 -10 -10 -9 -9 -8 -9 -8 -9 -10 -9 -9 -9 -10 -9 -8 -9 -10 -10 -10 -12 -11 -11 -11 -11 -11 -9 -9 -8 -6 -6 -5 -6 -6
-23 -17 -11 -10 -10 -9 -9 -8 -8 -9 -10 -9 -9 -9 -9 -9 -9 -8 -9 -9 -11 -11 -10 -10 -11 -11 -11 -11 -12 -12 -11 -10 -7 -6 -6 -6 -5 -5
-21 -16 -13 -10 -10 -9 -8 -9 -9 -10 -10 -11 -10 -9 -9 -9 -9 -9 -10 -10 -11 -10 -11 -10 -10 -10 -11 -12 -12 -11 -10 -10 -9 -8 -7 -6 -6 -5
-20 -15 -12 -9 -9 -9 -9 -8 -8 -10 -11 -10 -11 -12 -12 -11 -11 -10 -10 -10 -10 -10 -11 -10 -11 -11 -11 -11 -11 -11 -11 -10 -9 -8 -7 -7 -7 -6
-9 -10 -10 -9 -9 -9 -9 -9 -10 -10 -10 -10 -12 -11 -11 -11 -10 -10 -10 -10 -11 -11 -11 -11 -11 -11 -11 -11 -11 -11 -10 -9 -9 -8 -8 -7 -6 -6
-10 -10 -10 -9 -9 -9 -10 -10 -10 -9 -11 -11 -11 -11 -10 -10 -10 -10 -10 -10 -10 -10 -10 -10 -10 -10 -10 -11 -10 -10 -10 -9 -9 -8 -7 -7 -7 -6
-11 -10 -9 -10 -10 -11 -13 -10 -10 -12 -11 -11 -11 -10 -10 -10 -10 -10 -10 -10 -10 -10 -10 -10 -10 -10 -10 -10 -10 -10 -9 -9 -8 -7 -7 -7 -6 -6
-11 -10 -11 -14 -13 -13 -14 -13 -12 -11 -10 -10 -10 -10 -10 -10 -10 -10 -9 -9 -10 -10 -10 -10 -9 -10 -10 -10 -9 -9 -9 -8 -8 -7 -6 -6 -6 -6
-10 -12 -15 -15 -15 -15 -13 -12 -11 -11 -10 -10 -9 -10 -10 -9 -9 -9 -9 -9 -10 -9 -10 -10 -10 -10 -9 -9 -9 -9 -8 -8 -8 -7 -7 -7 -6 -6
-12 -14 -15 -15 -14 -13 -11 -11 -11 -10 -10 -9 -9 -9 -9 -9 -9 -9 -9 -9 -9 -9 -9 -10 -9 -10 -9 -9 -8 -8 -8 -8 -8 -7 -7 -6 -6 -6
-15 -16 -15 -15 -13 -11 -10 -10 -10 -10 -9 -9 -9 -9 -9 -9 -9 -9 -9 -9 -9 -9 -9 -9 -9 -9 -9 -8 -9 -8 -8 -8 -7 -7 -7 -6 -6 -6
-15 -15 -15 -13 -11 -10 -10 -10 -10 -9 -9 -9 -9 -9 -8 -8 -9 -8 -8 -9 -9 -9 -9 -9 -8 -8 -8 -8 -8 -9 -8 -7 -6 -6 -6 -6 -6 -5
-15 -15 -12 -11 -10 -10 -10 -9 -9 -9 -9 -9 -8 -8 -8 -8 -8 -8 -8 -8 -9 -8 -8 -8 -8 -8 -8 -8 -7 -7 -8 -8 -7 -6 -6 -5 -5 -5
-13 -11 -11 -10 -10 -9 -9 -9 -9 -8 -8 -8 -8 -8 -8 -8 -8 -8 -8 -8 -8 -8 -8 -8 -8 -8 -8 -7 -7 -7 -7 -8 -7 -7 -5 -5 -5 -5
-11 -11 -10 -10 -9 -9 -9 -9 -8 -8 -8 -8 -8 -8 -8 -8 -8 -8 -8 -8 -8 -8 -8 -9 -8 -8 -8 -7 -7 -7 -7 -6 -6 -6 -7 -5 -5 -5

GFSNE_850_dewp_054.txt.gz
Dewpoint
-8 -11 -14 -15 -15 -15 -15 -16 -16 -14 -15 -17 -18 -19 -19 -19 -20 -19 -17 -17 -17 -14 -10 -7 -6 -6 -6 -6 -6 -5 -5 -5 -4 -3 -3 -3 -3 -3
-10 -13 -14 -15 -15 -15 -16 -16 -16 -15 -12 -15 -18 -18 -18 -18 -17 -16 -15 -16 -15 -15 -12 -7 -7 -7 -7 -6 -5 -6 -5 -5 -4 -4 -3 -3 -3 -3
-9 -7 -13 -15 -15 -15 -17 -17 -17 -16 -14 -15 -15 -14 -14 -15 -16 -16 -16 -15 -16 -17 -15 -7 -7 -7 -7 -7 -6 -6 -6 -5 -5 -4 -4 -4 -4 -3
-13 -14 -14 -15 -16 -17 -18 -17 -17 -16 -15 -13 -11 -11 -10 -11 -12 -12 -14 -16 -16 -17 -14 -8 -7 -8 -7 -7 -6 -6 -6 -6 -6 -5 -5 -5 -5 -4
-6 -13 -15 -17 -19 -19 -17 -17 -17 -14 -11 -10 -9 -9 -9 -11 -11 -13 -12 -14 -14 -14 -13 -11 -12 -10 -8 -7 -7 -7 -7 -7 -7 -6 -6 -6 -5 -5
-14 -17 -19 -21 -21 -18 -18 -17 -13 -10 -10 -10 -9 -8 -9 -10 -11 -10 -11 -13 -13 -12 -12 -11 -11 -11 -12 -10 -11 -12 -12 -11 -8 -7 -6 -6 -6 -5
-19 -22 -22 -22 -21 -19 -15 -11 -10 -10 -9 -8 -8 -9 -9 -10 -11 -12 -11 -11 -11 -12 -11 -9 -12 -12 -12 -12 -12 -12 -12 -9 -7 -7 -6 -6 -6 -6
-22 -23 -24 -25 -24 -20 -16 -13 -9 -8 -8 -8 -8 -8 -9 -10 -12 -10 -9 -9 -9 -11 -11 -11 -12 -11 -12 -12 -12 -12 -10 -8 -8 -7 -7 -7 -7 -6
-23 -25 -26 -25 -22 -20 -18 -14 -9 -9 -8 -8 -8 -10 -10 -12 -10 -9 -9 -9 -9 -12 -11 -10 -11 -12 -12 -12 -12 -12 -12 -9 -8 -8 -7 -7 -6 -6
-25 -25 -23 -23 -22 -19 -10 -8 -9 -9 -9 -10 -10 -10 -9 -9 -9 -9 -9 -10 -10 -11 -11 -10 -11 -11 -11 -12 -12 -12 -12 -12 -10 -8 -7 -7 -7 -7
-24 -23 -22 -22 -19 -9 -8 -8 -8 -9 -10 -11 -11 -9 -9 -10 -11 -10 -11 -10 -10 -10 -11 -11 -11 -11 -11 -12 -12 -12 -12 -11 -11 -11 -10 -8 -8 -7
-26 -23 -21 -18 -10 -8 -8 -8 -9 -11 -11 -10 -11 -11 -12 -12 -11 -10 -10 -10 -10 -11 -11 -10 -11 -11 -10 -11 -11 -11 -11 -12 -11 -11 -11 -11 -9 -7
-23 -21 -19 -14 -9 -8 -9 -10 -11 -9 -9 -11 -12 -12 -11 -11 -11 -10 -10 -10 -10 -10 -10 -9 -11 -11 -11 -10 -11 -11 -11 -11 -11 -11 -11 -10 -10 -9
-18 -15 -11 -9 -10 -13 -16 -16 -10 -10 -12 -11 -11 -11 -10 -10 -10 -10 -10 -10 -9 -10 -10 -10 -10 -9 -10 -11 -11 -11 -11 -11 -11 -11 -10 -10 -10 -9
-12 -10 -11 -13 -17 -18 -17 -14 -12 -11 -11 -11 -10 -10 -10 -10 -10 -10 -10 -10 -10 -10 -10 -10 -9 -9 -9 -10 -10 -10 -10 -11 -11 -11 -11 -10 -9 -9
-12 -15 -16 -17 -18 -16 -12 -11 -11 -11 -10 -10 -10 -9 -9 -9 -9 -9 -10 -9 -9 -10 -11 -10 -10 -10 -9 -9 -9 -10 -10 -10 -10 -11 -10 -9 -8 -8
-13 -18 -19 -18 -15 -12 -11 -11 -11 -10 -10 -10 -9 -9 -9 -9 -9 -10 -10 -10 -10 -10 -10 -11 -10 -9 -9 -10 -10 -10 -10 -10 -11 -10 -8 -8 -8 -8
-17 -17 -17 -14 -11 -11 -11 -11 -10 -10 -10 -9 -9 -8 -9 -9 -9 -10 -9 -9 -9 -9 -9 -10 -9 -9 -10 -10 -10 -10 -10 -10 -10 -8 -8 -8 -8 -7
-17 -16 -13 -11 -11 -10 -10 -10 -10 -10 -9 -9 -8 -8 -8 -9 -9 -9 -9 -9 -9 -9 -10 -9 -9 -9 -10 -10 -10 -9 -9 -9 -8 -7 -7 -7 -8 -8
-15 -12 -11 -11 -10 -10 -10 -9 -9 -9 -9 -8 -8 -8 -8 -8 -9 -9 -9 -9 -9 -9 -9 -9 -9 -9 -9 -9 -9 -9 -8 -8 -8 -8 -8 -8 -8 -8
-13 -11 -11 -10 -10 -10 -9 -9 -9 -9 -8 -8 -8 -8 -8 -8 -8 -8 -8 -8 -8 -8 -9 -9 -9 -8 -8 -8 -8 -8 -8 -7 -7 -7 -7 -7 -7 -7
-12 -11 -11 -10 -9 -9 -9 -9 -9 -9 -8 -8 -8 -8 -8 -8 -8 -8 -8 -8 -8 -8 -8 -8 -8 -7 -7 -8 -8 -8 -7 -7 -6 -6 -5 -5 -6 -6
-11 -11 -10 -10 -9 -9 -9 -9 -9 -8 -8 -7 -8 -9 -8 -8 -8 -8 -8 -8 -8 -8 -8 -8 -8 -7 -7 -7 -8 -7 -6 -6 -6 -7 -7 -6 -5 -5

GFSNE_850_dewp_057.txt.gz
Dewpoint
-3 -3 -10 -11 -13 -14 -15 -15 -15 -15 -15 -17 -18 -18 -19 -19 -20 -20 -20 -19 -18 -19 -20 -16 -9 -6 -6 -6 -6 -5 -5 -4 -4 -4 -3 -3 -3 -2
-6 -5 -9 -13 -14 -12 -10 -13 -15 -15 -13 -15 -17 -19 -19 -19 -20 -19 -18 -17 -18 -19 -20 -14 -7 -6 -6 -6 -6 -5 -5 -5 -5 -4 -4 -3 -3 -3
-6 -2 -6 -3 -11 -14 -15 -15 -16 -16 -14 -16 -17 -18 -17 -18 -21 -18 -18 -17 -20 -22 -21 -14 -7 -7 -7 -7 -7 -6 -6 -5 -5 -4 -4 -4 -4 -3
-1 -3 -6 -9 -9 -10 -15 -17 -18 -16 -15 -15 -14 -14 -13 -14 -13 -13 -14 -17 -19 -20 -17 -10 -8 -8 -7 -7 -6 -6 -6 -6 -6 -5 -5 -5 -5 -4
-6 -1 -1 -9 -12 -17 -19 -19 -18 -17 -16 -13 -11 -11 -10 -10 -11 -12 -13 -16 -17 -15 -14 -13 -13 -13 -10 -7 -7 -7 -7 -7 -7 -6 -6 -6 -6 -5
-2 -2 -5 -10 -17 -21 -21 -19 -18 -17 -12 -11 -10 -8 -8 -10 -10 -11 -11 -14 -13 -13 -13 -12 -13 -13 -12 -13 -12 -12 -12 -11 -8 -7 -7 -7 -6 -6
-12 -15 -19 -21 -22 -22 -21 -19 -12 -9 -11 -9 -7 -8 -9 -10 -10 -11 -12 -11 -11 -12 -13 -12 -12 -12 -13 -12 -12 -12 -12 -12 -8 -7 -7 -7 -6 -6
-19 -20 -22 -23 -24 -24 -22 -18 -14 -9 -8 -8 -8 -8 -9 -9 -11 -11 -10 -9 -9 -11 -12 -11 -12 -12 -12 -12 -12 -12 -12 -10 -8 -8 -7 -7 -7 -6
-20 -21 -24 -25 -23 -22 -21 -19 -14 -11 -8 -8 -8 -9 -10 -11 -10 -9 -9 -9 -9 -11 -11 -11 -11 -11 -12 -12 -12 -12 -13 -12 -9 -8 -7 -7 -7 -7
-22 -23 -21 -21 -23 -22 -17 -10 -10 -9 -9 -10 -10 -10 -9 -9 -9 -9 -9 -10 -10 -11 -11 -11 -11 -11 -11 -11 -12 -12 -12 -12 -12 -8 -8 -7 -7 -7
-20 -19 -20 -22 -22 -18 -9 -8 -8 -9 -11 -11 -12 -11 -11 -10 -11 -11 -11 -10 -10 -10 -10 -11 -11 -10 -11 -11 -12 -12 -11 -11 -11 -10 -9 -8 -8 -8
-23 -23 -21 -19 -16 -8 -8 -9 -10 -13 -12 -11 -13 -12 -12 -12 -11 -11 -10 -10 -10 -11 -10 -10 -10 -10 -11 -11 -11 -11 -11 -12 -11 -11 -11 -10 -9 -8
-24 -23 -20 -15 -9 -9 -9 -11 -15 -10 -10 -12 -12 -12 -11 -11 -11 -10 -10 -10 -9 -9 -10 -10 -10 -11 -11 -10 -10 -11 -11 -11 -11 -11 -11 -11 -10 -9
-21 -18 -15 -11 -12 -17 -19 -18 -12 -11 -12 -11 -11 -11 -11 -10 -10 -10 -10 -9 -9 -10 -10 -9 -10 -10 -10 -11 -11 -11 -10 -10 -11 -11 -10 -11 -11 -10
-14 -12 -14 -18 -19 -19 -17 -13 -12 -11 -11 -11 -10 -10 -10 -9 -10 -10 -10 -10 -10 -10 -10 -10 -10 -9 -10 -10 -10 -10 -10 -11 -10 -10 -10 -11 -10 -10
-15 -17 -18 -19 -18 -15 -12 -11 -11 -10 -10 -10 -10 -9 -9 -9 -9 -9 -9 -10 -10 -11 -11 -10 -10 -9 -10 -9 -9 -10 -10 -9 -10 -10 -10 -10 -9 -8
-16 -19 -19 -18 -13 -11 -11 -11 -10 -10 -10 -10 -9 -9 -9 -8 -9 -9 -9 -9 -9 -9 -10 -11 -10 -9 -9 -10 -10 -10 -10 -10 -10 -10 -9 -8 -8 -8
-20 -18 -17 -13 -11 -11 -10 -10 -10 -10 -10 -9 -9 -8 -8 -8 -8 -9 -8 -9 -9 -9 -10 -10 -9 -9 -10 -10 -10 -9 -10 -10 -9 -9 -8 -9 -8 -9
-18 -16 -12 -11 -11 -10 -10 -10 -10 -9 -9 -9 -8 -8 -8 -8 -8 -8 -9 -9 -9 -9 -9 -9 -8 -9 -10 -10 -10 -9 -9 -9 -8 -8 -8 -8 -8 -8
-17 -13 -11 -11 -10 -10 -10 -10 -10 -9 -9 -9 -8 -8 -8 -8 -8 -9 -9 -9 -9 -9 -9 -9 -8 -8 -9 -9 -9 -9 -8 -8 -8 -8 -7 -7 -7 -7
-15 -12 -11 -11 -10 -10 -9 -9 -9 -9 -8 -8 -8 -8 -8 -8 -8 -9 -9 -9 -9 -9 -9 -8 -8 -7 -7 -8 -8 -8 -7 -6 -6 -7 -7 -7 -7 -8
-12 -11 -11 -10 -10 -9 -9 -9 -9 -9 -8 -8 -8 -8 -8 -8 -8 -8 -8 -8 -9 -8 -8 -8 -8 -7 -7 -8 -8 -7 -7 -7 -6 -6 -6 -6 -6 -6
-11 -10 -10 -10 -9 -9 -9 -9 -9 -9 -8 -8 -8 -8 -8 -8 -8 -8 -8 -9 -8 -8 -8 -8 -8 -8 -7 -7 -7 -7 -6 -6 -6 -6 -7 -6 -6 -6

GFSNE_850_dewp_060.txt.gz
Dewpoint
2 1 -3 -3 -2 -11 -10 -13 -14 -14 -13 -13 -16 -17 -18 -18 -19 -19 -18 -20 -20 -20 -20 -21 -18 -8 -6 -6 -5 -5 -5 -5 -4 -4 -4 -4 -3 -2
-1 -5 -3 -9 -8 -6 -10 -5 -5 -14 -15 -15 -17 -18 -18 -19 -19 -18 -19 -18 -18 -18 -20 -21 -9 -7 -6 -6 -5 -5 -5 -5 -4 -4 -4 -3 -3 -3
-4 -3 -7 -7 -6 -2 -3 -8 -10 -12 -16 -17 -18 -18 -19 -19 -20 -20 -19 -17 -18 -20 -21 -20 -9 -7 -6 -6 -6 -6 -5 -5 -5 -5 -4 -4 -4 -3
-4 -5 -3 0 -1 -3 -3 -7 -16 -17 -17 -17 -17 -17 -16 -18 -18 -17 -15 -15 -15 -19 -20 -16 -9 -11 -9 -7 -6 -6 -6 -6 -6 -5 -5 -5 -4 -4
-3 -0 -1 -1 -1 -3 -5 -10 -18 -18 -17 -16 -15 -14 -14 -15 -12 -12 -12 -13 -17 -19 -15 -14 -13 -13 -13 -8 -7 -7 -7 -7 -7 -6 -6 -6 -6 -5
-1 -0 0 -0 -2 -8 -19 -19 -19 -19 -18 -16 -13 -13 -10 -10 -10 -11 -11 -14 -15 -13 -14 -13 -13 -13 -13 -13 -12 -12 -12 -13 -13 -8 -7 -7 -6 -6
0 -0 -2 -13 -20 -22 -22 -21 -21 -23 -20 -16 -11 -9 -9 -9 -9 -10 -12 -12 -11 -12 -13 -13 -13 -13 -13 -13 -12 -13 -13 -13 -12 -7 -7 -6 -7 -6
-2 -16 -21 -22 -22 -23 -23 -22 -23 -21 -16 -10 -8 -8 -9 -9 -10 -12 -10 -10 -9 -11 -12 -12 -12 -12 -12 -12 -12 -12 -12 -13 -12 -8 -7 -7 -7 -7
-18 -20 -21 -22 -23 -24 -25 -26 -24 -17 -10 -8 -8 -9 -10 -12 -11 -10 -9 -9 -10 -11 -11 -11 -11 -12 -12 -12 -12 -12 -13 -13 -12 -9 -7 -7 -7 -7
-20 -21 -22 -24 -25 -25 -24 -15 -10 -11 -10 -10 -11 -13 -12 -9 -9 -9 -9 -11 -11 -11 -10 -10 -11 -11 -11 -11 -12 -13 -13 -12 -12 -9 -8 -7 -7 -7
-21 -24 -25 -25 -24 -22 -9 -8 -9 -11 -14 -16 -15 -13 -12 -12 -11 -11 -11 -10 -10 -10 -10 -10 -11 -10 -11 -11 -12 -12 -11 -11 -11 -11 -11 -9 -8 -8
-26 -24 -22 -20 -13 -8 -8 -9 -13 -17 -16 -15 -13 -12 -12 -11 -11 -10 -10 -9 -9 -10 -10 -10 -11 -11 -11 -11 -11 -11 -12 -12 -12 -12 -11 -11 -10 -8
-22 -20 -19 -17 -10 -11 -11 -14 -17 -10 -10 -12 -11 -11 -11 -11 -10 -10 -10 -9 -9 -10 -10 -10 -11 -11 -11 -10 -11 -11 -11 -12 -11 -12 -11 -11 -10 -10
-20 -18 -19 -21 -20 -20 -19 -17 -10 -11 -11 -11 -11 -11 -10 -10 -10 -9 -9 -9 -9 -10 -10 -10 -10 -10 -10 -10 -10 -11 -11 -11 -11 -11 -10 -10 -10 -10
-19 -21 -21 -20 -20 -19 -15 -12 -11 -11 -11 -11 -10 -10 -9 -9 -9 -9 -9 -9 -10 -10 -10 -10 -9 -9 -9 -10 -10 -10 -10 -10 -10 -10 -10 -10 -10 -10
-21 -20 -20 -19 -18 -14 -11 -11 -11 -10 -10 -10 -10 -9 -9 -9 -9 -9 -9 -9 -9 -10 -10 -10 -9 -9 -9 -9 -9 -9 -9 -9 -9 -10 -9 -9 -9 -9
-18 -20 -19 -17 -13 -11 -11 -11 -10 -10 -10 -10 -9 -9 -9 -9 -9 -9 -9 -9 -9 -9 -10 -10 -9 -8 -9 -9 -9 -9 -9 -9 -10 -9 -9 -8 -9 -9
-20 -19 -18 -13 -11 -11 -11 -10 -10 -10 -9 -9 -9 -8 -8 -8 -9 -9 -9 -9 -9 -9 -9 -9 -9 -9 -9 -10 -10 -9 -10 -10 -9 -8 -8 -9 -8 -8
-20 -18 -14 -11 -11 -11 -10 -10 -10 -9 -9 -9 -8 -8 -8 -8 -8 -9 -9 -9 -9 -9 -9 -9 -8 -9 -10 -10 -10 -9 -9 -9 -8 -8 -8 -7 -7 -8
-18 -15 -12 -11 -11 -10 -10 -10 -10 -9 -9 -8 -8 -8 -8 -9 -8 -8 -8 -8 -8 -9 -8 -9 -8 -8 -9 -9 -8 -9 -7 -8 -7 -7 -7 -7 -7 -8
-16 -12 -11 -11 -10 -10 -9 -9 -9 -9 -9 -8 -8 -8 -8 -9 -9 -8 -8 -8 -8 -8 -8 -9 -9 -7 -7 -8 -8 -7 -7 -6 -6 -6 -6 -6 -6 -7
-13 -11 -11 -10 -10 -9 -9 -9 -9 -9 -8 -8 -8 -8 -8 -8 -9 -8 -8 -8 -8 -8 -8 -9 -9 -8 -7 -8 -8 -7 -7 -8 -9 -8 -6 -6 -6 -6
-11 -11 -10 -9 -9 -9 -9 -9 -9 -9 -8 -8 -8 -8 -8 -9 -9 -8 -8 -8 -8 -8 -8 -8 -9 -8 -8 -7 -7 -6 -6 -7 -7 -7 -8 -9 -8 -7

GFSNE_850_dewp_063.txt.gz
Dewpoint
8 7 5 0 -3 -1 -1 -11 -10 -10 -7 -6 -9 -8 -14 -17 -18 -18 -19 -21 -22 -25 -23 -22 -22 -13 -7 -6 -5 -5 -5 -5 -4 -3 -3 -3 -2 -2
7 5 -0 -4 -7 -7 -7 -6 -6 -2 -1 -3 -9 -12 -16 -18 -19 -19 -20 -21 -21 -19 -19 -19 -16 -8 -7 -6 -6 -5 -5 -4 -4 -4 -3 -3 -3 -3
3 -2 -6 -6 -5 -7 -5 -1 1 -1 -0 -2 -8 -16 -19 -20 -21 -22 -23 -21 -20 -21 -20 -20 -17 -8 -6 -6 -6 -6 -5 -5 -5 -5 -4 -4 -4 -3
-5 -7 -6 -3 -3 -1 0 0 1 -2 -6 -14 -17 -20 -21 -21 -20 -22 -19 -18 -17 -19 -21 -21 -17 -14 -13 -9 -7 -6 -6 -6 -6 -5 -5 -5 -4 -4
-6 -3 -2 -1 0 0 -0 -1 -4 -13 -17 -15 -17 -22 -21 -22 -16 -15 -16 -17 -20 -22 -19 -14 -14 -13 -14 -13 -8 -7 -7 -7 -7 -6 -6 -6 -5 -5
-1 -1 1 0 -0 -0 -3 -14 -19 -19 -20 -20 -18 -16 -13 -13 -13 -13 -11 -15 -15 -15 -14 -14 -14 -14 -14 -13 -13 -13 -13 -13 -13 -9 -7 -6 -6 -6
0 -0 -0 -0 -4 -19 -21 -22 -22 -23 -22 -15 -12 -10 -10 -9 -8 -10 -10 -9 -9 -13 -13 -13 -13 -13 -13 -13 -13 -13 -13 -13 -12 -8 -7 -6 -6 -6
-0 -0 -3 -19 -21 -22 -21 -21 -21 -21 -12 -10 -10 -9 -9 -9 -9 -9 -9 -9 -9 -12 -12 -10 -12 -12 -12 -12 -12 -12 -13 -12 -10 -8 -7 -7 -7 -7
-10 -19 -20 -20 -20 -21 -23 -24 -21 -16 -13 -10 -9 -9 -9 -13 -10 -9 -9 -9 -9 -12 -11 -10 -11 -11 -11 -12 -12 -13 -13 -13 -13 -11 -7 -7 -7 -7
-18 -19 -20 -23 -24 -25 -21 -17 -17 -15 -13 -12 -13 -15 -12 -9 -9 -9 -10 -10 -10 -11 -10 -10 -11 -11 -11 -12 -12 -13 -13 -13 -12 -11 -8 -7 -7 -7
-21 -24 -25 -25 -23 -17 -10 -11 -15 -17 -18 -18 -16 -13 -12 -12 -11 -11 -11 -10 -10 -11 -10 -10 -11 -10 -11 -12 -12 -12 -12 -12 -12 -11 -11 -10 -8 -8
-24 -23 -23 -23 -22 -9 -9 -14 -17 -19 -17 -14 -13 -12 -12 -11 -11 -10 -9 -9 -9 -9 -10 -10 -10 -10 -10 -11 -11 -11 -12 -12 -11 -11 -11 -11 -10 -9
-22 -21 -21 -22 -20 -21 -19 -20 -19 -11 -12 -12 -12 -12 -11 -11 -10 -10 -9 -9 -9 -9 -9 -10 -10 -10 -11 -10 -11 -11 -11 -11 -11 -10 -10 -10 -10 -10
-20 -20 -21 -22 -22 -21 -21 -17 -12 -12 -11 -11 -11 -11 -11 -10 -10 -9 -9 -9 -9 -9 -9 -9 -9 -9 -9 -10 -10 -10 -10 -10 -10 -9 -9 -9 -10 -10
-21 -22 -22 -22 -21 -19 -14 -12 -11 -11 -11 -10 -10 -10 -10 -9 -9 -9 -10 -9 -9 -10 -10 -9 -9 -9 -9 -9 -9 -9 -9 -9 -9 -9 -10 -10 -10 -9
-21 -21 -21 -20 -17 -12 -11 -11 -11 -10 -10 -10 -10 -10 -9 -9 -9 -9 -9 -9 -10 -10 -10 -10 -9 -8 -9 -9 -9 -9 -9 -9 -10 -10 -10 -9 -9 -9
-21 -20 -20 -17 -12 -11 -11 -11 -10 -10 -10 -10 -10 -9 -9 -9 -9 -9 -9 -9 -9 -9 -10 -10 -9 -9 -9 -9 -9 -10 -9 -9 -10 -9 -8 -8 -8 -8
-21 -20 -17 -12 -11 -11 -11 -10 -10 -10 -10 -9 -9 -8 -9 -9 -9 -9 -9 -8 -9 -9 -9 -9 -9 -9 -9 -9 -9 -9 -9 -9 -8 -8 -7 -8 -8 -7
-20 -18 -14 -12 -11 -11 -10 -10 -10 -10 -9 -9 -8 -8 -9 -9 -9 -9 -9 -9 -9 -9 -9 -9 -8 -8 -9 -9 -9 -8 -8 -8 -7 -7 -7 -6 -6 -7
-18 -15 -12 -11 -11 -10 -10 -9 -9 -9 -9 -9 -9 -8 -9 -9 -9 -9 -9 -8 -8 -9 -8 -9 -9 -8 -8 -8 -8 -9 -7 -7 -6 -6 -7 -6 -7 -7
-16 -12 -11 -10 -10 -10 -9 -9 -9 -9 -9 -9 -8 -8 -9 -9 -8 -9 -9 -8 -8 -8 -8 -9 -9 -8 -8 -8 -8 -8 -8 -6 -6 -6 -6 -6 -7 -7
-13 -11 -10 -10 -9 -9 -9 -9 -9 -9 -9 -9 -8 -9 -9 -8 -8 -9 -9 -8 -8 -8 -8 -8 -9 -8 -8 -8 -8 -8 -7 -8 -7 -7 -6 -5 -5 -6
-11 -11 -10 -9 -9 -9 -8 -8 -8 -9 -8 -8 -8 -9 -9 -8 -9 -8 -8 -8 -8 -8 -8 -8 -8 -8 -8 -8 -8 -8 -8 -8 -7 -7 -7 -6 -5 -5

GFSNE_850_dewp_066.txt.gz
Dewpoint
10 10 8 8 7 5 3 1 -2 -2 -2 -5 -8 -5 -6 -7 -4 -4 -6 -16 -20 -23 -26 -29 -27 -26 -27 -21 -10 -6 -5 -4 -4 -3 -3 -2 -2 -2
9 9 7 6 5 3 3 -1 -3 -7 -5 -2 -1 -0 0 -2 -2 -7 -17 -19 -22 -26 -28 -25 -23 -23 -18 -11 -7 -6 -5 -4 -4 -3 -3 -3 -2 -2
8 7 7 5 1 -2 -7 -6 -3 -3 -0 0 -0 -0 -1 -9 -16 -18 -20 -21 -21 -21 -23 -21 -22 -22 -11 -8 -6 -6 -5 -5 -4 -4 -4 -4 -3 -3
7 5 4 -2 -7 -7 -4 -1 0 1 0 -0 -0 -7 -16 -18 -21 -22 -23 -21 -19 -21 -23 -23 -19 -16 -15 -14 -11 -7 -6 -5 -5 -5 -5 -4 -4 -4
1 -1 -7 -7 -4 -1 0 1 0 -0 -1 -8 -15 -17 -19 -19 -16 -11 -14 -17 -14 -22 -17 -15 -15 -14 -14 -14 -13 -8 -10 -11 -7 -6 -6 -6 -5 -5
-6 -6 -3 -1 0 0 -0 -0 -2 -13 -15 -14 -12 -9 -9 -9 -9 -8 -8 -9 -10 -12 -10 -13 -13 -13 -13 -13 -13 -13 -13 -13 -13 -12 -7 -6 -6 -6
-3 -1 0 0 -0 -0 -4 -18 -21 -21 -21 -17 -8 -7 -7 -8 -8 -8 -9 -9 -8 -9 -8 -8 -9 -9 -11 -12 -13 -13 -13 -13 -13 -10 -7 -6 -6 -6
0 0 -0 -0 -14 -21 -22 -22 -23 -19 -10 -7 -7 -7 -8 -8 -9 -9 -8 -8 -8 -10 -8 -8 -9 -9 -13 -12 -13 -13 -13 -13 -12 -8 -7 -7 -6 -6
-0 -2 -15 -20 -20 -21 -23 -25 -23 -19 -16 -9 -8 -8 -9 -9 -9 -10 -8 -8 -8 -8 -8 -8 -9 -9 -10 -10 -13 -13 -13 -13 -13 -12 -8 -7 -7 -7
-18 -19 -19 -22 -24 -25 -23 -17 -17 -13 -12 -13 -11 -10 -9 -9 -8 -8 -8 -8 -8 -8 -8 -9 -9 -9 -9 -10 -12 -13 -13 -12 -13 -12 -10 -8 -7 -7
-22 -24 -26 -24 -22 -22 -11 -12 -10 -14 -18 -20 -17 -14 -12 -12 -11 -11 -10 -8 -9 -10 -9 -9 -9 -8 -9 -11 -11 -11 -11 -11 -11 -11 -11 -10 -8 -8
-24 -24 -22 -21 -20 -12 -14 -14 -19 -18 -15 -13 -12 -12 -12 -11 -11 -10 -10 -9 -9 -9 -9 -9 -10 -9 -9 -10 -10 -10 -11 -10 -10 -10 -10 -10 -10 -8
-22 -20 -20 -21 -22 -22 -21 -18 -18 -11 -10 -12 -12 -12 -11 -11 -10 -10 -9 -9 -9 -9 -9 -9 -10 -10 -10 -9 -10 -10 -10 -10 -9 -9 -9 -9 -9 -9
-20 -20 -21 -23 -22 -21 -20 -18 -14 -12 -12 -12 -11 -11 -11 -11 -10 -10 -9 -9 -9 -9 -10 -9 -9 -9 -9 -9 -9 -9 -9 -10 -9 -10 -10 -10 -10 -10
-22 -21 -22 -22 -21 -19 -15 -12 -12 -11 -11 -11 -11 -11 -11 -10 -10 -10 -10 -9 -9 -10 -10 -9 -9 -9 -8 -8 -8 -9 -9 -10 -10 -10 -10 -9 -9 -9
-20 -21 -21 -21 -18 -13 -12 -11 -11 -11 -11 -10 -10 -10 -10 -9 -9 -9 -9 -9 -10 -10 -10 -9 -9 -9 -9 -9 -9 -9 -10 -9 -9 -9 -8 -8 -8 -8
-21 -21 -20 -18 -13 -12 -11 -11 -10 -10 -10 -10 -10 -9 -9 -9 -9 -9 -10 -10 -9 -10 -10 -10 -9 -9 -8 -9 -9 -9 -9 -9 -9 -8 -7 -7 -7 -7
-21 -21 -19 -14 -12 -11 -11 -10 -10 -10 -10 -10 -9 -9 -9 -9 -9 -9 -9 -9 -9 -9 -9 -9 -9 -8 -8 -8 -8 -9 -8 -8 -8 -7 -7 -7 -7 -8
-21 -20 -15 -12 -11 -11 -10 -10 -10 -10 -9 -9 -9 -9 -9 -9 -9 -9 -9 -9 -9 -9 -8 -8 -8 -8 -8 -8 -8 -8 -8 -8 -7 -7 -7 -6 -6 -7
-20 -17 -12 -11 -11 -10 -10 -9 -9 -9 -9 -9 -9 -9 -8 -9 -9 -9 -9 -9 -8 -9 -9 -8 -8 -8 -8 -8 -8 -8 -8 -7 -7 -7 -6 -6 -6 -7
-18 -13 -11 -11 -10 -9 -9 -9 -9 -9 -9 -9 -9 -9 -8 -9 -9 -9 -9 -9 -9 -8 -9 -8 -8 -8 -8 -8 -8 -8 -7 -8 -7 -7 -7 -6 -6 -6
-16 -12 -11 -10 -10 -9 -9 -9 -8 -8 -8 -8 -9 -8 -8 -9 -9 -9 -9 -9 -8 -8 -8 -8 -8 -8 -8 -8 -8 -8 -8 -8 -9 -8 -8 -6 -6 -6
-14 -12 -11 -10 -9 -9 -9 -8 -8 -8 -8 -8 -9 -9 -8 -8 -8 -9 -8 -9 -8 -8 -8 -8 -8 -8 -8 -8 -8 -8 -8 -8 -8 -8 -8 -7 -6 -6

GFSNE_850_dewp_069.txt.gz
Dewpoint
10 9 9 9 9 8 8 6 3 2 1 1 0 -3 -3 -2 -3 -2 -0 -0 0 -0 -12 -21 -26 -30 -31 -31 -27 -22 -13 -7 -4 -4 -3 -3 -2 -2
8 9 8 8 8 6 4 6 5 2 -0 -1 -2 -2 -2 0 0 0 0 -0 -6 -18 -23 -27 -29 -28 -27 -26 -21 -11 -5 -5 -4 -4 -3 -3 -3 -2
8 7 7 7 7 5 3 2 2 1 -0 -2 -1 -0 0 0 -0 -0 -7 -19 -20 -24 -25 -23 -25 -26 -23 -18 -12 -9 -7 -5 -5 -4 -4 -3 -3 -3
7 6 6 5 4 3 1 -2 -2 -2 -0 1 1 0 -0 -0 -7 -14 -16 -21 -21 -23 -20 -21 -25 -15 -15 -15 -14 -12 -7 -6 -5 -5 -5 -4 -4 -4
5 4 3 2 1 -5 -3 -1 0 1 0 -0 -1 -4 -15 -19 -19 -20 -19 -17 -13 -13 -12 -14 -13 -11 -14 -13 -13 -12 -11 -8 -8 -7 -6 -6 -6 -5
1 -1 -3 -3 -3 -1 0 1 -0 -0 -2 -8 -17 -14 -15 -15 -11 -10 -8 -8 -14 -13 -11 -13 -8 -12 -11 -12 -13 -11 -12 -12 -12 -8 -7 -6 -6 -6
-3 -4 -3 -1 0 1 -0 -0 -5 -17 -21 -20 -18 -10 -8 -8 -8 -8 -9 -10 -13 -12 -12 -11 -9 -11 -12 -12 -12 -12 -10 -7 -7 -7 -6 -6 -6 -6
-1 -1 -1 -0 -1 -1 -7 -20 -24 -25 -22 -16 -12 -13 -8 -8 -8 -9 -9 -12 -11 -12 -10 -12 -11 -11 -12 -12 -12 -11 -10 -10 -8 -7 -7 -7 -6 -6
-1 -2 -2 -10 -18 -21 -24 -26 -25 -23 -20 -16 -14 -9 -8 -9 -10 -12 -11 -9 -10 -10 -8 -9 -11 -10 -11 -11 -12 -12 -12 -11 -12 -12 -8 -7 -7 -7
-4 -7 -18 -22 -25 -26 -25 -18 -16 -15 -12 -12 -13 -14 -13 -12 -10 -10 -10 -10 -10 -10 -8 -9 -10 -10 -11 -11 -11 -11 -12 -11 -11 -11 -11 -11 -8 -7
-22 -23 -24 -24 -24 -25 -19 -13 -15 -12 -13 -19 -21 -17 -14 -13 -12 -12 -11 -10 -9 -10 -10 -9 -9 -9 -10 -11 -11 -11 -10 -10 -10 -10 -10 -10 -8 -7
-20 -22 -23 -23 -24 -24 -23 -20 -16 -18 -18 -13 -12 -12 -12 -12 -11 -11 -10 -9 -8 -9 -9 -9 -10 -9 -9 -11 -10 -10 -10 -10 -10 -10 -10 -9 -8 -7
-22 -21 -21 -23 -24 -25 -25 -23 -21 -18 -12 -11 -12 -11 -11 -10 -10 -9 -9 -9 -9 -9 -9 -9 -9 -9 -9 -9 -10 -10 -10 -10 -10 -10 -10 -10 -10 -9
-22 -22 -22 -24 -24 -23 -22 -20 -16 -12 -12 -12 -11 -11 -10 -10 -10 -10 -9 -9 -9 -9 -10 -9 -9 -9 -9 -9 -9 -10 -10 -10 -10 -10 -9 -9 -9 -9
-22 -22 -22 -22 -22 -21 -18 -13 -12 -12 -11 -11 -11 -10 -10 -10 -10 -10 -9 -9 -10 -10 -10 -10 -9 -9 -9 -9 -9 -9 -9 -10 -10 -9 -9 -8 -8 -8
-18 -21 -22 -21 -20 -15 -12 -12 -11 -11 -11 -11 -10 -10 -10 -10 -10 -9 -9 -10 -10 -10 -10 -10 -9 -9 -9 -9 -9 -9 -9 -9 -9 -9 -8 -7 -7 -7
-21 -21 -21 -19 -15 -12 -11 -11 -11 -11 -10 -10 -10 -10 -10 -10 -9 -9 -9 -9 -9 -9 -9 -9 -9 -9 -9 -9 -9 -9 -9 -9 -9 -8 -8 -7 -7 -8
-21 -20 -19 -16 -12 -12 -11 -11 -11 -10 -10 -10 -10 -10 -9 -9 -9 -9 -10 -9 -9 -9 -9 -9 -9 -8 -8 -8 -8 -9 -8 -8 -8 -8 -8 -7 -7 -8
-21 -20 -19 -13 -12 -11 -11 -10 -10 -9 -9 -9 -9 -9 -9 -9 -9 -9 -9 -9 -9 -9 -9 -9 -8 -8 -8 -8 -8 -8 -9 -8 -8 -8 -8 -7 -7 -7
-22 -20 -16 -12 -11 -11 -10 -10 -9 -9 -9 -9 -9 -9 -9 -9 -9 -9 -9 -9 -9 -9 -9 -9 -9 -8 -8 -8 -8 -9 -9 -8 -7 -8 -8 -7 -7 -7
-22 -19 -13 -11 -11 -10 -9 -9 -9 -9 -8 -8 -8 -8 -9 -9 -9 -9 -9 -9 -9 -9 -9 -9 -9 -8 -8 -8 -8 -8 -9 -8 -8 -7 -7 -7 -7 -7
-20 -17 -12 -11 -10 -10 -9 -9 -9 -8 -8 -8 -8 -9 -9 -9 -9 -9 -9 -9 -9 -9 -9 -9 -8 -8 -8 -8 -7 -8 -8 -9 -9 -8 -8 -7 -7 -7
-19 -17 -13 -11 -11 -10 -9 -9 -9 -8 -8 -9 -9 -9 -9 -9 -9 -9 -9 -9 -9 -9 -8 -8 -8 -8 -8 -8 -7 -8 -8 -9 -8 -8 -8 -8 -7 -6

GFSNE_850_dewp_072.txt.gz
Dewpoint
9 10 9 9 9 8 8 8 6 4 2 -1 2 3 3 3 3 -1 -2 -2 -1 0 0 -1 -10 -21 -26 -28 -28 -20 -18 -13 -7 -4 -3 -3 -2 -2
8 8 8 8 8 8 7 6 4 3 4 3 3 2 2 2 -0 -1 -0 0 0 -0 -7 -18 -21 -23 -17 -22 -26 -23 -12 -6 -4 -4 -3 -3 -2 -2
7 7 7 7 7 6 5 4 4 3 3 2 2 1 0 -1 -0 -1 -0 -1 -4 -9 -15 -23 -24 -18 -23 -24 -20 -12 -6 -5 -5 -4 -4 -3 -3 -3
6 6 6 5 4 4 3 3 2 1 1 0 0 -0 -0 -0 -1 -1 -8 -18 -22 -21 -19 -14 -10 -13 -14 -14 -12 -10 -8 -7 -5 -4 -4 -4 -4 -4
5 5 4 3 3 2 -0 -1 -1 -0 0 0 -0 -1 -3 -13 -18 -20 -17 -17 -16 -15 -17 -20 -14 -15 -13 -9 -12 -8 -6 -6 -6 -5 -5 -5 -5 -5
2 1 1 -0 -2 -2 -1 -0 -0 0 -0 -2 -9 -20 -20 -15 -14 -15 -14 -14 -17 -20 -17 -14 -13 -13 -12 -13 -13 -12 -12 -9 -6 -6 -6 -6 -6 -5
-1 -2 -3 -2 -1 -1 -1 -1 -4 -8 -11 -22 -22 -18 -15 -13 -11 -9 -10 -17 -20 -15 -13 -12 -12 -13 -13 -13 -12 -12 -12 -8 -6 -6 -6 -6 -6 -6
-3 -1 -1 -2 -2 -1 -3 -7 -19 -22 -23 -23 -23 -19 -12 -9 -8 -10 -16 -18 -14 -12 -12 -14 -12 -12 -12 -12 -11 -11 -10 -9 -7 -6 -6 -6 -6 -6
-1 -1 -1 -1 -2 -7 -20 -23 -25 -22 -21 -20 -17 -15 -13 -13 -17 -19 -15 -13 -12 -12 -10 -13 -11 -11 -12 -11 -11 -11 -11 -10 -11 -10 -8 -7 -6 -6
-2 -6 -14 -22 -23 -23 -23 -21 -15 -14 -13 -15 -18 -20 -22 -20 -16 -13 -12 -12 -12 -12 -10 -10 -11 -11 -11 -11 -11 -11 -11 -11 -10 -8 -7 -7 -6 -6
-23 -24 -24 -23 -22 -23 -18 -16 -14 -15 -16 -20 -22 -17 -14 -13 -13 -12 -12 -11 -11 -11 -11 -9 -9 -9 -10 -11 -11 -11 -11 -10 -10 -10 -9 -7 -7 -7
-23 -23 -22 -22 -24 -24 -24 -21 -20 -19 -21 -18 -12 -13 -12 -12 -12 -11 -11 -11 -10 -10 -10 -9 -9 -9 -9 -11 -11 -11 -11 -10 -10 -10 -10 -10 -8 -7
-20 -19 -21 -23 -23 -24 -24 -23 -22 -21 -17 -12 -13 -12 -12 -11 -11 -11 -11 -10 -10 -9 -9 -9 -9 -9 -10 -9 -10 -10 -10 -10 -10 -10 -10 -10 -9 -8
-23 -22 -21 -21 -23 -23 -22 -21 -17 -13 -12 -12 -12 -11 -11 -11 -11 -11 -10 -10 -9 -9 -10 -9 -9 -10 -10 -10 -9 -10 -10 -10 -10 -10 -9 -9 -9 -8
-21 -21 -22 -23 -23 -22 -20 -15 -12 -12 -12 -11 -11 -11 -10 -10 -10 -10 -10 -9 -9 -10 -10 -9 -9 -9 -10 -10 -10 -9 -9 -10 -10 -10 -9 -9 -9 -8
-22 -22 -23 -22 -21 -17 -13 -12 -12 -11 -11 -11 -11 -11 -10 -10 -10 -10 -9 -9 -10 -11 -10 -9 -9 -9 -9 -9 -9 -10 -9 -9 -9 -9 -9 -9 -9 -8
-23 -23 -22 -21 -18 -13 -12 -12 -11 -11 -11 -10 -10 -10 -10 -10 -10 -9 -9 -9 -10 -10 -10 -10 -9 -9 -9 -9 -9 -10 -10 -9 -9 -9 -8 -8 -8 -7
-22 -22 -21 -20 -16 -12 -12 -11 -11 -10 -10 -10 -10 -10 -10 -9 -9 -9 -9 -9 -9 -9 -9 -9 -9 -9 -9 -9 -9 -9 -8 -8 -9 -9 -8 -8 -9 -9
-22 -22 -21 -19 -13 -12 -11 -11 -10 -9 -9 -9 -9 -9 -9 -9 -9 -9 -9 -9 -9 -9 -9 -9 -9 -9 -9 -9 -10 -8 -8 -9 -8 -8 -8 -8 -8 -9
-22 -22 -20 -16 -12 -11 -11 -10 -9 -9 -9 -9 -8 -8 -8 -8 -9 -9 -9 -9 -9 -9 -9 -9 -10 -9 -9 -9 -8 -9 -10 -8 -8 -8 -8 -8 -8 -8
-23 -23 -20 -15 -12 -11 -10 -10 -9 -9 -9 -8 -8 -9 -9 -9 -9 -9 -9 -9 -9 -9 -9 -10 -10 -9 -8 -8 -8 -8 -9 -9 -8 -8 -8 -7 -7 -8
-23 -22 -19 -15 -12 -11 -10 -10 -9 -9 -9 -8 -9 -9 -9 -9 -9 -9 -9 -9 -9 -9 -10 -10 -10 -9 -8 -8 -8 -8 -9 -10 -10 -9 -9 -7 -7 -7
-21 -20 -18 -16 -13 -12 -11 -11 -10 -9 -9 -9 -9 -9 -9 -9 -9 -9 -9 -9 -9 -9 -9 -9 -9 -8 -8 -8 -8 -8 -9 -10 -9 -9 -9 -8 -7 -7

GFSNE_850_dewp_075.txt.gz
Dewpoint
8 8 9 9 10 9 9 7 7 6 5 5 3 2 3 3 2 2 2 1 0 0 -1 -1 -0 -2 -11 -15 -16 -15 -9 -9 -5 -4 -3 -3 -2 -2
7 8 7 8 8 8 8 7 6 5 4 4 4 3 2 2 1 1 1 0 -0 -0 -0 -1 -8 -13 -11 -16 -13 -11 -10 -5 -4 -4 -3 -2 -2 -2
6 6 5 6 6 7 7 6 5 4 3 3 3 2 2 2 1 -0 -0 -0 -0 -1 -3 -10 -14 -17 -14 -14 -9 -5 -5 -5 -4 -4 -3 -3 -3 -3
4 5 5 5 5 5 5 4 4 3 2 2 1 1 0 -0 0 -0 -1 -2 -11 -17 -19 -17 -16 -17 -16 -9 -7 -6 -5 -5 -5 -5 -4 -4 -4 -4
4 4 4 4 3 2 2 1 0 -0 0 0 0 -0 -0 -1 -4 -12 -17 -16 -16 -15 -18 -19 -17 -14 -14 -11 -8 -7 -8 -8 -7 -7 -6 -6 -5 -5
4 3 3 2 1 -1 -1 -0 -0 -0 0 -0 -1 -4 -9 -15 -17 -17 -16 -14 -13 -17 -17 -15 -13 -13 -13 -13 -13 -12 -12 -12 -12 -10 -6 -6 -6 -5
1 1 -0 -1 -1 -1 -1 -1 -1 -1 -2 -5 -17 -21 -19 -15 -13 -12 -14 -13 -18 -16 -13 -12 -13 -13 -12 -12 -12 -11 -12 -11 -7 -6 -6 -6 -5 -5
-2 -1 -1 -1 -1 -1 -1 -1 -1 -13 -19 -20 -20 -22 -16 -13 -12 -13 -16 -19 -14 -13 -13 -13 -12 -12 -12 -11 -11 -11 -11 -11 -8 -6 -6 -6 -6 -5
-1 -1 -1 -2 -2 -4 -13 -21 -22 -23 -23 -20 -19 -17 -16 -16 -17 -20 -17 -13 -13 -12 -12 -13 -12 -12 -11 -11 -11 -11 -11 -11 -11 -10 -8 -6 -6 -6
-4 -7 -13 -20 -23 -23 -20 -20 -17 -14 -15 -14 -16 -18 -19 -20 -18 -14 -13 -12 -12 -12 -11 -11 -11 -12 -13 -13 -12 -11 -11 -11 -10 -10 -10 -9 -7 -6
-23 -23 -23 -22 -19 -21 -21 -18 -16 -16 -15 -14 -18 -17 -15 -13 -12 -12 -12 -12 -12 -11 -10 -10 -10 -12 -13 -13 -12 -11 -10 -10 -10 -10 -10 -10 -10 -7
-25 -23 -21 -22 -23 -23 -24 -23 -22 -20 -19 -21 -14 -12 -12 -12 -12 -11 -11 -11 -10 -10 -10 -10 -10 -9 -10 -11 -11 -11 -11 -10 -10 -10 -10 -10 -10 -10
-24 -23 -22 -23 -23 -24 -25 -24 -23 -21 -20 -14 -12 -12 -12 -11 -11 -10 -11 -11 -10 -10 -9 -9 -9 -9 -10 -9 -11 -11 -13 -12 -12 -11 -10 -10 -9 -9
-23 -22 -22 -22 -23 -24 -23 -22 -19 -15 -12 -12 -12 -11 -11 -11 -11 -11 -11 -10 -10 -10 -10 -10 -9 -10 -10 -9 -9 -11 -11 -11 -12 -12 -10 -10 -10 -9
-22 -23 -23 -23 -23 -22 -20 -15 -12 -12 -12 -11 -11 -11 -11 -11 -11 -11 -11 -10 -10 -10 -11 -11 -9 -10 -10 -9 -9 -10 -10 -11 -12 -11 -10 -10 -9 -9
-23 -23 -23 -23 -22 -18 -14 -12 -12 -11 -11 -11 -11 -11 -11 -10 -10 -10 -10 -10 -10 -10 -10 -10 -9 -9 -10 -9 -9 -10 -10 -9 -10 -10 -9 -9 -9 -9
-24 -23 -23 -22 -21 -17 -13 -12 -12 -11 -11 -10 -10 -10 -10 -10 -10 -10 -10 -10 -9 -10 -10 -10 -9 -9 -10 -9 -9 -10 -11 -10 -9 -9 -8 -9 -9 -9
-24 -23 -23 -23 -22 -15 -12 -12 -11 -11 -10 -10 -9 -9 -9 -9 -9 -9 -9 -9 -9 -9 -9 -9 -9 -10 -9 -9 -10 -10 -10 -9 -9 -9 -8 -8 -8 -9
-23 -23 -24 -23 -20 -14 -12 -12 -11 -10 -9 -9 -9 -9 -8 -8 -8 -9 -9 -9 -9 -9 -9 -10 -9 -10 -10 -10 -10 -10 -9 -10 -9 -9 -9 -9 -8 -9
-25 -24 -24 -22 -19 -13 -12 -11 -10 -10 -9 -9 -9 -8 -9 -9 -9 -9 -9 -9 -9 -10 -10 -10 -10 -10 -10 -9 -9 -11 -11 -9 -9 -8 -8 -9 -9 -9
-25 -25 -24 -21 -17 -13 -12 -11 -10 -10 -9 -9 -9 -9 -9 -9 -9 -9 -9 -9 -9 -9 -9 -10 -10 -10 -9 -9 -9 -9 -10 -10 -9 -8 -8 -8 -8 -8
-22 -22 -21 -20 -18 -14 -12 -12 -11 -10 -10 -9 -9 -9 -9 -9 -9 -9 -9 -9 -9 -9 -9 -10 -10 -10 -10 -9 -9 -9 -9 -10 -10 -10 -9 -8 -8 -8
-23 -22 -20 -20 -18 -17 -15 -13 -12 -11 -11 -10 -9 -9 -9 -9 -10 -9 -9 -9 -9 -9 -10 -9 -10 -10 -9 -9 -9 -8 -8 -9 -9 -10 -11 -10 -9 -8

GFSNE_850_dewp_078.txt.gz
Dewpoint
8 8 7 7 8 8 9 8 8 7 6 6 5 5 4 1 0 1 1 1 1 1 0 0 -0 -1 -1 -2 -3 -3 -3 -4 -4 -4 -3 -3 -2 -2
6 4 7 5 6 5 7 7 7 6 5 5 5 4 2 2 2 2 1 1 0 -0 -1 -0 -1 -2 -4 -6 -8 -7 -8 -5 -4 -4 -3 -2 -2 -2
2 3 5 5 5 4 5 5 6 5 4 4 3 3 2 2 1 0 0 0 -0 -0 -1 -1 -5 -9 -15 -10 -5 -6 -6 -5 -5 -4 -3 -3 -3 -3
3 3 4 4 4 4 4 5 4 3 3 2 2 2 1 1 0 -0 -1 -2 -2 -4 -13 -16 -17 -16 -18 -17 -17 -14 -9 -5 -5 -4 -4 -4 -4 -4
3 3 3 3 4 4 4 3 3 2 1 0 0 0 0 -0 -1 -1 -2 -10 -15 -15 -14 -17 -21 -21 -17 -15 -13 -9 -10 -13 -13 -14 -14 -8 -5 -5
2 2 2 3 3 2 1 -0 -0 0 0 0 0 -0 -1 -2 -10 -14 -14 -15 -15 -15 -20 -20 -15 -14 -13 -13 -13 -13 -13 -13 -13 -13 -12 -8 -6 -5
2 1 1 0 -0 -1 -1 -0 -0 0 -0 -1 -1 -4 -14 -14 -15 -16 -13 -13 -16 -19 -15 -14 -13 -13 -13 -12 -12 -12 -12 -12 -12 -10 -7 -6 -5 -5
-1 -1 -1 -1 -1 -1 -1 -1 -1 -2 -4 -10 -20 -20 -17 -19 -16 -14 -14 -18 -16 -14 -13 -13 -13 -13 -12 -12 -11 -11 -11 -11 -11 -12 -10 -6 -5 -5
-1 -1 -1 -2 -1 -2 -5 -11 -21 -25 -23 -22 -21 -19 -17 -15 -16 -18 -20 -16 -14 -13 -13 -13 -13 -12 -12 -12 -12 -12 -11 -11 -11 -10 -8 -8 -8 -6
-5 -9 -16 -20 -23 -24 -24 -23 -20 -18 -17 -15 -15 -16 -17 -19 -21 -20 -15 -13 -12 -12 -12 -12 -12 -13 -13 -13 -13 -11 -11 -11 -11 -11 -11 -11 -11 -10
-23 -23 -23 -24 -24 -27 -27 -27 -23 -19 -18 -19 -20 -21 -19 -14 -12 -12 -12 -12 -12 -11 -11 -11 -11 -13 -15 -12 -12 -11 -10 -11 -11 -10 -10 -10 -10 -11
-26 -25 -25 -25 -25 -25 -25 -25 -24 -21 -20 -19 -19 -14 -12 -12 -12 -12 -12 -11 -11 -11 -10 -10 -10 -11 -14 -13 -12 -11 -11 -12 -12 -12 -11 -10 -10 -10
-26 -24 -23 -24 -24 -24 -25 -24 -22 -21 -19 -18 -14 -12 -12 -12 -12 -11 -10 -10 -11 -10 -9 -9 -9 -10 -10 -11 -14 -13 -11 -11 -12 -13 -13 -11 -9 -10
-23 -23 -23 -24 -24 -24 -23 -22 -20 -17 -14 -12 -12 -12 -12 -11 -11 -11 -10 -11 -10 -10 -9 -9 -10 -11 -10 -10 -11 -13 -11 -11 -12 -14 -12 -11 -11 -10
-24 -24 -24 -24 -24 -23 -21 -18 -14 -12 -12 -12 -12 -11 -11 -11 -11 -11 -11 -10 -10 -10 -9 -10 -10 -10 -9 -10 -10 -11 -10 -11 -12 -12 -11 -10 -10 -10
-25 -25 -24 -24 -23 -22 -18 -15 -13 -12 -12 -11 -11 -11 -11 -11 -10 -10 -10 -10 -10 -10 -9 -9 -9 -9 -9 -10 -10 -11 -10 -9 -11 -11 -10 -10 -10 -10
-25 -25 -24 -23 -22 -20 -16 -13 -12 -12 -12 -11 -11 -10 -10 -10 -10 -10 -10 -9 -9 -9 -9 -9 -9 -9 -9 -10 -10 -11 -10 -11 -11 -11 -10 -9 -10 -10
-26 -25 -24 -24 -23 -21 -15 -12 -12 -12 -11 -10 -10 -9 -9 -9 -9 -8 -9 -9 -9 -9 -9 -9 -9 -10 -11 -11 -11 -11 -11 -10 -10 -10 -9 -9 -9 -10
-26 -25 -25 -24 -23 -21 -15 -12 -12 -11 -10 -10 -9 -9 -9 -9 -9 -9 -9 -9 -9 -9 -9 -10 -10 -10 -10 -10 -10 -11 -10 -10 -10 -10 -9 -9 -9 -10
-26 -26 -25 -25 -24 -21 -15 -12 -12 -11 -10 -9 -9 -9 -9 -9 -9 -9 -9 -9 -9 -10 -10 -10 -10 -10 -10 -10 -10 -11 -10 -10 -9 -9 -9 -9 -10 -10
-24 -24 -24 -25 -23 -21 -17 -13 -12 -12 -11 -10 -10 -9 -9 -9 -9 -9 -9 -9 -9 -9 -10 -10 -10 -10 -9 -9 -9 -10 -11 -10 -8 -8 -9 -9 -9 -9
-24 -24 -22 -21 -20 -19 -18 -16 -14 -13 -12 -11 -11 -10 -9 -9 -9 -9 -10 -10 -10 -10 -10 -10 -10 -10 -10 -9 -10 -10 -10 -10 -9 -10 -10 -10 -8 -8
-24 -24 -23 -22 -21 -21 -20 -19 -18 -16 -14 -12 -12 -11 -9 -9 -9 -9 -10 -10 -9 -10 -10 -10 -10 -10 -10 -10 -9 -9 -9 -9 -9 -10 -11 -10 -9 -9

GFSNE_850_dewp_081.txt.gz
Dewpoint
8 6 7 7 7 8 8 7 6 6 6 5 6 6 5 5 4 4 2 0 1 -0 -0 -0 -0 -0 -0 -0 -1 -1 -1 -2 -3 -3 -3 -2 -2 -2
3 4 6 7 5 7 5 5 5 6 6 5 5 5 4 3 3 2 1 0 -0 -1 -0 -1 -1 -1 -0 -1 -2 -4 -5 -5 -4 -3 -3 -3 -2 -2
1 2 3 2 4 3 4 4 3 4 5 5 4 4 3 2 1 0 0 -0 0 -0 -1 -1 -1 -0 -2 -9 -9 -11 -11 -6 -4 -4 -4 -3 -3 -3
1 2 2 3 3 3 3 3 3 3 4 4 3 3 2 1 1 0 0 -0 -0 -0 -0 -1 -8 -18 -19 -18 -20 -18 -10 -5 -4 -6 -7 -6 -4 -4
2 2 3 3 3 3 3 3 3 3 2 2 1 1 1 0 -0 -1 -1 -1 -2 -9 -17 -18 -18 -19 -22 -18 -15 -13 -13 -13 -14 -14 -15 -15 -14 -10
2 2 2 2 2 2 1 1 1 1 0 0 1 0 -0 -1 -1 -2 -10 -15 -17 -17 -16 -19 -23 -18 -15 -14 -14 -14 -14 -14 -14 -14 -13 -12 -8 -5
2 1 1 0 -0 -1 -0 -0 -0 -0 -0 0 -0 -1 -2 -9 -14 -15 -16 -16 -15 -18 -23 -19 -15 -14 -14 -14 -13 -13 -13 -13 -12 -12 -11 -7 -5 -5
-1 -1 -0 -1 -1 -1 -1 -1 -1 -1 -1 -2 -6 -16 -18 -16 -17 -16 -14 -15 -22 -17 -15 -14 -13 -13 -13 -12 -12 -12 -12 -12 -12 -12 -12 -11 -8 -7
-1 -1 -1 -2 -3 -4 -7 -13 -19 -23 -24 -23 -22 -22 -20 -19 -17 -16 -17 -21 -16 -13 -13 -13 -13 -13 -12 -12 -12 -13 -13 -13 -12 -12 -11 -11 -11 -11
-17 -20 -23 -24 -24 -24 -23 -22 -22 -21 -20 -20 -19 -18 -18 -19 -18 -18 -19 -14 -13 -13 -12 -13 -12 -12 -13 -13 -14 -13 -12 -11 -11 -11 -11 -11 -11 -11
-26 -27 -26 -26 -25 -27 -27 -27 -25 -22 -19 -20 -20 -21 -22 -21 -9 -10 -10 -11 -12 -12 -12 -11 -12 -13 -14 -16 -13 -12 -11 -10 -11 -12 -12 -12 -12 -11
-29 -28 -26 -26 -25 -24 -26 -26 -26 -25 -23 -22 -21 -20 -15 -13 -12 -12 -12 -11 -11 -11 -11 -11 -11 -11 -14 -14 -12 -12 -12 -11 -11 -11 -11 -12 -12 -12
-27 -26 -25 -25 -25 -26 -26 -26 -25 -25 -23 -22 -19 -15 -12 -12 -12 -12 -11 -11 -11 -11 -11 -9 -9 -10 -11 -12 -12 -12 -12 -12 -12 -11 -12 -13 -12 -11
-26 -26 -25 -25 -25 -25 -25 -24 -24 -22 -18 -15 -13 -13 -12 -12 -12 -11 -11 -11 -11 -10 -10 -9 -9 -10 -10 -10 -10 -11 -11 -11 -12 -12 -13 -13 -12 -10
-26 -27 -27 -26 -25 -25 -24 -23 -20 -16 -13 -12 -12 -12 -12 -11 -11 -11 -11 -11 -11 -10 -10 -9 -9 -9 -9 -9 -9 -10 -10 -12 -12 -11 -12 -12 -11 -11
-27 -26 -26 -26 -25 -24 -22 -19 -17 -14 -12 -12 -12 -11 -11 -11 -11 -11 -10 -10 -10 -10 -10 -10 -9 -9 -9 -9 -9 -9 -10 -10 -11 -12 -11 -11 -12 -11
-29 -27 -26 -25 -25 -23 -22 -19 -15 -13 -12 -12 -12 -11 -11 -10 -10 -9 -9 -9 -9 -9 -9 -9 -9 -9 -9 -9 -10 -10 -11 -11 -11 -11 -10 -10 -11 -11
-27 -26 -26 -26 -25 -25 -23 -19 -15 -13 -12 -12 -11 -10 -10 -9 -9 -9 -9 -9 -9 -9 -9 -9 -9 -10 -10 -10 -11 -11 -11 -11 -10 -10 -10 -9 -10 -11
-27 -27 -27 -27 -26 -25 -24 -21 -15 -12 -12 -11 -11 -10 -9 -9 -9 -9 -9 -9 -9 -9 -9 -9 -10 -9 -10 -10 -11 -11 -10 -10 -10 -10 -10 -10 -9 -11
-26 -25 -25 -26 -26 -26 -24 -21 -17 -13 -12 -12 -11 -10 -9 -9 -9 -9 -9 -9 -9 -10 -10 -10 -10 -9 -10 -10 -10 -11 -11 -10 -10 -10 -10 -10 -10 -11
-26 -26 -25 -24 -23 -23 -23 -21 -19 -16 -14 -12 -12 -11 -10 -9 -9 -9 -9 -9 -9 -10 -10 -10 -10 -10 -10 -10 -10 -11 -11 -11 -10 -9 -9 -9 -10 -9
-26 -26 -25 -25 -24 -23 -22 -21 -20 -19 -18 -16 -14 -13 -12 -11 -10 -9 -9 -9 -10 -10 -10 -10 -10 -10 -10 -10 -10 -10 -11 -11 -10 -10 -9 -9 -9 -9
-26 -25 -25 -24 -24 -24 -23 -22 -22 -21 -20 -19 -18 -17 -14 -12 -11 -10 -9 -9 -10 -10 -10 -10 -10 -10 -10 -10 -10 -10 -11 -10 -9 -10 -11 -10 -10 -10

GFSNE_850_dewp_084.txt.gz
Dewpoint
8 7 7 7 5 6 7 7 7 6 6 5 5 4 4 3 3 4 4 3 2 1 1 0 0 0 -0 -0 0 0 -0 -0 -0 -1 -2 -2 -2 -2
6 6 4 2 4 6 6 5 5 5 5 4 5 3 3 3 3 4 3 2 1 1 -0 -0 -0 -0 -0 -1 -1 -1 -1 -2 -3 -3 -3 -2 -2 -2
4 2 1 1 2 3 3 2 3 3 3 3 2 3 3 3 3 3 2 2 1 0 0 -0 -1 -1 -1 -1 -2 -5 -13 -12 -5 -4 -3 -3 -3 -2
-0 0 1 2 2 3 3 3 3 3 3 3 3 3 2 2 2 2 2 1 0 0 -0 -0 -0 -1 -4 -14 -19 -21 -22 -18 -10 -10 -11 -9 -7 -4
1 2 2 3 3 3 2 2 2 3 2 2 1 1 1 1 1 1 1 0 -0 -0 -2 -11 -16 -17 -17 -20 -22 -18 -15 -14 -14 -14 -14 -14 -14 -12
2 2 2 2 2 2 1 1 1 0 0 0 0 0 0 0 -0 -1 -1 -4 -11 -16 -18 -18 -18 -20 -22 -15 -14 -14 -14 -14 -14 -14 -13 -12 -10 -6
2 1 1 1 1 -0 -0 -0 -0 -0 -0 -0 -0 -1 -1 -2 -6 -11 -15 -16 -17 -18 -19 -22 -20 -18 -14 -14 -14 -14 -13 -13 -13 -12 -12 -12 -8 -7
0 0 0 -0 -1 -1 -1 -1 -1 -2 -2 -2 -4 -6 -13 -16 -17 -17 -19 -19 -20 -23 -22 -16 -14 -14 -13 -13 -13 -13 -12 -12 -13 -13 -13 -12 -12 -10
-1 -1 -2 -4 -6 -11 -16 -22 -23 -24 -24 -23 -23 -22 -21 -19 -18 -18 -19 -22 -23 -18 -15 -15 -13 -13 -13 -13 -12 -13 -14 -14 -14 -13 -12 -12 -11 -11
-21 -25 -25 -24 -24 -24 -25 -25 -25 -24 -24 -23 -22 -21 -21 -21 -21 -20 -21 -21 -16 -14 -13 -13 -13 -13 -12 -13 -14 -15 -14 -12 -12 -11 -11 -11 -12 -13
-27 -27 -27 -27 -28 -28 -28 -28 -27 -25 -23 -24 -23 -22 -21 -19 -20 -16 -13 -13 -13 -12 -12 -12 -12 -13 -13 -14 -15 -13 -12 -12 -13 -12 -11 -11 -11 -12
-29 -28 -28 -28 -27 -27 -27 -28 -28 -27 -26 -24 -23 -22 -20 -15 -13 -13 -12 -12 -12 -11 -11 -11 -12 -12 -12 -13 -12 -13 -12 -11 -12 -11 -12 -11 -11 -12
-28 -27 -27 -28 -28 -27 -28 -28 -27 -27 -24 -23 -20 -17 -15 -13 -13 -12 -12 -11 -11 -11 -11 -10 -11 -11 -11 -11 -13 -13 -11 -11 -10 -11 -12 -11 -12 -12
-28 -28 -28 -29 -28 -28 -28 -28 -27 -24 -21 -17 -14 -13 -13 -12 -12 -12 -12 -11 -11 -11 -11 -10 -10 -10 -10 -10 -11 -12 -11 -10 -9 -12 -12 -11 -12 -12
-29 -30 -29 -29 -28 -27 -26 -26 -24 -20 -17 -14 -13 -13 -12 -12 -12 -11 -11 -11 -11 -11 -10 -10 -10 -10 -9 -10 -10 -10 -9 -10 -10 -12 -11 -12 -12 -12
-29 -29 -28 -28 -27 -27 -25 -23 -21 -18 -15 -13 -13 -13 -12 -12 -11 -11 -11 -10 -10 -10 -9 -9 -9 -9 -9 -9 -9 -9 -9 -10 -11 -12 -11 -12 -12 -12
-30 -28 -27 -27 -27 -27 -25 -24 -21 -17 -14 -13 -13 -13 -12 -11 -10 -10 -9 -9 -9 -9 -9 -9 -9 -9 -9 -9 -9 -10 -10 -11 -11 -11 -11 -11 -11 -11
-29 -28 -27 -28 -28 -27 -26 -25 -24 -20 -15 -13 -13 -12 -11 -10 -10 -9 -9 -9 -9 -9 -9 -9 -9 -9 -10 -10 -10 -10 -11 -11 -11 -11 -10 -10 -11 -11
-28 -28 -27 -27 -27 -27 -27 -26 -25 -22 -17 -13 -13 -12 -11 -10 -10 -9 -9 -9 -9 -9 -9 -9 -10 -9 -9 -10 -10 -10 -11 -11 -10 -11 -11 -10 -10 -11
-28 -28 -28 -27 -26 -25 -25 -25 -24 -23 -20 -17 -14 -13 -12 -11 -11 -10 -9 -9 -9 -9 -9 -10 -10 -10 -10 -9 -10 -11 -11 -11 -11 -11 -11 -10 -10 -11
-28 -28 -27 -27 -27 -26 -25 -24 -23 -21 -20 -19 -19 -18 -16 -13 -12 -11 -10 -9 -9 -9 -9 -10 -10 -10 -10 -10 -10 -11 -11 -11 -11 -10 -10 -9 -10 -11
-28 -28 -27 -27 -27 -26 -25 -24 -24 -23 -22 -21 -21 -20 -19 -18 -16 -13 -12 -11 -10 -10 -10 -10 -10 -10 -10 -10 -10 -10 -11 -11 -11 -11 -10 -10 -9 -9
-29 -28 -27 -27 -26 -26 -25 -24 -23 -22 -22 -21 -21 -20 -20 -19 -19 -17 -14 -13 -12 -10 -10 -10 -10 -10 -10 -10 -10 -11 -11 -11 -11 -11 -11 -11 -10 -10

GFSNE_850_dewp_087.txt.gz
Dewpoint
9 8 7 8 7 7 6 6 5 6 5 5 5 4 3 2 2 3 3 4 3 4 3 3 2 2 2 1 1 1 1 1 1 0 -0 -1 -2 -1
8 8 8 6 6 3 5 5 6 5 5 5 4 3 2 2 2 2 3 3 3 2 1 1 1 1 0 0 0 -0 -0 -0 -1 -1 -3 -2 -2 -1
8 7 4 3 1 2 3 3 3 2 4 4 3 3 2 2 2 3 2 2 2 2 1 0 0 -0 -0 -0 -0 -0 -1 -7 -16 -9 -3 -2 -2 -2
8 5 1 0 1 1 2 2 3 3 3 3 3 2 2 2 2 2 1 1 1 1 1 0 0 -0 -0 -1 -7 -19 -21 -24 -22 -9 -7 -8 -9 -8
0 -0 -0 1 1 2 2 2 2 3 3 2 2 1 1 1 1 1 0 0 0 -0 -0 -1 -7 -15 -18 -19 -21 -26 -22 -16 -15 -14 -14 -14 -14 -14
0 1 1 1 2 2 2 1 1 1 0 0 0 0 1 0 -0 -0 -1 -1 -3 -6 -13 -19 -19 -20 -20 -23 -18 -15 -14 -14 -14 -14 -14 -14 -14 -12
2 2 1 1 1 0 -0 0 -0 -0 -0 -1 -1 -1 -1 -2 -4 -7 -11 -16 -19 -21 -22 -23 -24 -22 -19 -17 -14 -14 -14 -14 -13 -13 -12 -12 -12 -12
2 1 1 0 -0 -1 -1 -1 -2 -4 -6 -6 -7 -8 -12 -15 -18 -20 -21 -22 -22 -24 -25 -21 -17 -15 -14 -14 -14 -14 -13 -13 -12 -13 -14 -13 -13 -12
-0 -1 -1 -2 -4 -11 -21 -26 -26 -25 -25 -23 -23 -22 -21 -21 -21 -21 -22 -23 -24 -22 -20 -16 -14 -13 -13 -13 -13 -13 -13 -13 -14 -14 -13 -13 -12 -12
-5 -14 -20 -25 -27 -28 -29 -29 -28 -28 -26 -25 -25 -24 -24 -24 -25 -24 -23 -22 -19 -15 -14 -14 -13 -13 -12 -13 -14 -14 -15 -15 -14 -13 -14 -13 -12 -12
-27 -28 -28 -30 -30 -30 -30 -30 -29 -27 -26 -27 -27 -27 -25 -26 -22 -17 -14 -13 -13 -13 -12 -12 -13 -13 -13 -13 -15 -15 -13 -13 -13 -12 -13 -13 -13 -14
-29 -29 -30 -29 -30 -30 -30 -29 -28 -27 -27 -26 -25 -24 -23 -20 -15 -14 -13 -13 -12 -12 -11 -11 -12 -12 -12 -12 -14 -12 -13 -12 -11 -11 -11 -11 -12 -13
-29 -28 -28 -29 -31 -29 -29 -28 -28 -28 -26 -24 -22 -19 -16 -14 -14 -13 -13 -13 -12 -12 -11 -11 -11 -11 -11 -11 -12 -11 -12 -12 -11 -10 -9 -10 -12 -12
-28 -27 -27 -30 -30 -29 -28 -28 -28 -28 -23 -20 -17 -15 -14 -13 -13 -12 -12 -12 -12 -12 -11 -11 -11 -10 -10 -10 -11 -12 -11 -10 -10 -10 -11 -12 -12 -12
-28 -29 -31 -30 -29 -28 -27 -28 -27 -24 -21 -17 -14 -14 -13 -13 -12 -12 -12 -11 -11 -11 -10 -10 -10 -10 -9 -9 -9 -9 -10 -10 -10 -10 -11 -12 -12 -11
-29 -29 -29 -28 -27 -27 -27 -26 -24 -22 -20 -17 -15 -14 -14 -13 -12 -12 -11 -11 -10 -9 -9 -9 -9 -9 -9 -9 -9 -9 -9 -10 -10 -11 -12 -12 -11 -11
-29 -28 -27 -27 -27 -27 -27 -26 -25 -23 -21 -18 -15 -14 -13 -13 -12 -11 -11 -10 -10 -9 -9 -9 -9 -9 -9 -9 -9 -10 -10 -10 -11 -11 -11 -11 -12 -11
-29 -28 -27 -27 -28 -28 -27 -27 -26 -26 -24 -20 -16 -14 -13 -12 -12 -11 -11 -10 -10 -9 -9 -9 -9 -9 -10 -10 -10 -10 -10 -10 -11 -11 -11 -11 -12 -12
-29 -27 -28 -28 -28 -27 -27 -26 -26 -25 -24 -22 -19 -16 -14 -13 -12 -12 -11 -10 -10 -9 -9 -9 -9 -10 -10 -10 -10 -10 -10 -10 -11 -11 -11 -11 -11 -12
-28 -28 -29 -29 -28 -27 -27 -26 -25 -24 -24 -22 -21 -19 -18 -17 -15 -14 -12 -11 -10 -10 -10 -10 -9 -10 -10 -10 -10 -10 -10 -10 -10 -11 -11 -11 -11 -11
-29 -29 -29 -28 -28 -27 -26 -26 -25 -25 -24 -23 -23 -21 -21 -20 -20 -19 -17 -14 -12 -11 -11 -10 -10 -10 -10 -10 -10 -11 -10 -10 -10 -10 -11 -11 -11 -11
-30 -29 -28 -28 -28 -27 -26 -26 -25 -25 -23 -23 -22 -21 -21 -20 -21 -20 -20 -19 -16 -13 -12 -12 -11 -10 -10 -10 -10 -10 -11 -11 -11 -11 -11 -11 -10 -9
-30 -30 -29 -28 -28 -27 -26 -25 -25 -24 -23 -22 -21 -21 -21 -21 -20 -20 -20 -20 -19 -18 -16 -14 -11 -10 -10 -10 -10 -11 -11 -11 -11 -11 -12 -11 -11 -11

GFSNE_850_dewp_090.txt.gz
Dewpoint
10 9 9 8 8 8 8 8 7 7 6 5 5 5 4 3 3 2 3 2 3 4 4 4 4 4 3 3 3 2 1 1 1 1 1 0 -0 -1
10 10 8 8 8 8 7 5 5 6 6 5 4 4 3 2 2 2 2 2 3 3 2 2 2 2 2 1 1 1 0 -0 -0 -0 -0 -2 -2 -2
10 9 8 8 7 4 4 2 3 3 4 3 3 3 3 2 2 2 2 2 2 2 2 1 2 1 1 1 0 0 -0 -1 -4 -14 -18 -4 -2 -3
8 8 8 6 3 0 1 2 2 3 3 3 3 3 2 2 2 2 2 2 1 1 1 0 0 1 0 0 -0 -4 -14 -22 -24 -26 -18 -6 -4 -4
8 7 5 1 -0 1 1 2 2 2 3 3 3 2 2 1 1 1 1 0 0 0 -0 -1 -1 -3 -9 -17 -21 -22 -26 -25 -19 -16 -15 -15 -15 -15
1 1 0 1 1 1 2 2 1 1 1 1 1 0 0 0 0 -0 -1 -1 -2 -3 -7 -13 -19 -21 -21 -22 -24 -22 -17 -15 -15 -15 -15 -14 -14 -13
1 1 1 2 1 1 1 0 0 -0 -0 -0 -1 -1 -1 -1 -1 -3 -6 -10 -15 -20 -22 -23 -25 -25 -24 -19 -19 -15 -14 -14 -14 -14 -13 -13 -12 -12
2 2 1 1 1 1 0 -1 -1 -1 -3 -4 -6 -6 -8 -12 -16 -19 -21 -22 -14 -25 -26 -26 -26 -20 -16 -15 -14 -14 -14 -14 -13 -13 -13 -14 -14 -14
2 1 0 -0 -1 -2 -9 -15 -21 -25 -26 -26 -24 -23 -23 -23 -23 -22 -23 -23 -23 -23 -24 -17 -16 -14 -14 -14 -14 -14 -13 -13 -13 -14 -14 -13 -13 -13
-0 -1 -2 -9 -21 -26 -26 -28 -29 -29 -29 -27 -27 -26 -26 -26 -26 -26 -24 -23 -21 -17 -15 -14 -14 -13 -13 -13 -14 -14 -14 -15 -15 -14 -12 -13 -13 -13
-10 -22 -26 -28 -29 -30 -31 -30 -30 -28 -29 -30 -30 -30 -30 -29 -27 -22 -16 -14 -12 -13 -13 -12 -12 -13 -13 -13 -13 -14 -15 -13 -13 -13 -12 -12 -12 -12
-27 -28 -30 -30 -29 -31 -31 -30 -29 -29 -29 -29 -28 -27 -27 -25 -19 -16 -14 -14 -13 -11 -13 -12 -13 -12 -12 -12 -13 -13 -13 -13 -13 -13 -12 -12 -12 -10
-28 -28 -28 -30 -31 -32 -31 -30 -29 -28 -28 -27 -24 -22 -19 -16 -15 -14 -14 -13 -13 -12 -12 -12 -12 -12 -11 -12 -12 -12 -12 -12 -12 -12 -11 -10 -10 -10
-28 -28 -27 -30 -32 -31 -31 -29 -29 -29 -26 -23 -20 -17 -15 -14 -14 -13 -13 -13 -12 -12 -12 -11 -11 -11 -10 -10 -11 -10 -10 -10 -10 -10 -10 -11 -11 -11
-28 -27 -29 -31 -30 -30 -29 -29 -29 -27 -23 -20 -17 -15 -14 -14 -14 -14 -13 -13 -12 -11 -11 -10 -10 -10 -9 -9 -9 -10 -10 -10 -10 -10 -10 -10 -11 -12
-29 -30 -30 -29 -28 -27 -28 -28 -26 -24 -22 -20 -17 -15 -15 -14 -14 -13 -13 -12 -12 -11 -10 -9 -9 -9 -9 -9 -9 -10 -10 -9 -10 -10 -10 -11 -12 -12
-27 -28 -28 -27 -27 -27 -27 -27 -26 -24 -23 -21 -18 -16 -14 -14 -14 -13 -12 -12 -11 -10 -10 -9 -9 -9 -9 -9 -10 -10 -10 -10 -10 -10 -11 -12 -12 -12
-29 -28 -27 -27 -27 -28 -28 -27 -26 -26 -25 -23 -21 -18 -16 -15 -14 -13 -13 -12 -11 -10 -10 -9 -9 -9 -10 -10 -10 -10 -10 -10 -10 -10 -11 -12 -12 -12
-29 -28 -26 -27 -28 -28 -28 -27 -27 -26 -25 -24 -23 -21 -19 -18 -17 -16 -15 -14 -12 -11 -10 -10 -10 -10 -10 -9 -9 -10 -11 -11 -10 -10 -11 -11 -11 -11
-29 -28 -26 -27 -28 -28 -27 -27 -26 -26 -26 -25 -24 -22 -21 -20 -20 -20 -20 -19 -16 -13 -12 -11 -11 -10 -10 -10 -10 -10 -10 -10 -11 -11 -10 -10 -11 -11
-27 -27 -27 -28 -28 -27 -27 -26 -26 -25 -25 -25 -24 -23 -22 -22 -21 -21 -21 -20 -20 -18 -16 -14 -12 -11 -11 -10 -10 -11 -10 -10 -10 -11 -11 -11 -11 -11
-28 -28 -28 -27 -27 -27 -27 -26 -25 -25 -24 -24 -24 -22 -22 -21 -21 -20 -20 -20 -20 -19 -20 -18 -16 -15 -14 -11 -10 -10 -11 -11 -11 -11 -11 -11 -11 -10
-29 -29 -29 -29 -28 -28 -27 -27 -26 -24 -24 -24 -23 -22 -21 -20 -20 -19 -19 -19 -18 -18 -18 -18 -17 -16 -14 -12 -10 -10 -11 -11 -12 -11 -12 -11 -12 -12

GFSNE_850_dewp_093.txt.gz
Dewpoint
11 11 11 10 10 8 8 9 8 8 6 6 5 4 4 4 4 3 2 2 2 2 2 3 3 4 4 3 3 4 3 2 1 1 1 0 0 0
11 10 10 10 10 8 7 8 7 7 6 6 5 5 4 4 3 2 2 2 2 2 2 3 3 3 3 2 2 1 1 1 0 -0 -0 -0 -1 -1
9 10 6 9 9 7 7 6 5 4 6 5 5 4 3 2 2 2 2 2 2 2 2 2 2 1 1 1 1 1 0 -0 -0 -3 -9 -11 -3 -2
8 9 8 9 8 7 5 2 1 2 3 3 3 3 3 2 2 2 2 1 2 1 1 1 1 0 0 1 0 -0 -1 -6 -18 -23 -25 -22 -20 -15
8 8 8 7 7 4 0 1 2 2 2 2 3 3 2 2 1 1 1 1 1 0 0 -0 -1 -1 -2 -4 -12 -21 -25 -26 -28 -25 -19 -16 -15 -15
7 7 7 5 1 0 1 1 2 2 2 2 2 1 1 0 0 0 -0 -1 -1 -2 -3 -6 -12 -20 -25 -26 -27 -27 -26 -20 -17 -15 -15 -15 -15 -15
3 2 1 1 1 1 1 1 1 0 0 0 -0 -0 -0 -1 -1 -2 -2 -4 -10 -18 -23 -25 -27 -28 -29 -25 -22 -20 -17 -15 -15 -15 -14 -14 -13 -13
1 1 1 1 1 1 1 0 -0 -0 -1 -1 -2 -2 -4 -6 -9 -13 -19 -22 -16 -22 -26 -28 -28 -25 -22 -17 -16 -15 -15 -15 -14 -14 -13 -13 -14 -14
2 2 2 1 1 0 -0 -1 -2 -6 -13 -18 -18 -17 -18 -23 -25 -25 -25 -25 -26 -24 -27 -22 -19 -16 -15 -14 -15 -14 -14 -14 -13 -13 -14 -14 -15 -14
2 1 0 -0 -1 -3 -13 -25 -27 -28 -29 -28 -27 -26 -27 -26 -27 -27 -27 -27 -26 -22 -17 -16 -14 -14 -14 -14 -14 -14 -14 -14 -15 -15 -15 -14 -13 -13
0 -1 -1 -7 -20 -27 -29 -30 -31 -31 -30 -30 -29 -29 -30 -31 -30 -27 -22 -19 -15 -14 -15 -14 -13 -14 -13 -13 -13 -13 -14 -14 -14 -13 -13 -13 -13 -12
-3 -13 -25 -28 -28 -30 -32 -31 -30 -29 -29 -28 -29 -30 -29 -27 -25 -21 -17 -16 -15 -13 -13 -13 -13 -13 -13 -12 -12 -14 -13 -13 -13 -13 -12 -13 -12 -13
-25 -26 -27 -29 -29 -31 -33 -30 -29 -29 -29 -28 -27 -26 -24 -21 -18 -16 -16 -15 -15 -14 -13 -13 -13 -13 -12 -12 -13 -12 -12 -12 -12 -12 -11 -11 -10 -10
-26 -26 -26 -27 -30 -33 -32 -31 -29 -30 -27 -25 -24 -22 -19 -17 -16 -15 -15 -14 -14 -13 -12 -12 -12 -12 -11 -11 -12 -11 -10 -10 -10 -10 -10 -10 -10 -10
-26 -26 -27 -28 -31 -31 -31 -29 -29 -28 -25 -23 -21 -19 -17 -16 -15 -15 -15 -14 -14 -13 -12 -11 -11 -11 -10 -10 -10 -10 -10 -10 -10 -10 -10 -10 -10 -11
-27 -27 -28 -30 -30 -29 -28 -29 -28 -26 -24 -23 -21 -20 -17 -16 -16 -15 -15 -14 -14 -13 -12 -11 -10 -10 -10 -10 -10 -10 -10 -10 -10 -10 -10 -10 -10 -12
-27 -28 -28 -29 -28 -28 -27 -27 -26 -25 -25 -24 -23 -21 -18 -17 -16 -16 -15 -14 -13 -12 -11 -11 -10 -10 -10 -10 -10 -10 -10 -10 -11 -11 -10 -10 -11 -12
-26 -27 -27 -27 -27 -27 -27 -27 -26 -26 -26 -25 -24 -22 -20 -19 -18 -17 -16 -15 -14 -13 -12 -11 -10 -10 -10 -11 -11 -10 -10 -10 -11 -11 -11 -10 -11 -11
-27 -27 -28 -27 -26 -27 -28 -28 -27 -26 -26 -26 -25 -24 -23 -22 -21 -20 -19 -18 -17 -15 -14 -13 -12 -11 -10 -11 -11 -11 -11 -10 -10 -10 -10 -11 -11 -11
-28 -27 -28 -27 -26 -27 -27 -27 -27 -26 -25 -25 -25 -24 -24 -23 -22 -22 -21 -21 -21 -20 -19 -18 -15 -13 -11 -10 -10 -13 -11 -10 -10 -10 -10 -10 -11 -11
-28 -27 -27 -27 -26 -27 -27 -27 -27 -26 -25 -25 -24 -24 -23 -23 -22 -21 -21 -20 -19 -19 -20 -21 -19 -12 -11 -12 -13 -15 -14 -11 -10 -10 -11 -11 -11 -11
-30 -28 -28 -27 -27 -27 -27 -27 -27 -27 -26 -24 -24 -24 -23 -23 -22 -21 -20 -20 -19 -19 -19 -19 -19 -18 -17 -16 -16 -15 -14 -12 -11 -11 -11 -11 -10 -10
-27 -28 -29 -29 -28 -28 -27 -27 -27 -27 -26 -25 -23 -23 -23 -23 -22 -20 -20 -19 -18 -17 -16 -15 -14 -15 -15 -14 -13 -12 -12 -11 -11 -12 -12 -11 -11 -11

GFSNE_850_dewp_096.txt.gz
Dewpoint
10 10 10 10 10 9 10 9 9 8 8 7 6 6 5 4 4 4 3 3 2 2 2 2 2 2 3 3 3 3 2 1 2 1 1 1 0 0
10 8 9 6 9 10 10 9 8 8 8 7 6 6 5 5 4 3 3 2 2 2 2 2 2 2 2 2 2 2 2 2 1 1 0 -0 -0 -1
9 10 6 9 9 9 8 9 7 7 6 6 6 5 4 3 2 2 2 2 2 2 2 2 2 1 1 1 1 1 1 1 0 -0 -1 -6 -13 -17
8 8 8 8 8 8 8 8 7 3 2 4 4 4 3 2 2 2 2 2 2 2 2 1 1 1 1 0 0 0 0 -0 -2 -11 -23 -26 -27 -26
7 8 8 8 8 7 6 6 0 0 1 2 3 2 2 2 2 2 1 1 1 0 0 0 0 -1 -1 -2 -4 -9 -17 -24 -27 -28 -29 -25 -18 -16
7 7 6 6 6 6 5 0 1 1 1 2 2 2 2 2 1 0 0 -0 -1 -2 -3 -4 -5 -11 -18 -23 -26 -28 -28 -29 -26 -21 -17 -16 -16 -16
5 5 5 6 5 2 1 1 1 1 1 1 1 0 0 -0 -0 -1 -1 -2 -5 -10 -18 -24 -27 -28 -29 -29 -26 -22 -21 -19 -16 -15 -15 -15 -15 -14
2 2 2 1 1 1 1 1 1 0 -0 -0 -0 -1 -1 -4 -4 -5 -6 -11 -21 -24 -26 -29 -30 -27 -24 -21 -18 -16 -15 -15 -15 -15 -15 -14 -14 -14
1 2 2 1 2 1 1 1 0 -0 -1 -2 -3 -9 -13 -16 -18 -21 -24 -25 -26 -29 -28 -26 -20 -18 -17 -16 -15 -15 -15 -14 -14 -14 -14 -14 -14 -15
2 2 2 1 1 1 -0 -1 -2 -6 -13 -18 -24 -25 -25 -25 -27 -27 -28 -28 -28 -28 -22 -17 -16 -15 -15 -15 -15 -14 -14 -14 -14 -15 -15 -15 -15 -14
1 1 1 0 -1 -1 -8 -22 -27 -26 -27 -29 -28 -29 -29 -30 -30 -30 -30 -26 -23 -18 -16 -15 -16 -15 -14 -14 -14 -14 -14 -14 -15 -14 -14 -14 -14 -14
1 0 -1 -2 -11 -24 -27 -28 -29 -28 -28 -29 -31 -33 -33 -32 -32 -30 -24 -19 -17 -16 -15 -14 -15 -14 -14 -14 -13 -13 -13 -13 -13 -13 -13 -13 -13 -13
-1 -4 -14 -24 -27 -28 -30 -29 -29 -27 -27 -28 -30 -29 -28 -27 -24 -20 -17 -17 -16 -15 -15 -14 -14 -14 -14 -13 -13 -12 -12 -12 -12 -12 -11 -11 -11 -11
-20 -23 -23 -26 -27 -28 -30 -32 -29 -29 -28 -29 -28 -26 -24 -21 -18 -17 -16 -16 -15 -14 -14 -14 -13 -13 -13 -13 -13 -12 -11 -10 -11 -11 -10 -10 -10 -10
-23 -24 -26 -25 -26 -30 -32 -31 -30 -30 -29 -27 -26 -24 -21 -18 -17 -16 -16 -16 -16 -15 -14 -14 -13 -12 -11 -11 -11 -12 -12 -11 -11 -10 -10 -10 -10 -10
-26 -26 -26 -25 -26 -30 -30 -31 -29 -28 -27 -26 -25 -23 -20 -18 -17 -17 -16 -16 -16 -15 -14 -14 -13 -12 -11 -11 -10 -11 -10 -10 -11 -10 -11 -11 -11 -10
-26 -27 -26 -27 -29 -29 -28 -27 -27 -27 -26 -25 -25 -24 -21 -20 -19 -18 -18 -18 -17 -17 -15 -15 -14 -13 -12 -11 -11 -11 -11 -11 -10 -10 -11 -11 -11 -11
-22 -25 -26 -26 -27 -27 -26 -26 -27 -26 -26 -26 -25 -24 -24 -23 -21 -22 -22 -21 -20 -19 -19 -17 -15 -14 -13 -14 -13 -13 -12 -11 -10 -10 -10 -10 -11 -11
-25 -25 -26 -27 -27 -26 -26 -27 -28 -28 -27 -26 -26 -25 -25 -24 -23 -23 -22 -22 -22 -21 -21 -21 -19 -17 -14 -16 -17 -14 -14 -12 -12 -12 -11 -10 -11 -11
-27 -27 -28 -28 -28 -27 -26 -27 -28 -28 -28 -26 -26 -25 -25 -24 -24 -23 -23 -22 -22 -21 -21 -21 -20 -19 -17 -17 -16 -17 -14 -14 -14 -13 -12 -11 -11 -12
-27 -28 -28 -28 -28 -27 -26 -26 -28 -28 -28 -27 -26 -25 -24 -24 -24 -23 -22 -22 -21 -20 -19 -19 -18 -18 -15 -14 -14 -16 -17 -16 -15 -13 -11 -10 -11 -12
-27 -29 -30 -28 -27 -26 -26 -27 -27 -27 -27 -27 -26 -25 -24 -24 -23 -23 -22 -21 -20 -20 -19 -18 -17 -16 -16 -16 -16 -15 -14 -13 -12 -12 -11 -11 -11 -11
-23 -24 -26 -29 -29 -28 -27 -27 -27 -27 -27 -27 -27 -26 -24 -23 -23 -23 -22 -21 -20 -19 -18 -17 -16 -14 -13 -12 -12 -12 -12 -11 -11 -11 -11 -11 -11 -11

GFSNE_850_dewp_099.txt.gz
Dewpoint
4 7 9 9 9 9 9 9 10 9 9 9 7 7 6 6 5 4 3 3 3 2 2 2 1 2 2 2 3 3 2 2 2 1 1 1 1 -0
1 7 8 9 9 9 9 8 9 9 9 8 7 7 6 6 5 4 3 3 3 2 2 2 1 2 2 2 2 2 1 1 2 1 1 -0 -0 -0
1 6 9 7 10 9 9 7 8 8 8 8 7 6 5 4 3 2 2 2 2 2 1 2 2 2 2 1 1 1 1 1 1 0 -0 -1 -3 -12
3 5 7 8 6 7 8 9 8 8 8 6 6 5 4 3 2 2 2 2 2 2 1 1 1 1 1 1 0 0 -0 0 -0 -2 -9 -20 -27 -28
5 7 7 7 7 7 8 7 7 7 5 2 3 3 3 2 2 1 1 1 1 1 1 0 0 0 -0 -1 -2 -3 -8 -15 -22 -26 -28 -29 -26 -20
6 6 6 7 7 7 7 6 6 4 1 1 2 3 2 2 1 1 1 0 -0 -1 -1 -2 -3 -4 -7 -12 -18 -25 -27 -29 -29 -28 -24 -19 -17 -16
5 5 5 5 5 5 5 5 3 1 1 1 2 2 2 2 1 0 -0 -1 -2 -4 -8 -16 -21 -24 -25 -27 -29 -27 -24 -22 -19 -17 -16 -16 -16 -15
3 4 4 4 5 5 4 1 1 1 1 1 1 1 0 0 -1 -1 -2 -4 -8 -18 -21 -25 -28 -27 -26 -24 -21 -18 -17 -16 -15 -15 -15 -15 -15 -14
2 2 2 2 1 1 1 1 1 1 0 -0 -0 -1 -2 -3 -6 -7 -8 -12 -23 -26 -26 -28 -25 -21 -19 -17 -16 -15 -15 -15 -15 -15 -15 -14 -14 -14
2 2 2 2 2 2 1 1 0 0 -0 -1 -2 -5 -12 -13 -18 -20 -23 -25 -27 -28 -28 -23 -18 -15 -15 -15 -15 -15 -14 -14 -14 -15 -15 -15 -15 -15
1 1 1 2 1 1 1 -0 -1 -2 -7 -17 -20 -25 -24 -23 -24 -26 -29 -29 -30 -25 -19 -17 -17 -15 -14 -15 -15 -14 -14 -14 -14 -15 -15 -14 -14 -14
0 0 1 0 -0 -1 -1 -7 -21 -25 -26 -27 -27 -30 -29 -29 -30 -31 -30 -29 -23 -19 -17 -16 -16 -15 -15 -14 -14 -13 -13 -13 -13 -13 -13 -13 -13 -13
-1 -0 -1 -1 -4 -14 -21 -26 -26 -27 -27 -26 -28 -30 -30 -30 -29 -29 -24 -20 -18 -17 -17 -15 -16 -15 -14 -14 -14 -14 -13 -13 -13 -12 -12 -12 -11 -11
-2 -3 -8 -16 -22 -24 -27 -29 -29 -27 -25 -27 -28 -27 -26 -26 -23 -20 -18 -17 -17 -16 -16 -16 -15 -14 -14 -14 -13 -13 -12 -11 -11 -11 -11 -11 -11 -11
-16 -19 -20 -21 -22 -24 -27 -28 -30 -28 -27 -27 -27 -25 -24 -21 -19 -18 -17 -17 -17 -16 -16 -16 -15 -14 -14 -13 -13 -13 -13 -12 -11 -11 -10 -11 -11 -11
-24 -24 -23 -23 -24 -23 -27 -29 -29 -28 -27 -26 -24 -24 -23 -20 -19 -19 -18 -17 -17 -17 -16 -16 -15 -14 -13 -13 -12 -13 -12 -12 -11 -11 -11 -11 -11 -11
-24 -24 -24 -25 -25 -24 -26 -27 -28 -27 -26 -24 -25 -25 -23 -22 -21 -20 -20 -20 -20 -19 -18 -17 -16 -15 -15 -14 -14 -13 -13 -13 -11 -11 -11 -11 -11 -11
-21 -24 -25 -26 -24 -25 -25 -25 -26 -25 -24 -23 -25 -25 -24 -23 -22 -22 -22 -23 -22 -22 -21 -21 -20 -19 -19 -18 -18 -16 -15 -14 -12 -12 -11 -12 -14 -12
-22 -21 -22 -23 -24 -24 -25 -25 -25 -25 -23 -24 -25 -25 -25 -25 -24 -24 -24 -23 -23 -22 -22 -21 -21 -21 -21 -21 -18 -18 -17 -15 -15 -15 -14 -14 -13 -14
-21 -24 -24 -24 -25 -26 -27 -26 -26 -26 -27 -27 -26 -25 -25 -25 -25 -24 -24 -23 -22 -22 -21 -21 -20 -20 -19 -18 -19 -17 -16 -16 -16 -16 -16 -15 -14 -13
-21 -23 -25 -25 -25 -26 -27 -27 -26 -26 -27 -27 -27 -26 -25 -24 -23 -23 -23 -23 -22 -21 -20 -20 -17 -17 -18 -17 -15 -15 -15 -15 -14 -14 -13 -13 -12 -12
-20 -22 -24 -25 -27 -27 -26 -25 -25 -25 -26 -27 -27 -27 -26 -25 -24 -23 -23 -23 -22 -21 -20 -20 -19 -18 -17 -15 -14 -13 -13 -12 -12 -12 -11 -11 -11 -11
-16 -19 -20 -22 -24 -27 -27 -26 -25 -26 -26 -27 -27 -27 -27 -26 -25 -24 -23 -22 -21 -21 -20 -20 -19 -17 -16 -14 -13 -12 -12 -11 -11 -11 -11 -11 -11 -11

GFSNE_850_dewp_102.txt.gz
Dewpoint
7 7 7 6 9 10 10 9 9 10 9 9 8 8 8 7 6 6 5 4 3 4 3 2 3 2 2 2 3 3 4 3 2 1 2 1 1 0
-2 -1 1 3 7 9 8 8 8 9 9 8 8 8 7 6 6 5 5 4 3 3 3 2 2 1 2 2 2 2 1 1 1 1 2 1 -0 -0
-2 -2 -1 5 7 8 8 9 8 8 9 8 8 8 7 6 5 4 3 2 3 2 2 2 2 2 2 2 2 1 1 1 1 1 1 -0 -1 -4
0 0 1 4 6 7 7 8 8 8 7 8 8 7 6 5 4 3 2 2 2 2 1 1 2 2 1 1 1 1 0 -0 -0 0 -1 -5 -17 -27
2 2 4 5 7 6 6 8 7 8 8 7 6 6 5 4 3 2 1 1 1 1 1 1 1 1 0 0 -0 -1 -1 -4 -11 -19 -25 -28 -29 -27
1 5 6 6 7 7 7 7 7 7 6 6 4 3 3 3 2 1 1 1 1 0 0 -0 -1 -1 -1 -2 -4 -10 -18 -25 -28 -29 -26 -25 -20 -17
0 2 4 5 5 6 6 6 6 5 5 4 2 2 2 2 1 1 1 1 -0 -1 -2 -4 -7 -12 -16 -22 -26 -27 -27 -25 -25 -20 -17 -17 -16 -16
1 2 3 4 4 4 4 4 4 5 2 1 2 2 2 1 1 1 1 -0 -2 -4 -6 -15 -21 -24 -26 -26 -26 -22 -20 -19 -17 -16 -16 -16 -16 -16
1 2 2 3 3 3 3 3 3 2 1 1 1 1 1 1 1 -0 -1 -2 -4 -11 -20 -22 -25 -24 -22 -20 -18 -17 -16 -16 -16 -15 -15 -15 -15 -15
1 1 2 2 2 2 2 1 2 2 1 1 0 -0 -1 -2 -3 -4 -5 -8 -12 -20 -24 -24 -22 -18 -17 -16 -16 -16 -15 -15 -15 -15 -15 -15 -15 -15
0 0 1 1 1 1 1 1 1 0 0 -0 -0 -1 -4 -11 -13 -16 -19 -22 -23 -25 -25 -21 -17 -16 -16 -15 -15 -15 -15 -15 -15 -15 -15 -15 -15 -15
0 0 0 0 0 1 0 -1 -1 -2 -5 -12 -16 -22 -24 -25 -24 -25 -25 -27 -27 -27 -19 -16 -16 -16 -15 -16 -15 -14 -14 -14 -14 -14 -14 -14 -13 -13
-0 -0 -0 -0 -1 -1 -1 -3 -10 -18 -22 -24 -25 -24 -27 -27 -28 -30 -29 -27 -23 -20 -17 -16 -16 -16 -15 -15 -15 -14 -14 -14 -13 -13 -13 -13 -12 -12
-1 -1 -1 -2 -3 -8 -17 -21 -23 -23 -23 -23 -25 -26 -27 -28 -27 -27 -24 -19 -18 -17 -17 -16 -16 -16 -15 -15 -14 -14 -13 -13 -12 -12 -12 -12 -12 -12
-3 -5 -8 -13 -18 -20 -22 -24 -25 -26 -23 -22 -24 -25 -24 -24 -23 -21 -18 -17 -17 -17 -17 -17 -16 -16 -16 -15 -15 -14 -12 -12 -12 -12 -12 -11 -11 -11
-11 -19 -19 -19 -20 -20 -21 -23 -25 -25 -24 -23 -23 -23 -22 -22 -20 -18 -17 -17 -17 -17 -17 -18 -17 -17 -16 -16 -16 -15 -13 -13 -12 -11 -12 -12 -11 -11
-17 -21 -23 -23 -22 -22 -22 -22 -26 -26 -26 -24 -23 -23 -22 -21 -19 -19 -18 -18 -18 -19 -20 -20 -19 -19 -19 -18 -18 -17 -15 -15 -13 -13 -13 -13 -12 -11
-17 -22 -23 -24 -24 -23 -22 -22 -24 -25 -25 -23 -24 -23 -23 -22 -20 -20 -20 -20 -21 -22 -22 -22 -22 -22 -21 -20 -20 -20 -18 -17 -14 -14 -14 -15 -16 -15
-17 -19 -19 -20 -23 -24 -23 -23 -24 -23 -23 -23 -22 -22 -23 -22 -20 -21 -22 -23 -23 -23 -22 -22 -21 -21 -21 -20 -19 -19 -18 -17 -16 -15 -15 -16 -17 -16
-16 -16 -21 -21 -21 -22 -23 -24 -25 -24 -23 -24 -23 -23 -23 -23 -22 -24 -24 -23 -23 -23 -22 -21 -21 -20 -19 -18 -18 -18 -17 -16 -15 -16 -15 -15 -14 -14
-12 -18 -20 -20 -21 -22 -23 -25 -26 -25 -24 -24 -25 -25 -25 -24 -24 -24 -23 -23 -22 -22 -21 -20 -19 -18 -18 -18 -17 -17 -15 -14 -14 -13 -13 -12 -12 -12
-10 -16 -18 -20 -22 -22 -23 -24 -24 -25 -26 -25 -25 -26 -26 -25 -25 -24 -23 -23 -23 -22 -21 -20 -19 -19 -19 -18 -17 -16 -15 -13 -12 -12 -11 -11 -11 -11
-4 -7 -13 -15 -18 -20 -21 -23 -25 -25 -24 -24 -24 -25 -26 -26 -26 -26 -24 -23 -23 -22 -22 -20 -20 -19 -18 -18 -17 -16 -15 -14 -13 -12 -11 -11 -11 -11

GFSNE_850_dewp_105.txt.gz
Dewpoint
6 7 7 7 6 7 8 8 9 10 10 10 9 9 8 8 8 7 6 5 4 5 5 3 3 3 2 2 4 5 5 6 4 2 1 1 1 1
3 1 0 0 0 5 10 10 10 10 9 9 9 9 8 8 8 6 5 5 4 4 4 3 2 2 2 2 2 2 2 2 1 1 1 1 1 1
-2 -1 -0 -0 -1 1 9 8 9 10 9 9 8 8 8 7 7 6 5 4 3 2 3 3 2 2 1 2 1 1 1 1 1 1 1 1 1 -0
0 0 1 2 2 7 7 7 8 8 8 8 8 8 8 7 6 5 4 3 2 1 1 1 2 2 2 2 2 2 1 0 0 0 -0 0 -1 -9
-0 0 1 2 4 6 7 7 7 7 7 7 7 7 7 6 5 4 3 1 1 1 0 1 1 1 1 1 1 1 0 -1 -1 -2 -7 -15 -25 -29
-0 -0 0 2 4 6 6 6 6 7 7 6 6 6 5 5 4 3 2 1 1 0 1 1 0 0 0 -0 -0 -1 -2 -5 -12 -22 -28 -30 -29 -24
-0 0 0 1 3 4 5 6 6 6 6 6 5 5 5 3 2 2 2 1 0 0 0 -1 -2 -2 -4 -5 -7 -12 -20 -27 -28 -27 -24 -20 -18 -17
-1 -0 1 1 3 3 3 4 4 5 4 4 4 4 1 2 2 2 1 1 0 -0 -1 -3 -5 -12 -19 -24 -27 -29 -27 -26 -23 -20 -17 -17 -17 -17
-1 -0 1 1 2 2 2 3 3 3 3 3 3 2 2 2 2 1 1 1 0 -1 -7 -6 -15 -22 -25 -26 -26 -23 -20 -18 -16 -16 -16 -16 -16 -16
-1 -0 0 1 1 1 1 2 2 1 1 2 2 1 1 1 1 1 0 -0 -1 -3 -8 -22 -24 -25 -22 -21 -19 -17 -16 -16 -15 -15 -15 -15 -15 -15
-1 0 0 -0 -0 -0 -0 1 0 0 1 1 1 0 -0 -1 -1 -2 -3 -4 -6 -10 -17 -23 -26 -21 -18 -16 -16 -16 -16 -15 -15 -15 -15 -15 -15 -15
-1 -0 0 -0 -0 -0 -0 -0 -0 -0 -0 -0 -0 -1 -1 -2 -6 -10 -11 -13 -16 -21 -25 -24 -20 -17 -16 -16 -16 -15 -15 -15 -15 -15 -15 -15 -14 -14
-1 -1 -1 -1 -1 -1 -1 -1 -2 -4 -9 -14 -19 -19 -17 -17 -17 -18 -21 -22 -23 -26 -22 -20 -17 -16 -16 -16 -16 -15 -14 -14 -15 -15 -14 -14 -14 -13
-1 -1 -2 -2 -2 -2 -2 -7 -10 -13 -17 -19 -21 -23 -23 -21 -24 -25 -26 -26 -26 -24 -18 -16 -16 -16 -15 -16 -16 -15 -15 -15 -15 -14 -13 -13 -13 -13
-2 -2 -2 -3 -5 -8 -13 -18 -20 -22 -22 -21 -21 -22 -23 -23 -24 -25 -24 -23 -19 -17 -17 -17 -16 -16 -16 -16 -16 -15 -15 -14 -14 -13 -13 -13 -12 -12
-2 -3 -8 -15 -17 -17 -17 -18 -21 -23 -21 -20 -18 -19 -21 -23 -22 -21 -19 -18 -16 -16 -17 -17 -17 -17 -18 -17 -17 -16 -15 -13 -14 -13 -13 -13 -12 -12
-3 -7 -16 -20 -22 -21 -20 -19 -20 -20 -22 -20 -20 -20 -21 -21 -20 -19 -17 -17 -17 -18 -18 -19 -19 -20 -19 -19 -19 -18 -17 -16 -15 -13 -14 -14 -13 -13
-3 -9 -16 -18 -21 -22 -21 -19 -19 -20 -22 -23 -21 -21 -21 -20 -19 -18 -18 -17 -18 -19 -21 -21 -22 -21 -20 -19 -19 -20 -20 -20 -18 -17 -16 -16 -16 -15
-4 -8 -13 -10 -18 -20 -22 -21 -21 -21 -20 -20 -20 -21 -21 -21 -19 -19 -18 -18 -20 -22 -22 -22 -22 -21 -21 -20 -19 -18 -19 -19 -19 -18 -17 -17 -17 -17
-4 -8 -14 -13 -17 -18 -18 -19 -21 -21 -21 -20 -20 -21 -20 -19 -19 -20 -20 -20 -22 -22 -23 -23 -21 -21 -19 -18 -18 -18 -18 -17 -17 -16 -16 -16 -15 -15
-4 -4 -7 -12 -16 -16 -18 -19 -20 -21 -22 -22 -22 -22 -21 -19 -20 -21 -21 -22 -23 -22 -22 -22 -21 -19 -18 -17 -14 -15 -16 -16 -15 -15 -14 -13 -13 -13
-3 -4 -4 -6 -15 -16 -17 -19 -20 -20 -21 -23 -24 -23 -23 -22 -22 -23 -23 -22 -22 -22 -22 -21 -20 -19 -18 -17 -16 -17 -17 -17 -15 -14 -13 -12 -12 -12
-3 -3 -3 -3 -6 -9 -13 -16 -18 -20 -22 -23 -23 -23 -23 -23 -24 -25 -25 -24 -23 -22 -22 -22 -21 -20 -19 -18 -18 -17 -17 -17 -16 -15 -15 -12 -12 -12

GFSNE_850_dewp_108.txt.gz
Dewpoint
6 7 7 7 7 7 9 9 9 9 9 9 9 9 9 9 8 8 8 7 5 5 5 4 3 3 4 2 4 7 7 7 6 5 3 1 1 1
6 0 -0 -0 -0 0 1 3 7 8 9 8 8 8 8 9 8 8 7 6 5 5 4 4 3 2 3 2 1 4 4 4 3 2 1 1 1 1
-1 -1 -1 0 1 1 1 2 4 8 8 9 8 8 8 8 7 7 7 6 5 4 2 3 3 3 2 2 2 1 2 1 1 1 1 1 1 1
-0 -1 -0 -0 1 2 2 7 7 7 7 7 7 7 8 7 7 6 6 5 5 3 2 1 2 2 2 2 2 2 1 1 1 1 1 1 0 -0
-1 -0 -0 -0 -0 0 2 5 6 7 7 7 7 7 7 7 6 6 5 4 3 2 1 1 1 1 2 2 2 2 1 1 0 -0 -1 -1 -2 -12
-0 -1 -1 -0 0 1 3 4 6 6 6 6 6 6 6 6 6 5 4 3 2 1 1 0 0 1 1 1 1 1 0 -0 -2 -3 -6 -14 -23 -29
-0 -0 -0 -0 -0 1 2 3 4 5 5 5 5 5 5 5 5 5 3 2 2 1 0 0 -0 -0 -1 -1 -1 -1 -2 -4 -10 -20 -28 -30 -31 -26
0 0 -1 -1 -0 1 2 2 3 3 4 4 4 4 4 4 3 3 2 2 1 1 1 0 -1 -2 -4 -7 -10 -14 -20 -25 -29 -28 -27 -21 -18 -17
0 -0 -1 -2 -2 0 1 2 1 2 2 3 3 3 3 3 2 2 2 1 1 0 -1 -1 -2 -5 -12 -20 -24 -26 -26 -25 -22 -20 -18 -17 -17 -17
0 -0 -1 -2 -1 0 -0 -0 0 1 1 1 2 2 2 1 1 1 1 0 0 -0 -1 -6 -8 -12 -21 -24 -26 -24 -21 -19 -17 -16 -16 -16 -16 -16
-0 -1 -1 -1 0 -0 -1 -1 -0 -0 -0 0 0 0 1 1 0 0 -0 -0 -0 -1 -2 -5 -17 -23 -23 -21 -20 -18 -17 -16 -16 -16 -16 -16 -15 -15
-1 -1 -1 -1 -1 -0 -1 -1 -0 -1 -0 -0 -0 -0 -0 0 -1 -1 -1 -1 -2 -2 -6 -10 -20 -23 -20 -19 -16 -16 -16 -16 -16 -16 -16 -16 -15 -15
-1 -1 -1 -1 -1 -1 -1 -1 -1 -2 -3 -4 -6 -7 -5 -3 -3 -4 -6 -7 -10 -10 -22 -21 -24 -22 -17 -16 -17 -16 -15 -15 -15 -15 -15 -15 -15 -15
-1 -1 -2 -2 -1 -1 -2 -2 -3 -5 -6 -9 -14 -18 -19 -18 -17 -16 -16 -18 -19 -20 -22 -17 -21 -17 -16 -16 -16 -17 -16 -15 -15 -15 -15 -15 -15 -14
-1 -2 -2 -2 -2 -3 -4 -7 -13 -17 -19 -20 -19 -19 -19 -20 -21 -21 -23 -24 -24 -24 -24 -20 -16 -16 -16 -16 -16 -16 -16 -16 -15 -15 -15 -14 -14 -14
-1 -1 -2 -3 -9 -13 -13 -16 -17 -18 -20 -21 -20 -16 -18 -20 -22 -21 -22 -22 -19 -18 -17 -17 -16 -16 -16 -16 -17 -16 -16 -15 -16 -16 -16 -15 -15 -14
-2 -2 -2 -5 -13 -19 -17 -18 -18 -17 -18 -19 -18 -18 -17 -18 -20 -20 -20 -18 -16 -16 -16 -16 -17 -17 -18 -18 -18 -18 -17 -17 -17 -17 -16 -15 -15 -14
-2 -2 -3 -5 -13 -17 -18 -20 -19 -18 -19 -19 -18 -19 -18 -19 -19 -18 -18 -17 -16 -16 -17 -18 -19 -19 -19 -18 -18 -19 -19 -20 -20 -20 -19 -18 -17 -16
-3 -3 -3 -5 -13 -10 -13 -18 -20 -21 -19 -18 -20 -19 -19 -18 -17 -18 -17 -17 -17 -17 -18 -20 -21 -21 -21 -21 -18 -16 -17 -18 -19 -19 -19 -19 -18 -17
-3 -3 -3 -4 -11 -13 -14 -16 -18 -19 -20 -21 -21 -19 -19 -18 -18 -19 -19 -17 -17 -17 -19 -21 -21 -21 -21 -19 -17 -15 -16 -17 -18 -18 -17 -17 -16 -16
-3 -3 -4 -4 -4 -9 -12 -15 -15 -16 -17 -19 -21 -22 -21 -20 -20 -19 -18 -19 -19 -18 -19 -20 -20 -19 -20 -19 -15 -14 -15 -15 -16 -16 -16 -16 -15 -15
-3 -3 -3 -3 -4 -4 -7 -14 -15 -17 -19 -19 -20 -21 -23 -22 -22 -21 -20 -19 -20 -22 -22 -21 -20 -19 -20 -20 -18 -16 -16 -16 -16 -16 -16 -16 -15 -14
-3 -3 -3 -3 -3 -3 -4 -7 -8 -11 -15 -19 -20 -21 -21 -22 -22 -23 -23 -23 -22 -22 -22 -21 -20 -20 -20 -21 -20 -19 -16 -17 -17 -17 -16 -16 -15 -15

GFSNE_850_dewp_111.txt.gz
Dewpoint
5 5 6 7 4 5 6 8 8 9 8 8 8 7 7 8 9 8 8 7 7 6 5 5 4 4 3 4 2 6 7 7 7 7 6 4 2 2
7 5 -0 -1 -1 -0 0 0 2 6 8 7 7 7 8 8 7 7 7 7 6 6 5 5 5 4 4 2 2 4 6 6 6 6 4 2 1 1
-1 -1 -0 -0 -1 -0 0 1 2 4 7 7 8 7 8 7 7 8 7 6 6 6 5 5 3 4 3 2 2 1 2 4 3 2 1 1 1 0
-1 -1 -1 -1 -1 -1 -0 -0 1 6 6 7 7 7 7 7 6 7 6 6 5 5 5 4 2 2 2 2 3 2 2 1 1 1 1 1 0 1
-1 -0 -1 -1 -1 -1 -0 0 1 4 6 6 6 6 7 7 7 7 6 5 5 5 4 3 1 1 2 2 2 2 2 2 1 1 1 -0 -0 -0
-0 -0 -1 -0 -0 -0 -1 -0 1 2 5 5 5 6 6 6 6 6 5 5 4 3 3 2 1 0 0 1 1 2 2 1 1 0 -1 -1 -2 -7
-0 -0 0 0 -0 -0 -1 -0 0 2 4 4 5 5 5 5 5 5 5 4 3 2 2 1 1 0 0 0 1 1 1 0 -1 -2 -4 -8 -17 -25
1 1 0 0 -0 -1 -2 -2 1 2 2 3 4 4 4 4 4 4 4 3 2 2 1 1 0 -0 -0 -1 -2 -2 -2 -3 -4 -9 -19 -28 -26 -26
1 0 0 -0 -1 -2 -2 -1 0 1 1 1 2 2 3 3 3 3 2 2 2 2 1 0 0 -0 -2 -4 -7 -12 -16 -20 -24 -27 -27 -24 -18 -17
0 -0 -0 -1 -1 -2 -1 -1 -1 -1 -0 -0 0 1 2 2 2 1 1 1 1 1 0 -0 -1 -1 -3 -8 -16 -21 -24 -24 -21 -21 -19 -18 -17 -16
-0 -1 -1 -1 -1 -1 -0 -1 -1 -1 -0 -0 -0 -0 0 1 1 1 1 0 0 -0 -0 -1 -2 -7 -11 -16 -21 -22 -23 -19 -17 -16 -16 -16 -16 -16
-1 -1 -1 -1 -1 -1 -1 -1 -1 -1 -0 -0 -0 -0 0 0 0 0 -0 -0 -0 -1 -1 -1 -2 -12 -20 -22 -22 -19 -17 -16 -16 -16 -16 -16 -16 -16
-0 -1 -1 -1 -1 -1 -1 -1 -1 -1 -1 -2 -3 -4 -3 -2 -1 -1 -1 -1 -1 -1 -5 -8 -6 -13 -22 -17 -20 -17 -15 -15 -15 -15 -16 -15 -15 -16
-1 -1 -1 -2 -2 -2 -2 -2 -2 -3 -4 -5 -6 -9 -15 -17 -14 -9 -6 -5 -5 -6 -7 -10 -20 -21 -23 -20 -16 -16 -16 -15 -15 -15 -15 -15 -16 -16
-1 -1 -1 -1 -2 -3 -4 -4 -7 -10 -14 -17 -18 -18 -18 -18 -19 -18 -18 -16 -15 -17 -17 -17 -18 -19 -16 -16 -16 -16 -17 -16 -16 -15 -15 -15 -15 -15
-0 -1 -1 -2 -2 -6 -12 -11 -13 -16 -17 -19 -18 -19 -18 -18 -20 -21 -22 -22 -21 -22 -22 -22 -20 -15 -15 -16 -16 -17 -17 -16 -17 -17 -16 -16 -15 -15
-1 -1 -2 -2 -2 -6 -13 -18 -15 -18 -18 -18 -18 -18 -17 -16 -18 -20 -20 -19 -19 -17 -16 -16 -16 -16 -17 -17 -17 -18 -17 -17 -17 -17 -17 -16 -16 -16
-1 -2 -3 -3 -3 -5 -12 -16 -17 -20 -20 -19 -18 -18 -19 -17 -16 -17 -18 -18 -17 -15 -16 -16 -16 -17 -18 -18 -19 -18 -18 -17 -17 -18 -18 -18 -18 -17
-2 -3 -3 -3 -3 -5 -11 -11 -14 -17 -19 -21 -19 -19 -19 -19 -18 -19 -18 -17 -16 -15 -15 -16 -17 -18 -19 -19 -18 -15 -14 -15 -16 -17 -18 -18 -18 -17
-3 -3 -3 -3 -3 -4 -9 -11 -13 -16 -17 -19 -20 -21 -19 -20 -19 -20 -20 -19 -18 -16 -16 -17 -18 -20 -20 -20 -19 -16 -15 -14 -15 -16 -17 -16 -16 -16
-3 -3 -3 -3 -3 -4 -4 -8 -11 -14 -15 -16 -18 -20 -21 -21 -20 -20 -20 -20 -19 -18 -18 -18 -19 -18 -19 -20 -18 -18 -16 -14 -14 -15 -15 -15 -14 -15
-2 -3 -3 -3 -4 -4 -4 -4 -5 -11 -15 -16 -17 -17 -18 -19 -21 -22 -21 -20 -18 -19 -20 -19 -18 -18 -19 -19 -19 -19 -18 -16 -14 -14 -14 -14 -14 -14
-2 -2 -3 -3 -4 -3 -3 -3 -4 -7 -11 -10 -11 -14 -17 -20 -20 -21 -22 -22 -21 -20 -19 -19 -19 -19 -19 -19 -19 -19 -19 -19 -17 -16 -15 -15 -14 -14

GFSNE_850_dewp_114.txt.gz
Dewpoint
9 9 7 5 7 4 4 6 8 8 7 7 7 5 7 8 8 8 6 7 7 7 7 6 5 5 4 4 3 1 -0 6 8 7 7 7 5 3
7 6 7 2 -1 -1 -1 0 1 4 7 6 6 5 7 6 7 8 7 7 7 7 6 6 6 5 4 4 3 4 7 7 7 7 6 6 5 3
4 -0 -1 -1 -1 -1 -1 -0 1 2 5 5 6 5 7 7 7 7 7 7 7 7 6 6 5 5 3 3 3 2 2 5 5 5 4 3 3 1
-0 -1 -1 -1 -1 -1 -1 -1 -0 0 1 6 5 6 5 6 7 7 7 7 6 5 6 5 5 4 2 3 3 3 3 2 3 3 2 2 1 1
-1 -1 -1 -1 -1 -1 -1 -1 -1 -0 2 2 4 5 6 5 6 7 6 6 6 5 4 4 4 3 1 1 2 2 3 2 2 1 1 1 1 -0
-1 -1 -0 -1 -0 -0 -0 -0 -0 -0 0 2 5 5 5 5 5 6 6 6 5 4 3 3 3 2 1 1 1 2 2 2 2 1 1 0 -1 -1
0 0 -0 0 0 0 -0 -0 -1 -1 -0 1 3 4 4 5 5 5 5 4 3 3 3 3 2 1 1 1 0 1 1 2 1 1 0 -1 -3 -4
1 1 1 1 0 -0 -0 -1 -2 -3 -2 1 2 2 3 4 4 4 4 3 3 3 2 2 1 1 1 0 0 0 0 0 0 -1 -1 -3 -8 -17
1 1 0 -0 -0 -0 -1 -1 -2 -2 -0 0 1 1 2 2 2 3 3 3 3 3 2 2 1 1 0 -0 -1 -2 -3 -5 -5 -5 -8 -17 -25 -22
0 0 -0 -1 -1 -1 -1 -1 -1 -1 -1 -0 0 0 0 1 1 2 2 1 1 1 1 1 1 0 -0 -1 -3 -5 -10 -17 -21 -22 -24 -25 -22 -17
0 -0 -1 -1 -1 -1 -1 -1 -1 -1 -1 -1 -0 -0 -0 0 1 1 1 1 1 1 1 0 -0 -0 -1 -2 -4 -8 -18 -22 -23 -21 -19 -19 -17 -16
-0 -0 -0 -1 -1 -1 -1 -1 -1 -1 -1 -1 -1 -0 -0 0 0 0 0 0 0 0 0 -1 -0 -1 -5 -8 -12 -17 -21 -22 -19 -17 -16 -15 -16 -15
-1 -1 -1 -1 -1 -2 -1 -1 -1 -1 -1 -1 -2 -2 -3 -2 -1 -0 -0 -0 -0 -1 -1 -2 -1 -1 -6 -19 -19 -20 -19 -18 -16 -16 -15 -15 -15 -15
-1 -1 -1 -1 -1 -2 -2 -2 -2 -2 -2 -5 -4 -5 -6 -10 -13 -9 -3 -1 -1 -1 -1 -2 -5 -10 -7 -14 -18 -17 -18 -16 -15 -14 -14 -15 -15 -15
-1 -1 -0 -1 -1 -2 -3 -4 -4 -5 -8 -12 -14 -16 -16 -16 -17 -18 -17 -13 -8 -5 -5 -5 -7 -15 -19 -19 -19 -17 -16 -16 -15 -15 -15 -14 -14 -15
-1 -1 -1 -1 -1 -2 -4 -8 -11 -10 -13 -16 -17 -19 -19 -19 -19 -20 -20 -19 -18 -16 -16 -16 -16 -18 -17 -15 -15 -15 -16 -16 -17 -16 -15 -15 -15 -15
-1 -1 -1 -1 -2 -3 -3 -6 -14 -16 -14 -18 -17 -18 -18 -18 -18 -19 -19 -20 -19 -19 -19 -19 -20 -20 -17 -15 -15 -16 -16 -17 -17 -17 -16 -16 -16 -17
-2 -2 -2 -2 -3 -3 -3 -5 -11 -16 -17 -20 -19 -18 -18 -18 -18 -17 -18 -18 -18 -17 -16 -15 -15 -15 -15 -16 -17 -17 -17 -18 -17 -16 -16 -16 -17 -17
-2 -2 -2 -3 -3 -3 -4 -4 -11 -10 -14 -18 -19 -20 -18 -18 -18 -18 -18 -18 -18 -17 -16 -15 -15 -15 -16 -17 -18 -18 -18 -17 -16 -13 -14 -15 -15 -16
-1 -2 -2 -3 -3 -3 -4 -4 -8 -10 -13 -15 -17 -19 -19 -18 -18 -19 -18 -18 -18 -17 -16 -16 -16 -16 -18 -18 -19 -19 -17 -15 -14 -14 -14 -14 -14 -14
-1 -1 -2 -3 -3 -3 -4 -4 -5 -8 -10 -13 -14 -16 -18 -18 -19 -19 -19 -18 -18 -18 -17 -18 -18 -15 -16 -19 -19 -19 -18 -16 -14 -14 -14 -14 -14 -13
-1 -1 -2 -2 -3 -3 -4 -4 -4 -4 -6 -10 -14 -15 -16 -16 -17 -18 -20 -20 -19 -18 -19 -18 -17 -16 -16 -17 -16 -18 -18 -18 -16 -15 -14 -13 -14 -14
-2 -2 -2 -2 -3 -3 -3 -4 -4 -4 -4 -4 -8 -12 -12 -12 -15 -17 -17 -19 -21 -20 -19 -18 -16 -16 -17 -19 -10 -9 -19 -19 -17 -16 -17 -17 -15 -15

GFSNE_850_dewp_117.txt.gz
Dewpoint
10 9 9 9 8 6 7 6 8 8 7 6 8 7 6 4 7 7 8 8 7 8 7 7 7 7 6 5 4 2 0 -2 1 4 7 7 7 5
7 7 8 6 6 4 -1 -0 0 3 7 3 5 4 3 5 4 7 7 7 7 7 7 7 7 6 6 5 3 2 2 6 7 7 7 7 5 5
7 7 7 4 -1 -1 -1 -1 0 3 6 6 3 2 2 5 5 6 6 7 6 6 6 6 6 6 5 5 3 2 3 5 6 6 5 5 5 4
4 1 -1 -1 -1 -1 -1 -0 -1 0 2 3 3 2 4 5 5 5 6 6 6 6 6 5 5 5 5 4 2 2 3 2 3 4 4 4 3 3
-1 -1 -1 -1 -1 -1 -1 -1 -1 -0 0 1 2 2 3 4 5 4 5 6 6 5 5 5 5 4 4 3 2 1 2 3 3 2 3 3 2 2
-1 -1 -1 -0 -0 -1 -0 -0 -0 -0 -0 -0 1 1 2 4 4 4 4 5 5 5 4 4 4 4 3 2 1 1 2 2 2 2 2 2 2 0
-1 -0 -0 -0 -0 0 0 0 0 -0 -1 -2 -1 2 2 2 3 4 4 5 4 4 3 3 3 3 2 2 1 1 1 2 2 2 1 1 0 -1
-0 0 0 0 1 1 -0 -0 -0 -1 -2 -2 -2 -0 1 1 2 3 3 4 3 3 3 3 3 2 2 1 1 0 1 1 1 1 1 0 -1 -4
1 1 1 1 -0 -0 -0 -1 -1 -1 -2 -2 -1 -0 0 0 1 2 2 2 3 3 2 2 2 2 1 1 0 0 -0 0 -0 0 -0 -1 -4 -9
1 0 0 0 -0 -1 -1 -1 -1 -1 -1 -1 -1 -1 -1 -0 0 0 1 1 2 2 2 1 1 1 1 0 0 -0 -2 -4 -6 -7 -7 -10 -14 -22
-0 -0 -0 -0 -1 -1 -1 -1 -1 -1 -1 -1 -1 -1 -0 -0 -0 0 0 1 1 1 1 1 1 0 0 -0 -1 -1 -3 -7 -14 -20 -22 -22 -22 -21
-1 -1 -1 -1 -1 -1 -1 -1 -1 -1 -1 -1 -1 -1 -1 -1 -0 -0 0 0 0 0 0 0 0 -0 -1 -1 -1 -4 -5 -10 -21 -22 -21 -18 -18 -16
-1 -1 -1 -1 -1 -1 -1 -2 -2 -1 -1 -1 -1 -2 -2 -3 -3 -1 -1 -0 -0 -1 -1 -0 -0 -1 -2 -4 -15 -10 -12 -18 -19 -19 -17 -15 -15 -15
-1 -1 -1 -1 -1 -1 -1 -2 -2 -2 -2 -2 -3 -5 -5 -5 -6 -9 -9 -3 -1 -1 -1 -1 -1 -3 -5 -2 -6 -15 -18 -19 -17 -15 -15 -15 -15 -15
-1 -1 -1 -1 -1 -1 -1 -1 -2 -4 -4 -6 -9 -13 -14 -15 -15 -14 -16 -16 -11 -4 -2 -2 -2 -2 -5 -15 -10 -16 -16 -20 -17 -15 -15 -14 -15 -15
-1 -1 -1 -2 -1 -1 -1 -1 -3 -6 -10 -10 -12 -16 -18 -19 -20 -20 -19 -19 -18 -16 -12 -9 -8 -7 -8 -15 -18 -19 -17 -16 -16 -15 -15 -14 -15 -15
-0 -1 -2 -2 -1 -2 -2 -2 -3 -5 -12 -15 -14 -18 -19 -19 -19 -18 -18 -19 -19 -21 -19 -18 -17 -16 -16 -17 -16 -15 -15 -15 -16 -16 -16 -16 -16 -16
0 0 -2 -2 -2 -2 -2 -3 -3 -4 -9 -15 -16 -19 -21 -20 -18 -18 -17 -17 -18 -18 -18 -18 -18 -18 -18 -18 -16 -14 -15 -16 -16 -17 -17 -16 -16 -16
0 -0 -1 -2 -2 -2 -3 -3 -3 -4 -9 -11 -12 -17 -20 -20 -18 -17 -18 -17 -17 -17 -18 -18 -16 -15 -15 -15 -16 -17 -17 -17 -17 -16 -16 -13 -13 -15
-0 -0 -1 -2 -2 -3 -3 -3 -4 -4 -6 -9 -11 -15 -17 -19 -19 -19 -18 -19 -18 -17 -17 -16 -16 -16 -15 -16 -17 -18 -19 -18 -17 -15 -11 -9 -14 -14
-0 -1 -1 -1 -2 -3 -3 -3 -4 -4 -4 -7 -10 -12 -14 -15 -18 -19 -19 -19 -18 -17 -17 -18 -18 -15 -14 -15 -17 -19 -19 -19 -17 -14 -14 -14 -14 -13
-1 -1 -2 -2 -2 -2 -3 -3 -3 -4 -4 -4 -5 -8 -11 -13 -15 -15 -16 -18 -20 -19 -18 -17 -18 -17 -16 -16 -17 -17 -18 -17 -18 -17 -15 -14 -14 -13
-2 -2 -2 -2 -2 -2 -3 -3 -3 -3 -4 -4 -4 -4 -5 -10 -12 -13 -14 -16 -17 -18 -19 -19 -19 -17 -16 -17 -16 -17 -15 -12 -8 -10 -17 -16 -14 -14

GFSNE_850_dewp_120.txt.gz
Dewpoint
9 10 11 10 10 10 8 6 7 5 4 5 5 6 6 6 3 3 5 6 7 7 7 7 7 7 7 7 6 5 4 -0 -2 -2 -2 5 7 7
9 10 9 10 9 7 6 2 -1 1 3 2 3 3 4 4 2 4 5 6 6 6 6 6 5 6 6 6 5 5 2 0 4 5 1 6 7 6
9 8 7 7 7 5 -1 -1 -1 0 2 1 2 2 3 2 3 4 5 5 6 6 6 6 6 6 6 6 5 4 0 4 7 7 7 7 6 6
7 7 7 6 1 -1 -1 -1 -1 -0 0 0 0 0 0 0 1 3 4 4 5 5 5 5 5 5 5 5 5 4 2 1 5 6 5 5 5 5
7 7 3 -0 -1 -1 -1 -1 -1 -0 -0 0 1 1 0 -0 0 1 5 4 4 5 5 5 5 5 5 4 4 3 2 2 2 4 4 4 4 3
4 1 -0 -1 -1 -1 -1 -1 -0 0 0 0 0 -0 -1 -1 -0 1 3 4 3 4 4 4 4 4 4 4 2 2 1 2 2 3 3 3 3 2
1 0 -1 -1 -1 -0 -0 0 0 0 -0 -0 -1 -2 -2 -2 -1 1 2 3 3 4 4 4 3 3 3 3 2 2 1 1 2 2 2 2 2 1
-0 -1 -1 -0 0 0 1 1 0 -0 -0 -1 -1 -2 -1 -1 -0 0 1 2 2 3 3 3 3 2 2 2 2 1 0 1 1 1 1 1 1 1
-0 -0 -0 0 1 1 0 -0 -0 -1 -1 -1 -1 -1 -1 -1 -1 -0 0 1 1 2 2 2 2 2 2 2 1 1 0 -0 0 1 1 1 1 -0
0 1 1 1 0 0 -0 -0 -1 -1 -1 -1 -1 -1 -1 -1 -1 -1 -1 0 1 1 1 2 2 2 2 1 1 0 -0 -0 -1 -1 -1 -1 -2 -3
1 1 -0 -0 -0 -0 -0 -1 -1 -1 -1 -1 -1 -1 -1 -1 -1 -1 -1 0 0 1 1 1 1 1 1 1 0 -0 -1 -1 -4 -6 -8 -10 -11 -12
-0 -1 -1 -1 -1 -2 -2 -1 -1 -1 -1 -1 -1 -1 -2 -1 -1 -1 -0 -0 -0 -0 0 0 1 0 -0 0 -0 -1 -1 -2 -5 -10 -16 -20 -20 -20
-1 -2 -1 -1 -1 -1 -1 -1 -2 -2 -2 -2 -1 -1 -2 -2 -2 -3 -3 -1 -0 -0 -0 -1 -0 -0 -1 -1 -2 -6 -4 -5 -7 -13 -20 -20 -18 -18
-1 -1 -1 -1 -1 -1 -1 -1 -1 -2 -2 -2 -2 -2 -3 -4 -5 -5 -5 -8 -7 -2 -1 -1 -1 -1 -2 -3 -4 -3 -6 -14 -12 -17 -18 -17 -15 -16
-1 -1 -1 -1 -1 -1 -1 -1 -1 -2 -3 -4 -5 -5 -8 -12 -15 -16 -16 -14 -13 -15 -9 -2 -2 -2 -2 -2 -5 -10 -6 -13 -16 -17 -16 -16 -15 -14
-1 -1 -1 -1 -1 -2 -2 -1 -2 -2 -3 -5 -9 -11 -11 -17 -19 -20 -21 -21 -20 -19 -18 -13 -5 -3 -3 -3 -5 -12 -17 -16 -16 -18 -15 -14 -14 -13
-0 -0 -0 -1 -2 -2 -2 -2 -2 -2 -2 -5 -10 -15 -15 -19 -20 -20 -19 -19 -19 -19 -20 -19 -18 -13 -10 -10 -10 -14 -17 -18 -15 -15 -15 -14 -14 -14
0 0 -0 -0 -1 -2 -2 -2 -2 -3 -3 -3 -8 -15 -16 -18 -21 -21 -19 -18 -18 -17 -18 -19 -18 -18 -18 -18 -17 -18 -15 -15 -15 -15 -16 -16 -16 -16
-0 1 1 0 -0 -2 -2 -2 -2 -3 -3 -3 -8 -11 -12 -16 -18 -20 -19 -18 -18 -17 -17 -17 -17 -16 -14 -15 -18 -18 -17 -16 -15 -16 -17 -17 -16 -15
-1 -0 0 0 0 -1 -2 -2 -3 -3 -3 -4 -5 -9 -10 -13 -15 -18 -19 -19 -18 -17 -16 -17 -17 -18 -16 -15 -14 -15 -16 -17 -18 -17 -17 -16 -12 -11
-1 -1 -0 -0 -1 -1 -2 -2 -3 -3 -4 -4 -4 -8 -9 -10 -13 -14 -16 -18 -18 -18 -18 -19 -18 -14 -14 -13 -14 -17 -17 -18 -18 -17 -16 -15 -12 -10
-2 -2 -2 -2 -2 -2 -2 -2 -3 -3 -3 -4 -4 -4 -4 -7 -9 -13 -14 -15 -15 -16 -18 -18 -16 -16 -17 -16 -16 -16 -17 -17 -18 -18 -17 -14 -11 -14
-3 -2 -2 -3 -3 -3 -3 -3 -3 -3 -3 -4 -4 -4 -5 -5 -5 -7 -11 -12 -13 -14 -15 -16 -18 -17 -16 -16 -16 -17 -16 -17 -17 -17 -16 -16 -16 -16

GFSNE_850_dewp_123.txt.gz
Dewpoint
8 9 10 9 11 11 10 9 7 7 4 3 5 5 5 3 3 1 0 3 6 6 6 6 6 7 7 7 5 6 5 4 3 1 -2 -2 3 7
7 10 8 7 9 10 10 7 6 -0 0 1 2 4 3 1 0 -0 1 3 4 5 5 6 7 7 5 4 4 5 4 3 2 -0 3 -1 0 7
6 7 8 7 8 8 7 5 -1 -1 -2 0 1 1 0 -1 -1 0 1 3 4 4 4 6 6 6 6 6 6 6 4 3 2 3 5 2 4 7
8 7 7 7 7 7 4 -0 -1 -1 -1 -1 -1 -1 -1 -0 -0 -1 -1 2 4 3 3 4 4 5 5 5 5 5 4 3 1 5 7 6 7 6
6 7 7 7 7 3 -0 -1 -0 -1 -1 -1 -0 -0 -0 -1 -1 -1 -1 -1 1 4 3 3 5 5 5 5 5 4 3 2 1 2 5 5 4 4
7 7 7 7 3 0 -1 -1 -1 -1 -0 0 0 -0 -1 -1 -2 -3 -2 -1 1 3 3 3 4 4 4 4 4 3 3 1 1 2 2 3 4 4
10 7 7 2 0 -1 -0 -1 -0 -0 0 0 -0 -1 -1 -2 -2 -2 -2 -0 1 2 2 3 3 3 3 3 3 3 2 1 1 1 3 3 3 3
7 7 2 0 -1 -0 -0 -0 0 1 0 -0 -1 -1 -1 -2 -2 -2 -1 -0 0 1 3 3 3 2 2 2 2 2 2 1 0 1 2 2 2 2
6 2 0 -0 -0 -0 0 1 0 -0 -0 -1 -1 -1 -1 -1 -2 -1 -1 -0 -0 0 1 2 2 2 2 2 2 2 1 1 -0 -0 1 1 1 1
1 -0 -0 -0 0 1 0 0 -0 -1 -1 -1 -1 -1 -1 -1 -1 -1 -1 -1 -1 -0 0 1 2 2 2 2 2 1 1 0 -0 -0 0 1 1 1
0 -0 0 1 1 -0 -1 -1 -1 -1 -1 -1 -1 -1 -1 -1 -1 -1 -1 -1 -1 -0 1 0 1 1 1 1 1 1 1 0 -1 -1 -1 -2 -1 -2
0 1 1 0 -1 -2 -2 -2 -2 -2 -1 -1 -1 -1 -1 -1 -2 -2 -1 -1 -0 -0 0 0 0 0 0 1 1 0 0 -1 -1 -1 -4 -6 -9 -11
1 1 -0 -1 -2 -2 -2 -2 -2 -2 -2 -2 -2 -2 -2 -2 -2 -2 -3 -3 -2 -1 -1 -1 -1 -0 -1 -0 -1 -2 -3 -4 -2 -2 -5 -9 -17 -19
1 -0 -1 -2 -1 -1 -2 -2 -2 -2 -1 -2 -2 -2 -2 -3 -4 -5 -5 -5 -6 -6 -4 -2 -2 -1 -1 -1 -1 -2 -5 -3 -6 -6 -8 -13 -17 -19
0 -0 -1 -1 -1 -1 -1 -2 -2 -2 -2 -2 -3 -4 -5 -8 -12 -14 -16 -16 -15 -13 -13 -12 -4 -2 -2 -2 -2 -2 -6 -9 -6 -14 -13 -16 -17 -17
0 -0 -1 -1 -1 -1 -1 -2 -2 -2 -2 -2 -3 -7 -10 -11 -14 -18 -19 -19 -21 -20 -20 -19 -17 -7 -3 -3 -3 -3 -4 -14 -15 -16 -16 -16 -15 -14
0 0 -0 -0 -0 -1 -1 -2 -2 -2 -2 -3 -3 -6 -11 -15 -17 -19 -20 -20 -20 -20 -20 -20 -19 -18 -14 -8 -6 -7 -8 -13 -18 -16 -16 -18 -16 -13
-0 -0 -0 -0 -0 -0 -0 -1 -2 -2 -3 -3 -3 -4 -8 -15 -16 -18 -21 -21 -20 -20 -20 -18 -19 -19 -18 -18 -16 -16 -16 -17 -17 -16 -15 -15 -15 -15
-1 -1 -0 -0 -0 -1 -0 -1 -2 -2 -3 -3 -3 -4 -9 -12 -12 -15 -18 -21 -21 -19 -19 -17 -18 -18 -16 -17 -18 -18 -19 -19 -15 -14 -15 -15 -17 -16
-2 -2 -1 -1 -1 -1 -1 -1 -1 -2 -2 -3 -3 -4 -4 -9 -10 -13 -16 -19 -20 -19 -18 -19 -19 -18 -17 -15 -13 -14 -14 -14 -16 -16 -16 -16 -16 -16
-2 -2 -2 -2 -2 -2 -2 -2 -2 -2 -2 -3 -3 -4 -4 -8 -9 -11 -14 -16 -17 -19 -19 -19 -18 -14 -14 -13 -15 -17 -15 -15 -15 -18 -18 -16 -16 -15
-3 -2 -2 -2 -2 -2 -2 -2 -2 -2 -3 -3 -3 -3 -4 -4 -5 -6 -9 -14 -14 -15 -16 -17 -15 -14 -15 -16 -16 -16 -16 -16 -16 -17 -18 -17 -15 -13
-3 -3 -3 -3 -3 -3 -3 -3 -3 -3 -3 -3 -3 -3 -4 -4 -4 -5 -5 -7 -11 -12 -13 -14 -14 -16 -17 -16 -15 -18 -17 -17 -16 -16 -17 -18 -17 -16